<?xml version="1.0" encoding="UTF-8" standalone="no" ?>
<gpx xmlns="http://www.topografix.com/GPX/1/1" xmlns:xsi="http://www.w3.org/2001/XMLSchema-instance" xsi:schemaLocation="http://www.topografix.com/GPX/1/1 http://www.topografix.com/GPX/1/1/gpx.xsd" version="1.1" creator="VisuGPX - https://www.visugpx.com">
  <metadata>
    <name>VTT-Gard - Mont Ventoux - Chalet Reynard à Bedoin</name>
    <desc><![CDATA[Départ du chalet Reynard, arrivée à Bedoin en passant par le Côté Nord, ce qui permet une grande variété de paysages et de chemins/sentiers !]]></desc>
  </metadata>
  <trk>
    <name><![CDATA[Ventoux all moutain]]></name>
    <cmt><![CDATA[19 juil. 2015 07:18:29]]></cmt>
    <desc><![CDATA[{DC1}Heure de fin	: 13:47:59
Durée totale	: 6h29:29
Moyenne globale	: 7.2 km/h
Aire incluse	: 7315.8707 ha
Détails par segments
distance  | durée    | vit.moy. | vit.max. | déniv. + | déniv -
   km     | hh:mn:ss |   km/h   |   km/h   |    m     |    m
    47.06 | 06:29:29 |      7.2 |     61.0 |     2006 |    -3068{DC2}]]></desc>
    <trkseg>
      <trkpt lat="44.15203" lon="5.31849">
        <ele>1402</ele>
        <time>2015-07-19T05:18:30Z</time>
      </trkpt>
      <trkpt lat="44.15202" lon="5.31858">
        <ele>1410</ele>
        <time>2015-07-19T05:18:55Z</time>
      </trkpt>
      <trkpt lat="44.15192" lon="5.31858">
        <ele>1411</ele>
        <time>2015-07-19T05:19:04Z</time>
      </trkpt>
      <trkpt lat="44.15186" lon="5.3187">
        <ele>1414</ele>
        <time>2015-07-19T05:19:07Z</time>
      </trkpt>
      <trkpt lat="44.1518" lon="5.3188">
        <ele>1415</ele>
        <time>2015-07-19T05:19:09Z</time>
      </trkpt>
      <trkpt lat="44.15174" lon="5.31874">
        <ele>1416</ele>
        <time>2015-07-19T05:19:11Z</time>
      </trkpt>
      <trkpt lat="44.15046" lon="5.31775">
        <ele>1428</ele>
        <time>2015-07-19T05:19:42Z</time>
      </trkpt>
      <trkpt lat="44.1492" lon="5.31762">
        <ele>1425</ele>
        <time>2015-07-19T05:20:08Z</time>
      </trkpt>
      <trkpt lat="44.14908" lon="5.31789">
        <ele>1425</ele>
        <time>2015-07-19T05:20:12Z</time>
      </trkpt>
      <trkpt lat="44.14901" lon="5.31809">
        <ele>1426</ele>
        <time>2015-07-19T05:20:15Z</time>
      </trkpt>
      <trkpt lat="44.14899" lon="5.31816">
        <ele>1426</ele>
        <time>2015-07-19T05:20:16Z</time>
      </trkpt>
      <trkpt lat="44.14886" lon="5.31906">
        <ele>1423</ele>
        <time>2015-07-19T05:20:28Z</time>
      </trkpt>
      <trkpt lat="44.14894" lon="5.31922">
        <ele>1424</ele>
        <time>2015-07-19T05:20:30Z</time>
      </trkpt>
      <trkpt lat="44.14903" lon="5.31927">
        <ele>1424</ele>
        <time>2015-07-19T05:20:32Z</time>
      </trkpt>
      <trkpt lat="44.14909" lon="5.31927">
        <ele>1424</ele>
        <time>2015-07-19T05:20:34Z</time>
      </trkpt>
      <trkpt lat="44.14914" lon="5.31925">
        <ele>1425</ele>
        <time>2015-07-19T05:20:37Z</time>
      </trkpt>
      <trkpt lat="44.14919" lon="5.3192">
        <ele>1428</ele>
        <time>2015-07-19T05:20:41Z</time>
      </trkpt>
      <trkpt lat="44.14928" lon="5.31899">
        <ele>1433</ele>
        <time>2015-07-19T05:20:51Z</time>
      </trkpt>
      <trkpt lat="44.14938" lon="5.31859">
        <ele>1436</ele>
        <time>2015-07-19T05:21:08Z</time>
      </trkpt>
      <trkpt lat="44.14941" lon="5.31853">
        <ele>1435</ele>
        <time>2015-07-19T05:21:10Z</time>
      </trkpt>
      <trkpt lat="44.1495" lon="5.31841">
        <ele>1435</ele>
        <time>2015-07-19T05:21:17Z</time>
      </trkpt>
      <trkpt lat="44.14957" lon="5.3183">
        <ele>1437</ele>
        <time>2015-07-19T05:21:24Z</time>
      </trkpt>
      <trkpt lat="44.14962" lon="5.31826">
        <ele>1438</ele>
        <time>2015-07-19T05:21:27Z</time>
      </trkpt>
      <trkpt lat="44.14968" lon="5.31826">
        <ele>1439</ele>
        <time>2015-07-19T05:21:32Z</time>
      </trkpt>
      <trkpt lat="44.14972" lon="5.31828">
        <ele>1438</ele>
        <time>2015-07-19T05:21:37Z</time>
      </trkpt>
      <trkpt lat="44.14975" lon="5.31833">
        <ele>1436</ele>
        <time>2015-07-19T05:21:44Z</time>
      </trkpt>
      <trkpt lat="44.14974" lon="5.3184">
        <ele>1436</ele>
        <time>2015-07-19T05:21:47Z</time>
      </trkpt>
      <trkpt lat="44.14969" lon="5.3186">
        <ele>1434</ele>
        <time>2015-07-19T05:21:55Z</time>
      </trkpt>
      <trkpt lat="44.14967" lon="5.31867">
        <ele>1435</ele>
        <time>2015-07-19T05:21:58Z</time>
      </trkpt>
      <trkpt lat="44.14965" lon="5.3189">
        <ele>1435</ele>
        <time>2015-07-19T05:22:07Z</time>
      </trkpt>
      <trkpt lat="44.14963" lon="5.31911">
        <ele>1434</ele>
        <time>2015-07-19T05:22:13Z</time>
      </trkpt>
      <trkpt lat="44.14968" lon="5.31943">
        <ele>1438</ele>
        <time>2015-07-19T05:22:24Z</time>
      </trkpt>
      <trkpt lat="44.14973" lon="5.31951">
        <ele>1440</ele>
        <time>2015-07-19T05:22:26Z</time>
      </trkpt>
      <trkpt lat="44.14981" lon="5.31959">
        <ele>1441</ele>
        <time>2015-07-19T05:22:29Z</time>
      </trkpt>
      <trkpt lat="44.14986" lon="5.31959">
        <ele>1441</ele>
        <time>2015-07-19T05:22:34Z</time>
      </trkpt>
      <trkpt lat="44.15" lon="5.31946">
        <ele>1444</ele>
        <time>2015-07-19T05:22:42Z</time>
      </trkpt>
      <trkpt lat="44.15009" lon="5.31931">
        <ele>1443</ele>
        <time>2015-07-19T05:22:47Z</time>
      </trkpt>
      <trkpt lat="44.15021" lon="5.31908">
        <ele>1447</ele>
        <time>2015-07-19T05:22:58Z</time>
      </trkpt>
      <trkpt lat="44.15029" lon="5.31895">
        <ele>1446</ele>
        <time>2015-07-19T05:23:05Z</time>
      </trkpt>
      <trkpt lat="44.15033" lon="5.31892">
        <ele>1446</ele>
        <time>2015-07-19T05:23:08Z</time>
      </trkpt>
      <trkpt lat="44.15038" lon="5.31904">
        <ele>1444</ele>
        <time>2015-07-19T05:23:23Z</time>
      </trkpt>
      <trkpt lat="44.15036" lon="5.3191">
        <ele>1445</ele>
        <time>2015-07-19T05:23:26Z</time>
      </trkpt>
      <trkpt lat="44.15034" lon="5.31924">
        <ele>1443</ele>
        <time>2015-07-19T05:23:34Z</time>
      </trkpt>
      <trkpt lat="44.15034" lon="5.31993">
        <ele>1449</ele>
        <time>2015-07-19T05:24:01Z</time>
      </trkpt>
      <trkpt lat="44.15041" lon="5.32002">
        <ele>1450</ele>
        <time>2015-07-19T05:24:04Z</time>
      </trkpt>
      <trkpt lat="44.15051" lon="5.32006">
        <ele>1450</ele>
        <time>2015-07-19T05:24:08Z</time>
      </trkpt>
      <trkpt lat="44.15056" lon="5.32004">
        <ele>1452</ele>
        <time>2015-07-19T05:24:13Z</time>
      </trkpt>
      <trkpt lat="44.15068" lon="5.3199">
        <ele>1455</ele>
        <time>2015-07-19T05:24:23Z</time>
      </trkpt>
      <trkpt lat="44.15083" lon="5.31985">
        <ele>1462</ele>
        <time>2015-07-19T05:24:38Z</time>
      </trkpt>
      <trkpt lat="44.1508" lon="5.3197">
        <ele>1468</ele>
        <time>2015-07-19T05:24:54Z</time>
      </trkpt>
      <trkpt lat="44.15085" lon="5.31962">
        <ele>1453</ele>
        <time>2015-07-19T05:25:33Z</time>
      </trkpt>
      <trkpt lat="44.15096" lon="5.31961">
        <ele>1450</ele>
        <time>2015-07-19T05:25:46Z</time>
      </trkpt>
      <trkpt lat="44.15103" lon="5.31968">
        <ele>1452</ele>
        <time>2015-07-19T05:25:52Z</time>
      </trkpt>
      <trkpt lat="44.15119" lon="5.31975">
        <ele>1458</ele>
        <time>2015-07-19T05:26:06Z</time>
      </trkpt>
      <trkpt lat="44.15128" lon="5.31981">
        <ele>1458</ele>
        <time>2015-07-19T05:26:12Z</time>
      </trkpt>
      <trkpt lat="44.15133" lon="5.31987">
        <ele>1457</ele>
        <time>2015-07-19T05:26:17Z</time>
      </trkpt>
      <trkpt lat="44.15156" lon="5.32036">
        <ele>1467</ele>
        <time>2015-07-19T05:26:49Z</time>
      </trkpt>
      <trkpt lat="44.15163" lon="5.3205">
        <ele>1471</ele>
        <time>2015-07-19T05:26:58Z</time>
      </trkpt>
      <trkpt lat="44.15165" lon="5.32057">
        <ele>1471</ele>
        <time>2015-07-19T05:27:01Z</time>
      </trkpt>
      <trkpt lat="44.15168" lon="5.3207">
        <ele>1471</ele>
        <time>2015-07-19T05:27:09Z</time>
      </trkpt>
      <trkpt lat="44.1517" lon="5.32079">
        <ele>1472</ele>
        <time>2015-07-19T05:27:17Z</time>
      </trkpt>
      <trkpt lat="44.15169" lon="5.321">
        <ele>1472</ele>
        <time>2015-07-19T05:27:25Z</time>
      </trkpt>
      <trkpt lat="44.15168" lon="5.32106">
        <ele>1471</ele>
        <time>2015-07-19T05:27:29Z</time>
      </trkpt>
      <trkpt lat="44.15166" lon="5.32113">
        <ele>1471</ele>
        <time>2015-07-19T05:27:32Z</time>
      </trkpt>
      <trkpt lat="44.15165" lon="5.32122">
        <ele>1471</ele>
        <time>2015-07-19T05:27:35Z</time>
      </trkpt>
      <trkpt lat="44.15164" lon="5.32129">
        <ele>1471</ele>
        <time>2015-07-19T05:27:38Z</time>
      </trkpt>
      <trkpt lat="44.15164" lon="5.32136">
        <ele>1471</ele>
        <time>2015-07-19T05:27:41Z</time>
      </trkpt>
      <trkpt lat="44.15165" lon="5.32144">
        <ele>1470</ele>
        <time>2015-07-19T05:27:43Z</time>
      </trkpt>
      <trkpt lat="44.15165" lon="5.3215">
        <ele>1470</ele>
        <time>2015-07-19T05:27:46Z</time>
      </trkpt>
      <trkpt lat="44.15169" lon="5.32181">
        <ele>1472</ele>
        <time>2015-07-19T05:27:58Z</time>
      </trkpt>
      <trkpt lat="44.1517" lon="5.32196">
        <ele>1471</ele>
        <time>2015-07-19T05:28:03Z</time>
      </trkpt>
      <trkpt lat="44.15171" lon="5.32213">
        <ele>1473</ele>
        <time>2015-07-19T05:28:09Z</time>
      </trkpt>
      <trkpt lat="44.15173" lon="5.3222">
        <ele>1473</ele>
        <time>2015-07-19T05:28:12Z</time>
      </trkpt>
      <trkpt lat="44.15175" lon="5.32234">
        <ele>1472</ele>
        <time>2015-07-19T05:28:18Z</time>
      </trkpt>
      <trkpt lat="44.15179" lon="5.32254">
        <ele>1473</ele>
        <time>2015-07-19T05:28:25Z</time>
      </trkpt>
      <trkpt lat="44.15183" lon="5.32266">
        <ele>1475</ele>
        <time>2015-07-19T05:28:32Z</time>
      </trkpt>
      <trkpt lat="44.15186" lon="5.32272">
        <ele>1475</ele>
        <time>2015-07-19T05:28:36Z</time>
      </trkpt>
      <trkpt lat="44.15188" lon="5.32278">
        <ele>1475</ele>
        <time>2015-07-19T05:28:39Z</time>
      </trkpt>
      <trkpt lat="44.15191" lon="5.3228">
        <ele>1475</ele>
        <time>2015-07-19T05:28:51Z</time>
      </trkpt>
      <trkpt lat="44.1519" lon="5.32276">
        <ele>1476</ele>
        <time>2015-07-19T05:29:35Z</time>
      </trkpt>
      <trkpt lat="44.1518" lon="5.3227">
        <ele>1476</ele>
        <time>2015-07-19T05:29:45Z</time>
      </trkpt>
      <trkpt lat="44.15177" lon="5.32265">
        <ele>1476</ele>
        <time>2015-07-19T05:29:50Z</time>
      </trkpt>
      <trkpt lat="44.15173" lon="5.32261">
        <ele>1476</ele>
        <time>2015-07-19T05:29:54Z</time>
      </trkpt>
      <trkpt lat="44.15175" lon="5.32254">
        <ele>1476</ele>
        <time>2015-07-19T05:30:02Z</time>
      </trkpt>
      <trkpt lat="44.15172" lon="5.32247">
        <ele>1476</ele>
        <time>2015-07-19T05:30:06Z</time>
      </trkpt>
      <trkpt lat="44.15174" lon="5.32251">
        <ele>1473</ele>
        <time>2015-07-19T05:32:54Z</time>
      </trkpt>
      <trkpt lat="44.15176" lon="5.32257">
        <ele>1473</ele>
        <time>2015-07-19T05:33:03Z</time>
      </trkpt>
      <trkpt lat="44.15181" lon="5.32259">
        <ele>1475</ele>
        <time>2015-07-19T05:33:08Z</time>
      </trkpt>
      <trkpt lat="44.15184" lon="5.32264">
        <ele>1475</ele>
        <time>2015-07-19T05:33:16Z</time>
      </trkpt>
      <trkpt lat="44.15185" lon="5.32271">
        <ele>1475</ele>
        <time>2015-07-19T05:33:32Z</time>
      </trkpt>
      <trkpt lat="44.15196" lon="5.3229">
        <ele>1479</ele>
        <time>2015-07-19T05:33:50Z</time>
      </trkpt>
      <trkpt lat="44.152" lon="5.32295">
        <ele>1479</ele>
        <time>2015-07-19T05:33:53Z</time>
      </trkpt>
      <trkpt lat="44.15204" lon="5.323">
        <ele>1479</ele>
        <time>2015-07-19T05:33:56Z</time>
      </trkpt>
      <trkpt lat="44.15212" lon="5.32309">
        <ele>1479</ele>
        <time>2015-07-19T05:34:02Z</time>
      </trkpt>
      <trkpt lat="44.1526" lon="5.32341">
        <ele>1478</ele>
        <time>2015-07-19T05:34:20Z</time>
      </trkpt>
      <trkpt lat="44.15283" lon="5.32357">
        <ele>1482</ele>
        <time>2015-07-19T05:34:41Z</time>
      </trkpt>
      <trkpt lat="44.15288" lon="5.32359">
        <ele>1482</ele>
        <time>2015-07-19T05:34:45Z</time>
      </trkpt>
      <trkpt lat="44.1529" lon="5.32359">
        <ele>1482</ele>
        <time>2015-07-19T05:34:51Z</time>
      </trkpt>
      <trkpt lat="44.15284" lon="5.32363">
        <ele>1482</ele>
        <time>2015-07-19T05:35:09Z</time>
      </trkpt>
      <trkpt lat="44.1528" lon="5.32367">
        <ele>1482</ele>
        <time>2015-07-19T05:35:12Z</time>
      </trkpt>
      <trkpt lat="44.15276" lon="5.32373">
        <ele>1481</ele>
        <time>2015-07-19T05:35:15Z</time>
      </trkpt>
      <trkpt lat="44.15267" lon="5.32394">
        <ele>1480</ele>
        <time>2015-07-19T05:35:21Z</time>
      </trkpt>
      <trkpt lat="44.15267" lon="5.32397">
        <ele>1480</ele>
        <time>2015-07-19T05:35:22Z</time>
      </trkpt>
      <trkpt lat="44.1527" lon="5.32408">
        <ele>1482</ele>
        <time>2015-07-19T05:35:40Z</time>
      </trkpt>
      <trkpt lat="44.15272" lon="5.32414">
        <ele>1483</ele>
        <time>2015-07-19T05:35:43Z</time>
      </trkpt>
      <trkpt lat="44.15273" lon="5.3242">
        <ele>1484</ele>
        <time>2015-07-19T05:35:48Z</time>
      </trkpt>
      <trkpt lat="44.15274" lon="5.32426">
        <ele>1484</ele>
        <time>2015-07-19T05:35:50Z</time>
      </trkpt>
      <trkpt lat="44.15274" lon="5.32434">
        <ele>1484</ele>
        <time>2015-07-19T05:35:53Z</time>
      </trkpt>
      <trkpt lat="44.15279" lon="5.32448">
        <ele>1484</ele>
        <time>2015-07-19T05:35:58Z</time>
      </trkpt>
      <trkpt lat="44.15298" lon="5.32489">
        <ele>1489</ele>
        <time>2015-07-19T05:36:24Z</time>
      </trkpt>
      <trkpt lat="44.15303" lon="5.32494">
        <ele>1488</ele>
        <time>2015-07-19T05:36:31Z</time>
      </trkpt>
      <trkpt lat="44.15307" lon="5.32499">
        <ele>1489</ele>
        <time>2015-07-19T05:36:35Z</time>
      </trkpt>
      <trkpt lat="44.15309" lon="5.3251">
        <ele>1492</ele>
        <time>2015-07-19T05:37:11Z</time>
      </trkpt>
      <trkpt lat="44.15316" lon="5.32524">
        <ele>1490</ele>
        <time>2015-07-19T05:37:21Z</time>
      </trkpt>
      <trkpt lat="44.15331" lon="5.32553">
        <ele>1491</ele>
        <time>2015-07-19T05:37:37Z</time>
      </trkpt>
      <trkpt lat="44.15347" lon="5.32559">
        <ele>1493</ele>
        <time>2015-07-19T05:37:46Z</time>
      </trkpt>
      <trkpt lat="44.15353" lon="5.32559">
        <ele>1493</ele>
        <time>2015-07-19T05:37:49Z</time>
      </trkpt>
      <trkpt lat="44.15357" lon="5.32562">
        <ele>1493</ele>
        <time>2015-07-19T05:37:53Z</time>
      </trkpt>
      <trkpt lat="44.15364" lon="5.32567">
        <ele>1494</ele>
        <time>2015-07-19T05:37:59Z</time>
      </trkpt>
      <trkpt lat="44.1537" lon="5.32565">
        <ele>1496</ele>
        <time>2015-07-19T05:38:03Z</time>
      </trkpt>
      <trkpt lat="44.15376" lon="5.32562">
        <ele>1497</ele>
        <time>2015-07-19T05:38:16Z</time>
      </trkpt>
      <trkpt lat="44.15403" lon="5.32561">
        <ele>1502</ele>
        <time>2015-07-19T05:38:51Z</time>
      </trkpt>
      <trkpt lat="44.15417" lon="5.3256">
        <ele>1508</ele>
        <time>2015-07-19T05:39:24Z</time>
      </trkpt>
      <trkpt lat="44.15422" lon="5.32562">
        <ele>1509</ele>
        <time>2015-07-19T05:39:31Z</time>
      </trkpt>
      <trkpt lat="44.15428" lon="5.32562">
        <ele>1509</ele>
        <time>2015-07-19T05:39:34Z</time>
      </trkpt>
      <trkpt lat="44.15438" lon="5.32564">
        <ele>1511</ele>
        <time>2015-07-19T05:39:43Z</time>
      </trkpt>
      <trkpt lat="44.15442" lon="5.32564">
        <ele>1510</ele>
        <time>2015-07-19T05:39:59Z</time>
      </trkpt>
      <trkpt lat="44.15447" lon="5.32565">
        <ele>1510</ele>
        <time>2015-07-19T05:40:03Z</time>
      </trkpt>
      <trkpt lat="44.1545" lon="5.32565">
        <ele>1512</ele>
        <time>2015-07-19T05:40:11Z</time>
      </trkpt>
      <trkpt lat="44.15461" lon="5.32574">
        <ele>1514</ele>
        <time>2015-07-19T05:40:24Z</time>
      </trkpt>
      <trkpt lat="44.15466" lon="5.32577">
        <ele>1514</ele>
        <time>2015-07-19T05:40:27Z</time>
      </trkpt>
      <trkpt lat="44.15477" lon="5.32581">
        <ele>1513</ele>
        <time>2015-07-19T05:40:34Z</time>
      </trkpt>
      <trkpt lat="44.15503" lon="5.32591">
        <ele>1514</ele>
        <time>2015-07-19T05:40:51Z</time>
      </trkpt>
      <trkpt lat="44.15509" lon="5.32591">
        <ele>1514</ele>
        <time>2015-07-19T05:40:54Z</time>
      </trkpt>
      <trkpt lat="44.15514" lon="5.32592">
        <ele>1514</ele>
        <time>2015-07-19T05:40:58Z</time>
      </trkpt>
      <trkpt lat="44.15547" lon="5.32607">
        <ele>1520</ele>
        <time>2015-07-19T05:41:20Z</time>
      </trkpt>
      <trkpt lat="44.15552" lon="5.32609">
        <ele>1520</ele>
        <time>2015-07-19T05:41:24Z</time>
      </trkpt>
      <trkpt lat="44.15582" lon="5.32619">
        <ele>1526</ele>
        <time>2015-07-19T05:41:47Z</time>
      </trkpt>
      <trkpt lat="44.156" lon="5.32623">
        <ele>1525</ele>
        <time>2015-07-19T05:41:57Z</time>
      </trkpt>
      <trkpt lat="44.15622" lon="5.32619">
        <ele>1522</ele>
        <time>2015-07-19T05:42:08Z</time>
      </trkpt>
      <trkpt lat="44.15628" lon="5.32619">
        <ele>1522</ele>
        <time>2015-07-19T05:42:13Z</time>
      </trkpt>
      <trkpt lat="44.15639" lon="5.32619">
        <ele>1526</ele>
        <time>2015-07-19T05:42:30Z</time>
      </trkpt>
      <trkpt lat="44.15649" lon="5.32616">
        <ele>1525</ele>
        <time>2015-07-19T05:42:42Z</time>
      </trkpt>
      <trkpt lat="44.15689" lon="5.32612">
        <ele>1532</ele>
        <time>2015-07-19T05:43:08Z</time>
      </trkpt>
      <trkpt lat="44.15715" lon="5.32622">
        <ele>1527</ele>
        <time>2015-07-19T05:43:24Z</time>
      </trkpt>
      <trkpt lat="44.15712" lon="5.32634">
        <ele>1528</ele>
        <time>2015-07-19T05:43:36Z</time>
      </trkpt>
      <trkpt lat="44.15709" lon="5.32643">
        <ele>1529</ele>
        <time>2015-07-19T05:43:39Z</time>
      </trkpt>
      <trkpt lat="44.15708" lon="5.32649">
        <ele>1528</ele>
        <time>2015-07-19T05:43:41Z</time>
      </trkpt>
      <trkpt lat="44.15705" lon="5.32677">
        <ele>1518</ele>
        <time>2015-07-19T05:44:07Z</time>
      </trkpt>
      <trkpt lat="44.15698" lon="5.32706">
        <ele>1520</ele>
        <time>2015-07-19T05:44:14Z</time>
      </trkpt>
      <trkpt lat="44.15695" lon="5.32722">
        <ele>1521</ele>
        <time>2015-07-19T05:44:19Z</time>
      </trkpt>
      <trkpt lat="44.15695" lon="5.32736">
        <ele>1518</ele>
        <time>2015-07-19T05:44:30Z</time>
      </trkpt>
      <trkpt lat="44.1569" lon="5.32748">
        <ele>1518</ele>
        <time>2015-07-19T05:44:34Z</time>
      </trkpt>
      <trkpt lat="44.15682" lon="5.32772">
        <ele>1518</ele>
        <time>2015-07-19T05:44:41Z</time>
      </trkpt>
      <trkpt lat="44.15682" lon="5.32787">
        <ele>1518</ele>
        <time>2015-07-19T05:44:45Z</time>
      </trkpt>
      <trkpt lat="44.15683" lon="5.32796">
        <ele>1516</ele>
        <time>2015-07-19T05:44:48Z</time>
      </trkpt>
      <trkpt lat="44.15684" lon="5.3281">
        <ele>1515</ele>
        <time>2015-07-19T05:44:54Z</time>
      </trkpt>
      <trkpt lat="44.15676" lon="5.32846">
        <ele>1523</ele>
        <time>2015-07-19T05:45:06Z</time>
      </trkpt>
      <trkpt lat="44.1568" lon="5.32866">
        <ele>1529</ele>
        <time>2015-07-19T05:45:36Z</time>
      </trkpt>
      <trkpt lat="44.15676" lon="5.32871">
        <ele>1527</ele>
        <time>2015-07-19T05:45:42Z</time>
      </trkpt>
      <trkpt lat="44.15673" lon="5.32874">
        <ele>1529</ele>
        <time>2015-07-19T05:45:50Z</time>
      </trkpt>
      <trkpt lat="44.15667" lon="5.32875">
        <ele>1529</ele>
        <time>2015-07-19T05:46:01Z</time>
      </trkpt>
      <trkpt lat="44.15661" lon="5.32883">
        <ele>1530</ele>
        <time>2015-07-19T05:46:06Z</time>
      </trkpt>
      <trkpt lat="44.15657" lon="5.32887">
        <ele>1529</ele>
        <time>2015-07-19T05:46:10Z</time>
      </trkpt>
      <trkpt lat="44.15642" lon="5.32893">
        <ele>1531</ele>
        <time>2015-07-19T05:46:22Z</time>
      </trkpt>
      <trkpt lat="44.15638" lon="5.32898">
        <ele>1531</ele>
        <time>2015-07-19T05:46:25Z</time>
      </trkpt>
      <trkpt lat="44.1563" lon="5.32905">
        <ele>1529</ele>
        <time>2015-07-19T05:46:31Z</time>
      </trkpt>
      <trkpt lat="44.15626" lon="5.32911">
        <ele>1529</ele>
        <time>2015-07-19T05:46:34Z</time>
      </trkpt>
      <trkpt lat="44.15614" lon="5.32921">
        <ele>1531</ele>
        <time>2015-07-19T05:46:48Z</time>
      </trkpt>
      <trkpt lat="44.15602" lon="5.3293">
        <ele>1530</ele>
        <time>2015-07-19T05:46:57Z</time>
      </trkpt>
      <trkpt lat="44.1558" lon="5.3295">
        <ele>1533</ele>
        <time>2015-07-19T05:47:15Z</time>
      </trkpt>
      <trkpt lat="44.15575" lon="5.32954">
        <ele>1534</ele>
        <time>2015-07-19T05:47:18Z</time>
      </trkpt>
      <trkpt lat="44.15543" lon="5.32978">
        <ele>1535</ele>
        <time>2015-07-19T05:47:49Z</time>
      </trkpt>
      <trkpt lat="44.15533" lon="5.32988">
        <ele>1534</ele>
        <time>2015-07-19T05:47:57Z</time>
      </trkpt>
      <trkpt lat="44.15523" lon="5.32995">
        <ele>1535</ele>
        <time>2015-07-19T05:48:05Z</time>
      </trkpt>
      <trkpt lat="44.1552" lon="5.32999">
        <ele>1535</ele>
        <time>2015-07-19T05:48:08Z</time>
      </trkpt>
      <trkpt lat="44.15508" lon="5.33015">
        <ele>1533</ele>
        <time>2015-07-19T05:48:19Z</time>
      </trkpt>
      <trkpt lat="44.15504" lon="5.33024">
        <ele>1533</ele>
        <time>2015-07-19T05:48:24Z</time>
      </trkpt>
      <trkpt lat="44.15502" lon="5.33031">
        <ele>1531</ele>
        <time>2015-07-19T05:48:27Z</time>
      </trkpt>
      <trkpt lat="44.15502" lon="5.33038">
        <ele>1531</ele>
        <time>2015-07-19T05:48:30Z</time>
      </trkpt>
      <trkpt lat="44.15502" lon="5.33061">
        <ele>1535</ele>
        <time>2015-07-19T05:48:44Z</time>
      </trkpt>
      <trkpt lat="44.15504" lon="5.3307">
        <ele>1535</ele>
        <time>2015-07-19T05:48:48Z</time>
      </trkpt>
      <trkpt lat="44.15504" lon="5.33093">
        <ele>1538</ele>
        <time>2015-07-19T05:49:01Z</time>
      </trkpt>
      <trkpt lat="44.15503" lon="5.33099">
        <ele>1538</ele>
        <time>2015-07-19T05:49:05Z</time>
      </trkpt>
      <trkpt lat="44.15503" lon="5.33106">
        <ele>1537</ele>
        <time>2015-07-19T05:49:09Z</time>
      </trkpt>
      <trkpt lat="44.15503" lon="5.33113">
        <ele>1537</ele>
        <time>2015-07-19T05:49:12Z</time>
      </trkpt>
      <trkpt lat="44.15504" lon="5.33121">
        <ele>1538</ele>
        <time>2015-07-19T05:49:16Z</time>
      </trkpt>
      <trkpt lat="44.15505" lon="5.33128">
        <ele>1538</ele>
        <time>2015-07-19T05:49:20Z</time>
      </trkpt>
      <trkpt lat="44.15504" lon="5.33147">
        <ele>1542</ele>
        <time>2015-07-19T05:49:32Z</time>
      </trkpt>
      <trkpt lat="44.15505" lon="5.33154">
        <ele>1542</ele>
        <time>2015-07-19T05:49:34Z</time>
      </trkpt>
      <trkpt lat="44.15506" lon="5.33162">
        <ele>1542</ele>
        <time>2015-07-19T05:49:37Z</time>
      </trkpt>
      <trkpt lat="44.15508" lon="5.3317">
        <ele>1542</ele>
        <time>2015-07-19T05:49:42Z</time>
      </trkpt>
      <trkpt lat="44.1551" lon="5.33177">
        <ele>1542</ele>
        <time>2015-07-19T05:49:46Z</time>
      </trkpt>
      <trkpt lat="44.15513" lon="5.33191">
        <ele>1544</ele>
        <time>2015-07-19T05:49:54Z</time>
      </trkpt>
      <trkpt lat="44.15515" lon="5.33199">
        <ele>1543</ele>
        <time>2015-07-19T05:50:27Z</time>
      </trkpt>
      <trkpt lat="44.15519" lon="5.33219">
        <ele>1545</ele>
        <time>2015-07-19T05:50:37Z</time>
      </trkpt>
      <trkpt lat="44.1552" lon="5.33225">
        <ele>1545</ele>
        <time>2015-07-19T05:50:40Z</time>
      </trkpt>
      <trkpt lat="44.15521" lon="5.33241">
        <ele>1546</ele>
        <time>2015-07-19T05:50:49Z</time>
      </trkpt>
      <trkpt lat="44.15523" lon="5.33242">
        <ele>1542</ele>
        <time>2015-07-19T05:51:36Z</time>
      </trkpt>
      <trkpt lat="44.15526" lon="5.33245">
        <ele>1542</ele>
        <time>2015-07-19T05:51:44Z</time>
      </trkpt>
      <trkpt lat="44.15528" lon="5.33253">
        <ele>1542</ele>
        <time>2015-07-19T05:51:55Z</time>
      </trkpt>
      <trkpt lat="44.1553" lon="5.3326">
        <ele>1543</ele>
        <time>2015-07-19T05:52:00Z</time>
      </trkpt>
      <trkpt lat="44.15534" lon="5.33264">
        <ele>1544</ele>
        <time>2015-07-19T05:52:10Z</time>
      </trkpt>
      <trkpt lat="44.15534" lon="5.33258">
        <ele>1544</ele>
        <time>2015-07-19T05:52:14Z</time>
      </trkpt>
      <trkpt lat="44.15538" lon="5.33243">
        <ele>1545</ele>
        <time>2015-07-19T05:52:19Z</time>
      </trkpt>
      <trkpt lat="44.15547" lon="5.33233">
        <ele>1549</ele>
        <time>2015-07-19T05:52:28Z</time>
      </trkpt>
      <trkpt lat="44.15554" lon="5.33224">
        <ele>1549</ele>
        <time>2015-07-19T05:52:34Z</time>
      </trkpt>
      <trkpt lat="44.15594" lon="5.33176">
        <ele>1561</ele>
        <time>2015-07-19T05:53:06Z</time>
      </trkpt>
      <trkpt lat="44.15604" lon="5.33161">
        <ele>1563</ele>
        <time>2015-07-19T05:53:14Z</time>
      </trkpt>
      <trkpt lat="44.15609" lon="5.33157">
        <ele>1563</ele>
        <time>2015-07-19T05:53:18Z</time>
      </trkpt>
      <trkpt lat="44.15663" lon="5.33113">
        <ele>1573</ele>
        <time>2015-07-19T05:53:49Z</time>
      </trkpt>
      <trkpt lat="44.1568" lon="5.33107">
        <ele>1576</ele>
        <time>2015-07-19T05:53:58Z</time>
      </trkpt>
      <trkpt lat="44.15692" lon="5.331">
        <ele>1575</ele>
        <time>2015-07-19T05:54:04Z</time>
      </trkpt>
      <trkpt lat="44.15703" lon="5.33087">
        <ele>1573</ele>
        <time>2015-07-19T05:54:11Z</time>
      </trkpt>
      <trkpt lat="44.15717" lon="5.33079">
        <ele>1572</ele>
        <time>2015-07-19T05:54:18Z</time>
      </trkpt>
      <trkpt lat="44.15721" lon="5.33077">
        <ele>1572</ele>
        <time>2015-07-19T05:54:20Z</time>
      </trkpt>
      <trkpt lat="44.15746" lon="5.33064">
        <ele>1577</ele>
        <time>2015-07-19T05:54:34Z</time>
      </trkpt>
      <trkpt lat="44.15752" lon="5.33062">
        <ele>1577</ele>
        <time>2015-07-19T05:54:37Z</time>
      </trkpt>
      <trkpt lat="44.15763" lon="5.3306">
        <ele>1574</ele>
        <time>2015-07-19T05:54:46Z</time>
      </trkpt>
      <trkpt lat="44.15768" lon="5.33055">
        <ele>1574</ele>
        <time>2015-07-19T05:54:49Z</time>
      </trkpt>
      <trkpt lat="44.1578" lon="5.33048">
        <ele>1576</ele>
        <time>2015-07-19T05:54:56Z</time>
      </trkpt>
      <trkpt lat="44.15789" lon="5.33042">
        <ele>1577</ele>
        <time>2015-07-19T05:55:00Z</time>
      </trkpt>
      <trkpt lat="44.15799" lon="5.33042">
        <ele>1577</ele>
        <time>2015-07-19T05:55:06Z</time>
      </trkpt>
      <trkpt lat="44.15817" lon="5.33037">
        <ele>1581</ele>
        <time>2015-07-19T05:55:18Z</time>
      </trkpt>
      <trkpt lat="44.15822" lon="5.33041">
        <ele>1580</ele>
        <time>2015-07-19T05:55:22Z</time>
      </trkpt>
      <trkpt lat="44.15828" lon="5.33046">
        <ele>1581</ele>
        <time>2015-07-19T05:55:29Z</time>
      </trkpt>
      <trkpt lat="44.15833" lon="5.33062">
        <ele>1583</ele>
        <time>2015-07-19T05:55:38Z</time>
      </trkpt>
      <trkpt lat="44.1583" lon="5.33067">
        <ele>1583</ele>
        <time>2015-07-19T05:55:42Z</time>
      </trkpt>
      <trkpt lat="44.15806" lon="5.33101">
        <ele>1589</ele>
        <time>2015-07-19T05:56:03Z</time>
      </trkpt>
      <trkpt lat="44.15803" lon="5.33107">
        <ele>1589</ele>
        <time>2015-07-19T05:56:05Z</time>
      </trkpt>
      <trkpt lat="44.158" lon="5.33113">
        <ele>1589</ele>
        <time>2015-07-19T05:56:07Z</time>
      </trkpt>
      <trkpt lat="44.15796" lon="5.33125">
        <ele>1590</ele>
        <time>2015-07-19T05:56:12Z</time>
      </trkpt>
      <trkpt lat="44.15794" lon="5.33148">
        <ele>1591</ele>
        <time>2015-07-19T05:56:19Z</time>
      </trkpt>
      <trkpt lat="44.15794" lon="5.33156">
        <ele>1591</ele>
        <time>2015-07-19T05:56:22Z</time>
      </trkpt>
      <trkpt lat="44.15798" lon="5.33162">
        <ele>1590</ele>
        <time>2015-07-19T05:56:25Z</time>
      </trkpt>
      <trkpt lat="44.15805" lon="5.33165">
        <ele>1590</ele>
        <time>2015-07-19T05:56:28Z</time>
      </trkpt>
      <trkpt lat="44.15813" lon="5.33169">
        <ele>1590</ele>
        <time>2015-07-19T05:56:31Z</time>
      </trkpt>
      <trkpt lat="44.15821" lon="5.33173">
        <ele>1590</ele>
        <time>2015-07-19T05:56:35Z</time>
      </trkpt>
      <trkpt lat="44.15823" lon="5.33182">
        <ele>1589</ele>
        <time>2015-07-19T05:56:38Z</time>
      </trkpt>
      <trkpt lat="44.15826" lon="5.33196">
        <ele>1589</ele>
        <time>2015-07-19T05:56:43Z</time>
      </trkpt>
      <trkpt lat="44.15832" lon="5.33206">
        <ele>1589</ele>
        <time>2015-07-19T05:56:49Z</time>
      </trkpt>
      <trkpt lat="44.15833" lon="5.33197">
        <ele>1588</ele>
        <time>2015-07-19T05:57:12Z</time>
      </trkpt>
      <trkpt lat="44.15834" lon="5.33181">
        <ele>1587</ele>
        <time>2015-07-19T05:57:18Z</time>
      </trkpt>
      <trkpt lat="44.15832" lon="5.33174">
        <ele>1586</ele>
        <time>2015-07-19T05:57:20Z</time>
      </trkpt>
      <trkpt lat="44.15829" lon="5.3317">
        <ele>1586</ele>
        <time>2015-07-19T05:57:22Z</time>
      </trkpt>
      <trkpt lat="44.15814" lon="5.33132">
        <ele>1590</ele>
        <time>2015-07-19T05:57:36Z</time>
      </trkpt>
      <trkpt lat="44.15814" lon="5.33127">
        <ele>1590</ele>
        <time>2015-07-19T05:57:37Z</time>
      </trkpt>
      <trkpt lat="44.15815" lon="5.33114">
        <ele>1589</ele>
        <time>2015-07-19T05:57:39Z</time>
      </trkpt>
      <trkpt lat="44.15826" lon="5.33102">
        <ele>1588</ele>
        <time>2015-07-19T05:57:42Z</time>
      </trkpt>
      <trkpt lat="44.15827" lon="5.33093">
        <ele>1588</ele>
        <time>2015-07-19T05:57:43Z</time>
      </trkpt>
      <trkpt lat="44.15826" lon="5.33085">
        <ele>1588</ele>
        <time>2015-07-19T05:57:44Z</time>
      </trkpt>
      <trkpt lat="44.15821" lon="5.33077">
        <ele>1587</ele>
        <time>2015-07-19T05:57:46Z</time>
      </trkpt>
      <trkpt lat="44.15814" lon="5.33074">
        <ele>1587</ele>
        <time>2015-07-19T05:57:48Z</time>
      </trkpt>
      <trkpt lat="44.15806" lon="5.33071">
        <ele>1588</ele>
        <time>2015-07-19T05:57:50Z</time>
      </trkpt>
      <trkpt lat="44.15797" lon="5.33075">
        <ele>1587</ele>
        <time>2015-07-19T05:57:52Z</time>
      </trkpt>
      <trkpt lat="44.15784" lon="5.33082">
        <ele>1584</ele>
        <time>2015-07-19T05:57:58Z</time>
      </trkpt>
      <trkpt lat="44.15775" lon="5.33086">
        <ele>1584</ele>
        <time>2015-07-19T05:58:02Z</time>
      </trkpt>
      <trkpt lat="44.15772" lon="5.33088">
        <ele>1584</ele>
        <time>2015-07-19T05:58:04Z</time>
      </trkpt>
      <trkpt lat="44.15765" lon="5.33099">
        <ele>1585</ele>
        <time>2015-07-19T05:58:08Z</time>
      </trkpt>
      <trkpt lat="44.15761" lon="5.33104">
        <ele>1585</ele>
        <time>2015-07-19T05:58:11Z</time>
      </trkpt>
      <trkpt lat="44.15752" lon="5.3311">
        <ele>1586</ele>
        <time>2015-07-19T05:58:15Z</time>
      </trkpt>
      <trkpt lat="44.15746" lon="5.33117">
        <ele>1586</ele>
        <time>2015-07-19T05:58:18Z</time>
      </trkpt>
      <trkpt lat="44.15732" lon="5.33125">
        <ele>1587</ele>
        <time>2015-07-19T05:58:24Z</time>
      </trkpt>
      <trkpt lat="44.15727" lon="5.33126">
        <ele>1587</ele>
        <time>2015-07-19T05:58:25Z</time>
      </trkpt>
      <trkpt lat="44.15724" lon="5.33128">
        <ele>1588</ele>
        <time>2015-07-19T05:58:26Z</time>
      </trkpt>
      <trkpt lat="44.15719" lon="5.33132">
        <ele>1588</ele>
        <time>2015-07-19T05:58:27Z</time>
      </trkpt>
      <trkpt lat="44.1569" lon="5.33185">
        <ele>1583</ele>
        <time>2015-07-19T05:58:36Z</time>
      </trkpt>
      <trkpt lat="44.15685" lon="5.33201">
        <ele>1581</ele>
        <time>2015-07-19T05:58:39Z</time>
      </trkpt>
      <trkpt lat="44.15677" lon="5.33235">
        <ele>1581</ele>
        <time>2015-07-19T05:58:45Z</time>
      </trkpt>
      <trkpt lat="44.1567" lon="5.33265">
        <ele>1581</ele>
        <time>2015-07-19T05:58:50Z</time>
      </trkpt>
      <trkpt lat="44.15665" lon="5.33274">
        <ele>1580</ele>
        <time>2015-07-19T05:58:52Z</time>
      </trkpt>
      <trkpt lat="44.15663" lon="5.33279">
        <ele>1581</ele>
        <time>2015-07-19T05:58:53Z</time>
      </trkpt>
      <trkpt lat="44.15659" lon="5.33289">
        <ele>1579</ele>
        <time>2015-07-19T05:58:55Z</time>
      </trkpt>
      <trkpt lat="44.15657" lon="5.33296">
        <ele>1579</ele>
        <time>2015-07-19T05:58:56Z</time>
      </trkpt>
      <trkpt lat="44.15655" lon="5.3331">
        <ele>1580</ele>
        <time>2015-07-19T05:58:58Z</time>
      </trkpt>
      <trkpt lat="44.15652" lon="5.33371">
        <ele>1580</ele>
        <time>2015-07-19T05:59:07Z</time>
      </trkpt>
      <trkpt lat="44.15653" lon="5.33375">
        <ele>1580</ele>
        <time>2015-07-19T05:59:08Z</time>
      </trkpt>
      <trkpt lat="44.15657" lon="5.33391">
        <ele>1580</ele>
        <time>2015-07-19T05:59:13Z</time>
      </trkpt>
      <trkpt lat="44.15657" lon="5.33411">
        <ele>1582</ele>
        <time>2015-07-19T05:59:20Z</time>
      </trkpt>
      <trkpt lat="44.15657" lon="5.33414">
        <ele>1582</ele>
        <time>2015-07-19T05:59:21Z</time>
      </trkpt>
      <trkpt lat="44.15656" lon="5.33428">
        <ele>1583</ele>
        <time>2015-07-19T05:59:26Z</time>
      </trkpt>
      <trkpt lat="44.15656" lon="5.33434">
        <ele>1583</ele>
        <time>2015-07-19T05:59:28Z</time>
      </trkpt>
      <trkpt lat="44.15653" lon="5.33453">
        <ele>1584</ele>
        <time>2015-07-19T05:59:33Z</time>
      </trkpt>
      <trkpt lat="44.15653" lon="5.33462">
        <ele>1584</ele>
        <time>2015-07-19T05:59:34Z</time>
      </trkpt>
      <trkpt lat="44.15653" lon="5.3347">
        <ele>1582</ele>
        <time>2015-07-19T05:59:36Z</time>
      </trkpt>
      <trkpt lat="44.15644" lon="5.33536">
        <ele>1578</ele>
        <time>2015-07-19T05:59:47Z</time>
      </trkpt>
      <trkpt lat="44.15646" lon="5.33572">
        <ele>1580</ele>
        <time>2015-07-19T05:59:53Z</time>
      </trkpt>
      <trkpt lat="44.15646" lon="5.33577">
        <ele>1580</ele>
        <time>2015-07-19T05:59:55Z</time>
      </trkpt>
      <trkpt lat="44.15643" lon="5.33588">
        <ele>1580</ele>
        <time>2015-07-19T05:59:58Z</time>
      </trkpt>
      <trkpt lat="44.15637" lon="5.3362">
        <ele>1577</ele>
        <time>2015-07-19T06:00:03Z</time>
      </trkpt>
      <trkpt lat="44.15634" lon="5.33633">
        <ele>1577</ele>
        <time>2015-07-19T06:00:05Z</time>
      </trkpt>
      <trkpt lat="44.15629" lon="5.33638">
        <ele>1576</ele>
        <time>2015-07-19T06:00:07Z</time>
      </trkpt>
      <trkpt lat="44.15623" lon="5.33653">
        <ele>1576</ele>
        <time>2015-07-19T06:00:09Z</time>
      </trkpt>
      <trkpt lat="44.15597" lon="5.33694">
        <ele>1567</ele>
        <time>2015-07-19T06:00:22Z</time>
      </trkpt>
      <trkpt lat="44.15472" lon="5.3379">
        <ele>1539</ele>
        <time>2015-07-19T06:00:52Z</time>
      </trkpt>
      <trkpt lat="44.15401" lon="5.33839">
        <ele>1532</ele>
        <time>2015-07-19T06:01:04Z</time>
      </trkpt>
      <trkpt lat="44.15389" lon="5.33868">
        <ele>1528</ele>
        <time>2015-07-19T06:01:08Z</time>
      </trkpt>
      <trkpt lat="44.15387" lon="5.33881">
        <ele>1527</ele>
        <time>2015-07-19T06:01:10Z</time>
      </trkpt>
      <trkpt lat="44.15391" lon="5.33888">
        <ele>1525</ele>
        <time>2015-07-19T06:01:10Z</time>
      </trkpt>
      <trkpt lat="44.15437" lon="5.33906">
        <ele>1512</ele>
        <time>2015-07-19T06:01:22Z</time>
      </trkpt>
      <trkpt lat="44.1544" lon="5.33904">
        <ele>1503</ele>
        <time>2015-07-19T06:01:45Z</time>
      </trkpt>
      <trkpt lat="44.15446" lon="5.33906">
        <ele>1503</ele>
        <time>2015-07-19T06:01:47Z</time>
      </trkpt>
      <trkpt lat="44.15447" lon="5.33915">
        <ele>1501</ele>
        <time>2015-07-19T06:02:03Z</time>
      </trkpt>
      <trkpt lat="44.15407" lon="5.33931">
        <ele>1499</ele>
        <time>2015-07-19T06:02:10Z</time>
      </trkpt>
      <trkpt lat="44.15394" lon="5.33937">
        <ele>1499</ele>
        <time>2015-07-19T06:02:12Z</time>
      </trkpt>
      <trkpt lat="44.15216" lon="5.33993">
        <ele>1491</ele>
        <time>2015-07-19T06:02:38Z</time>
      </trkpt>
      <trkpt lat="44.15199" lon="5.34006">
        <ele>1484</ele>
        <time>2015-07-19T06:02:56Z</time>
      </trkpt>
      <trkpt lat="44.15194" lon="5.3402">
        <ele>1480</ele>
        <time>2015-07-19T06:03:00Z</time>
      </trkpt>
      <trkpt lat="44.15188" lon="5.3402">
        <ele>1475</ele>
        <time>2015-07-19T06:03:09Z</time>
      </trkpt>
      <trkpt lat="44.15178" lon="5.34013">
        <ele>1475</ele>
        <time>2015-07-19T06:03:17Z</time>
      </trkpt>
      <trkpt lat="44.15161" lon="5.34018">
        <ele>1474</ele>
        <time>2015-07-19T06:03:28Z</time>
      </trkpt>
      <trkpt lat="44.15141" lon="5.34028">
        <ele>1468</ele>
        <time>2015-07-19T06:03:38Z</time>
      </trkpt>
      <trkpt lat="44.15137" lon="5.34039">
        <ele>1460</ele>
        <time>2015-07-19T06:04:12Z</time>
      </trkpt>
      <trkpt lat="44.15142" lon="5.34064">
        <ele>1460</ele>
        <time>2015-07-19T06:04:21Z</time>
      </trkpt>
      <trkpt lat="44.15149" lon="5.34068">
        <ele>1460</ele>
        <time>2015-07-19T06:04:23Z</time>
      </trkpt>
      <trkpt lat="44.1516" lon="5.34072">
        <ele>1459</ele>
        <time>2015-07-19T06:04:26Z</time>
      </trkpt>
      <trkpt lat="44.1517" lon="5.34078">
        <ele>1460</ele>
        <time>2015-07-19T06:04:30Z</time>
      </trkpt>
      <trkpt lat="44.1523" lon="5.34082">
        <ele>1465</ele>
        <time>2015-07-19T06:04:50Z</time>
      </trkpt>
      <trkpt lat="44.15252" lon="5.3408">
        <ele>1464</ele>
        <time>2015-07-19T06:04:59Z</time>
      </trkpt>
      <trkpt lat="44.15327" lon="5.34075">
        <ele>1473</ele>
        <time>2015-07-19T06:05:30Z</time>
      </trkpt>
      <trkpt lat="44.15343" lon="5.34069">
        <ele>1472</ele>
        <time>2015-07-19T06:05:38Z</time>
      </trkpt>
      <trkpt lat="44.15346" lon="5.34069">
        <ele>1472</ele>
        <time>2015-07-19T06:05:39Z</time>
      </trkpt>
      <trkpt lat="44.15378" lon="5.3406">
        <ele>1478</ele>
        <time>2015-07-19T06:05:55Z</time>
      </trkpt>
      <trkpt lat="44.15382" lon="5.34056">
        <ele>1478</ele>
        <time>2015-07-19T06:05:58Z</time>
      </trkpt>
      <trkpt lat="44.15394" lon="5.34052">
        <ele>1479</ele>
        <time>2015-07-19T06:06:03Z</time>
      </trkpt>
      <trkpt lat="44.15408" lon="5.34044">
        <ele>1481</ele>
        <time>2015-07-19T06:06:27Z</time>
      </trkpt>
      <trkpt lat="44.15403" lon="5.34033">
        <ele>1481</ele>
        <time>2015-07-19T06:06:38Z</time>
      </trkpt>
      <trkpt lat="44.15411" lon="5.34027">
        <ele>1476</ele>
        <time>2015-07-19T06:06:51Z</time>
      </trkpt>
      <trkpt lat="44.15425" lon="5.34025">
        <ele>1472</ele>
        <time>2015-07-19T06:06:58Z</time>
      </trkpt>
      <trkpt lat="44.15437" lon="5.34022">
        <ele>1471</ele>
        <time>2015-07-19T06:07:04Z</time>
      </trkpt>
      <trkpt lat="44.15479" lon="5.34007">
        <ele>1473</ele>
        <time>2015-07-19T06:07:24Z</time>
      </trkpt>
      <trkpt lat="44.15488" lon="5.34003">
        <ele>1473</ele>
        <time>2015-07-19T06:07:28Z</time>
      </trkpt>
      <trkpt lat="44.15493" lon="5.34002">
        <ele>1473</ele>
        <time>2015-07-19T06:07:30Z</time>
      </trkpt>
      <trkpt lat="44.15503" lon="5.34">
        <ele>1474</ele>
        <time>2015-07-19T06:07:34Z</time>
      </trkpt>
      <trkpt lat="44.15508" lon="5.34">
        <ele>1474</ele>
        <time>2015-07-19T06:07:36Z</time>
      </trkpt>
      <trkpt lat="44.15513" lon="5.33998">
        <ele>1474</ele>
        <time>2015-07-19T06:07:39Z</time>
      </trkpt>
      <trkpt lat="44.15533" lon="5.33996">
        <ele>1478</ele>
        <time>2015-07-19T06:07:51Z</time>
      </trkpt>
      <trkpt lat="44.15543" lon="5.33998">
        <ele>1477</ele>
        <time>2015-07-19T06:07:58Z</time>
      </trkpt>
      <trkpt lat="44.15555" lon="5.33996">
        <ele>1476</ele>
        <time>2015-07-19T06:08:02Z</time>
      </trkpt>
      <trkpt lat="44.15561" lon="5.33997">
        <ele>1477</ele>
        <time>2015-07-19T06:08:05Z</time>
      </trkpt>
      <trkpt lat="44.15567" lon="5.33996">
        <ele>1477</ele>
        <time>2015-07-19T06:08:08Z</time>
      </trkpt>
      <trkpt lat="44.15573" lon="5.34001">
        <ele>1477</ele>
        <time>2015-07-19T06:08:14Z</time>
      </trkpt>
      <trkpt lat="44.15578" lon="5.34003">
        <ele>1477</ele>
        <time>2015-07-19T06:08:20Z</time>
      </trkpt>
      <trkpt lat="44.15595" lon="5.34005">
        <ele>1475</ele>
        <time>2015-07-19T06:08:30Z</time>
      </trkpt>
      <trkpt lat="44.15603" lon="5.34012">
        <ele>1471</ele>
        <time>2015-07-19T06:08:40Z</time>
      </trkpt>
      <trkpt lat="44.15607" lon="5.34018">
        <ele>1471</ele>
        <time>2015-07-19T06:08:45Z</time>
      </trkpt>
      <trkpt lat="44.15612" lon="5.34023">
        <ele>1475</ele>
        <time>2015-07-19T06:09:00Z</time>
      </trkpt>
      <trkpt lat="44.15616" lon="5.3403">
        <ele>1474</ele>
        <time>2015-07-19T06:09:08Z</time>
      </trkpt>
      <trkpt lat="44.15623" lon="5.34039">
        <ele>1473</ele>
        <time>2015-07-19T06:09:11Z</time>
      </trkpt>
      <trkpt lat="44.15629" lon="5.34041">
        <ele>1474</ele>
        <time>2015-07-19T06:09:20Z</time>
      </trkpt>
      <trkpt lat="44.15635" lon="5.34051">
        <ele>1475</ele>
        <time>2015-07-19T06:09:28Z</time>
      </trkpt>
      <trkpt lat="44.15637" lon="5.34055">
        <ele>1473</ele>
        <time>2015-07-19T06:09:36Z</time>
      </trkpt>
      <trkpt lat="44.15638" lon="5.34062">
        <ele>1465</ele>
        <time>2015-07-19T06:09:51Z</time>
      </trkpt>
      <trkpt lat="44.15644" lon="5.34059">
        <ele>1466</ele>
        <time>2015-07-19T06:09:57Z</time>
      </trkpt>
      <trkpt lat="44.15647" lon="5.34072">
        <ele>1468</ele>
        <time>2015-07-19T06:10:03Z</time>
      </trkpt>
      <trkpt lat="44.15652" lon="5.34087">
        <ele>1469</ele>
        <time>2015-07-19T06:10:06Z</time>
      </trkpt>
      <trkpt lat="44.15658" lon="5.34096">
        <ele>1469</ele>
        <time>2015-07-19T06:10:08Z</time>
      </trkpt>
      <trkpt lat="44.15661" lon="5.34101">
        <ele>1469</ele>
        <time>2015-07-19T06:10:09Z</time>
      </trkpt>
      <trkpt lat="44.15685" lon="5.34137">
        <ele>1464</ele>
        <time>2015-07-19T06:10:19Z</time>
      </trkpt>
      <trkpt lat="44.15694" lon="5.34136">
        <ele>1462</ele>
        <time>2015-07-19T06:10:29Z</time>
      </trkpt>
      <trkpt lat="44.15699" lon="5.34135">
        <ele>1461</ele>
        <time>2015-07-19T06:10:37Z</time>
      </trkpt>
      <trkpt lat="44.15707" lon="5.34135">
        <ele>1461</ele>
        <time>2015-07-19T06:10:48Z</time>
      </trkpt>
      <trkpt lat="44.15712" lon="5.34137">
        <ele>1461</ele>
        <time>2015-07-19T06:10:55Z</time>
      </trkpt>
      <trkpt lat="44.1572" lon="5.34147">
        <ele>1462</ele>
        <time>2015-07-19T06:11:02Z</time>
      </trkpt>
      <trkpt lat="44.1575" lon="5.34166">
        <ele>1463</ele>
        <time>2015-07-19T06:11:12Z</time>
      </trkpt>
      <trkpt lat="44.15785" lon="5.34198">
        <ele>1459</ele>
        <time>2015-07-19T06:11:24Z</time>
      </trkpt>
      <trkpt lat="44.15791" lon="5.342">
        <ele>1459</ele>
        <time>2015-07-19T06:11:25Z</time>
      </trkpt>
      <trkpt lat="44.15808" lon="5.34204">
        <ele>1458</ele>
        <time>2015-07-19T06:11:29Z</time>
      </trkpt>
      <trkpt lat="44.15832" lon="5.34209">
        <ele>1455</ele>
        <time>2015-07-19T06:11:35Z</time>
      </trkpt>
      <trkpt lat="44.15862" lon="5.34216">
        <ele>1454</ele>
        <time>2015-07-19T06:11:44Z</time>
      </trkpt>
      <trkpt lat="44.15881" lon="5.34216">
        <ele>1458</ele>
        <time>2015-07-19T06:11:52Z</time>
      </trkpt>
      <trkpt lat="44.15891" lon="5.34224">
        <ele>1458</ele>
        <time>2015-07-19T06:11:57Z</time>
      </trkpt>
      <trkpt lat="44.1591" lon="5.34231">
        <ele>1458</ele>
        <time>2015-07-19T06:12:03Z</time>
      </trkpt>
      <trkpt lat="44.15925" lon="5.34236">
        <ele>1457</ele>
        <time>2015-07-19T06:12:10Z</time>
      </trkpt>
      <trkpt lat="44.1593" lon="5.34234">
        <ele>1460</ele>
        <time>2015-07-19T06:12:36Z</time>
      </trkpt>
      <trkpt lat="44.15942" lon="5.34233">
        <ele>1461</ele>
        <time>2015-07-19T06:12:41Z</time>
      </trkpt>
      <trkpt lat="44.15942" lon="5.34245">
        <ele>1460</ele>
        <time>2015-07-19T06:12:56Z</time>
      </trkpt>
      <trkpt lat="44.15966" lon="5.34325">
        <ele>1448</ele>
        <time>2015-07-19T06:13:10Z</time>
      </trkpt>
      <trkpt lat="44.1599" lon="5.34362">
        <ele>1439</ele>
        <time>2015-07-19T06:13:18Z</time>
      </trkpt>
      <trkpt lat="44.15992" lon="5.34368">
        <ele>1437</ele>
        <time>2015-07-19T06:13:20Z</time>
      </trkpt>
      <trkpt lat="44.16" lon="5.34374">
        <ele>1435</ele>
        <time>2015-07-19T06:13:22Z</time>
      </trkpt>
      <trkpt lat="44.16098" lon="5.34463">
        <ele>1410</ele>
        <time>2015-07-19T06:13:48Z</time>
      </trkpt>
      <trkpt lat="44.16099" lon="5.34462">
        <ele>1403</ele>
        <time>2015-07-19T06:14:36Z</time>
      </trkpt>
      <trkpt lat="44.161" lon="5.34472">
        <ele>1401</ele>
        <time>2015-07-19T06:14:58Z</time>
      </trkpt>
      <trkpt lat="44.16098" lon="5.34489">
        <ele>1402</ele>
        <time>2015-07-19T06:15:02Z</time>
      </trkpt>
      <trkpt lat="44.16089" lon="5.34501">
        <ele>1402</ele>
        <time>2015-07-19T06:15:07Z</time>
      </trkpt>
      <trkpt lat="44.16088" lon="5.34508">
        <ele>1402</ele>
        <time>2015-07-19T06:15:08Z</time>
      </trkpt>
      <trkpt lat="44.16092" lon="5.34534">
        <ele>1399</ele>
        <time>2015-07-19T06:15:13Z</time>
      </trkpt>
      <trkpt lat="44.16089" lon="5.3454">
        <ele>1398</ele>
        <time>2015-07-19T06:15:15Z</time>
      </trkpt>
      <trkpt lat="44.16089" lon="5.34544">
        <ele>1397</ele>
        <time>2015-07-19T06:15:16Z</time>
      </trkpt>
      <trkpt lat="44.16091" lon="5.34555">
        <ele>1396</ele>
        <time>2015-07-19T06:15:18Z</time>
      </trkpt>
      <trkpt lat="44.16083" lon="5.34594">
        <ele>1393</ele>
        <time>2015-07-19T06:15:26Z</time>
      </trkpt>
      <trkpt lat="44.16069" lon="5.34665">
        <ele>1379</ele>
        <time>2015-07-19T06:15:39Z</time>
      </trkpt>
      <trkpt lat="44.16046" lon="5.34707">
        <ele>1365</ele>
        <time>2015-07-19T06:15:54Z</time>
      </trkpt>
      <trkpt lat="44.16053" lon="5.3471">
        <ele>1359</ele>
        <time>2015-07-19T06:16:01Z</time>
      </trkpt>
      <trkpt lat="44.16056" lon="5.34714">
        <ele>1353</ele>
        <time>2015-07-19T06:16:10Z</time>
      </trkpt>
      <trkpt lat="44.16058" lon="5.34712">
        <ele>1351</ele>
        <time>2015-07-19T06:16:38Z</time>
      </trkpt>
      <trkpt lat="44.16057" lon="5.34724">
        <ele>1351</ele>
        <time>2015-07-19T06:16:42Z</time>
      </trkpt>
      <trkpt lat="44.16054" lon="5.34738">
        <ele>1349</ele>
        <time>2015-07-19T06:16:46Z</time>
      </trkpt>
      <trkpt lat="44.16025" lon="5.34819">
        <ele>1341</ele>
        <time>2015-07-19T06:17:04Z</time>
      </trkpt>
      <trkpt lat="44.1604" lon="5.34855">
        <ele>1335</ele>
        <time>2015-07-19T06:17:11Z</time>
      </trkpt>
      <trkpt lat="44.1606" lon="5.34872">
        <ele>1331</ele>
        <time>2015-07-19T06:17:19Z</time>
      </trkpt>
      <trkpt lat="44.16062" lon="5.34879">
        <ele>1331</ele>
        <time>2015-07-19T06:17:22Z</time>
      </trkpt>
      <trkpt lat="44.1606" lon="5.34884">
        <ele>1331</ele>
        <time>2015-07-19T06:17:25Z</time>
      </trkpt>
      <trkpt lat="44.16059" lon="5.34888">
        <ele>1331</ele>
        <time>2015-07-19T06:17:26Z</time>
      </trkpt>
      <trkpt lat="44.1606" lon="5.34896">
        <ele>1332</ele>
        <time>2015-07-19T06:17:28Z</time>
      </trkpt>
      <trkpt lat="44.16058" lon="5.34903">
        <ele>1331</ele>
        <time>2015-07-19T06:17:30Z</time>
      </trkpt>
      <trkpt lat="44.16058" lon="5.3491">
        <ele>1330</ele>
        <time>2015-07-19T06:17:34Z</time>
      </trkpt>
      <trkpt lat="44.16059" lon="5.3493">
        <ele>1329</ele>
        <time>2015-07-19T06:17:40Z</time>
      </trkpt>
      <trkpt lat="44.16061" lon="5.34945">
        <ele>1326</ele>
        <time>2015-07-19T06:17:44Z</time>
      </trkpt>
      <trkpt lat="44.1606" lon="5.34961">
        <ele>1324</ele>
        <time>2015-07-19T06:17:47Z</time>
      </trkpt>
      <trkpt lat="44.1606" lon="5.34969">
        <ele>1321</ele>
        <time>2015-07-19T06:17:49Z</time>
      </trkpt>
      <trkpt lat="44.16064" lon="5.34985">
        <ele>1319</ele>
        <time>2015-07-19T06:17:51Z</time>
      </trkpt>
      <trkpt lat="44.16071" lon="5.35001">
        <ele>1317</ele>
        <time>2015-07-19T06:17:53Z</time>
      </trkpt>
      <trkpt lat="44.16083" lon="5.35009">
        <ele>1321</ele>
        <time>2015-07-19T06:18:02Z</time>
      </trkpt>
      <trkpt lat="44.16099" lon="5.35019">
        <ele>1318</ele>
        <time>2015-07-19T06:18:34Z</time>
      </trkpt>
      <trkpt lat="44.16094" lon="5.3503">
        <ele>1317</ele>
        <time>2015-07-19T06:18:44Z</time>
      </trkpt>
      <trkpt lat="44.16097" lon="5.35044">
        <ele>1316</ele>
        <time>2015-07-19T06:18:48Z</time>
      </trkpt>
      <trkpt lat="44.161" lon="5.35059">
        <ele>1315</ele>
        <time>2015-07-19T06:18:52Z</time>
      </trkpt>
      <trkpt lat="44.16108" lon="5.35069">
        <ele>1314</ele>
        <time>2015-07-19T06:18:55Z</time>
      </trkpt>
      <trkpt lat="44.16116" lon="5.3508">
        <ele>1315</ele>
        <time>2015-07-19T06:18:58Z</time>
      </trkpt>
      <trkpt lat="44.16135" lon="5.35111">
        <ele>1309</ele>
        <time>2015-07-19T06:19:08Z</time>
      </trkpt>
      <trkpt lat="44.16136" lon="5.35126">
        <ele>1306</ele>
        <time>2015-07-19T06:19:16Z</time>
      </trkpt>
      <trkpt lat="44.16144" lon="5.35136">
        <ele>1295</ele>
        <time>2015-07-19T06:19:36Z</time>
      </trkpt>
      <trkpt lat="44.16153" lon="5.35127">
        <ele>1293</ele>
        <time>2015-07-19T06:19:39Z</time>
      </trkpt>
      <trkpt lat="44.16159" lon="5.35099">
        <ele>1289</ele>
        <time>2015-07-19T06:19:45Z</time>
      </trkpt>
      <trkpt lat="44.16158" lon="5.35086">
        <ele>1290</ele>
        <time>2015-07-19T06:19:48Z</time>
      </trkpt>
      <trkpt lat="44.16148" lon="5.35023">
        <ele>1299</ele>
        <time>2015-07-19T06:20:01Z</time>
      </trkpt>
      <trkpt lat="44.16148" lon="5.34956">
        <ele>1300</ele>
        <time>2015-07-19T06:20:16Z</time>
      </trkpt>
      <trkpt lat="44.16151" lon="5.34946">
        <ele>1299</ele>
        <time>2015-07-19T06:20:18Z</time>
      </trkpt>
      <trkpt lat="44.16159" lon="5.34879">
        <ele>1287</ele>
        <time>2015-07-19T06:20:34Z</time>
      </trkpt>
      <trkpt lat="44.16166" lon="5.34868">
        <ele>1281</ele>
        <time>2015-07-19T06:20:43Z</time>
      </trkpt>
      <trkpt lat="44.16176" lon="5.34858">
        <ele>1279</ele>
        <time>2015-07-19T06:20:47Z</time>
      </trkpt>
      <trkpt lat="44.16189" lon="5.3484">
        <ele>1280</ele>
        <time>2015-07-19T06:20:50Z</time>
      </trkpt>
      <trkpt lat="44.16248" lon="5.34777">
        <ele>1295</ele>
        <time>2015-07-19T06:21:06Z</time>
      </trkpt>
      <trkpt lat="44.16244" lon="5.34754">
        <ele>1288</ele>
        <time>2015-07-19T06:21:23Z</time>
      </trkpt>
      <trkpt lat="44.16243" lon="5.34741">
        <ele>1282</ele>
        <time>2015-07-19T06:21:40Z</time>
      </trkpt>
      <trkpt lat="44.16232" lon="5.34735">
        <ele>1277</ele>
        <time>2015-07-19T06:22:04Z</time>
      </trkpt>
      <trkpt lat="44.16223" lon="5.34745">
        <ele>1274</ele>
        <time>2015-07-19T06:22:08Z</time>
      </trkpt>
      <trkpt lat="44.1618" lon="5.34802">
        <ele>1271</ele>
        <time>2015-07-19T06:22:19Z</time>
      </trkpt>
      <trkpt lat="44.16173" lon="5.34807">
        <ele>1270</ele>
        <time>2015-07-19T06:22:21Z</time>
      </trkpt>
      <trkpt lat="44.16166" lon="5.34826">
        <ele>1267</ele>
        <time>2015-07-19T06:22:25Z</time>
      </trkpt>
      <trkpt lat="44.16169" lon="5.34838">
        <ele>1266</ele>
        <time>2015-07-19T06:22:26Z</time>
      </trkpt>
      <trkpt lat="44.1617" lon="5.34858">
        <ele>1265</ele>
        <time>2015-07-19T06:22:28Z</time>
      </trkpt>
      <trkpt lat="44.16165" lon="5.34864">
        <ele>1265</ele>
        <time>2015-07-19T06:22:29Z</time>
      </trkpt>
      <trkpt lat="44.16163" lon="5.34871">
        <ele>1264</ele>
        <time>2015-07-19T06:22:30Z</time>
      </trkpt>
      <trkpt lat="44.16157" lon="5.34884">
        <ele>1263</ele>
        <time>2015-07-19T06:22:32Z</time>
      </trkpt>
      <trkpt lat="44.16161" lon="5.34898">
        <ele>1263</ele>
        <time>2015-07-19T06:22:33Z</time>
      </trkpt>
      <trkpt lat="44.16168" lon="5.34935">
        <ele>1261</ele>
        <time>2015-07-19T06:22:36Z</time>
      </trkpt>
      <trkpt lat="44.16164" lon="5.34941">
        <ele>1260</ele>
        <time>2015-07-19T06:22:37Z</time>
      </trkpt>
      <trkpt lat="44.16168" lon="5.34949">
        <ele>1259</ele>
        <time>2015-07-19T06:22:38Z</time>
      </trkpt>
      <trkpt lat="44.16164" lon="5.34957">
        <ele>1258</ele>
        <time>2015-07-19T06:22:40Z</time>
      </trkpt>
      <trkpt lat="44.16162" lon="5.34967">
        <ele>1258</ele>
        <time>2015-07-19T06:22:42Z</time>
      </trkpt>
      <trkpt lat="44.16164" lon="5.34976">
        <ele>1257</ele>
        <time>2015-07-19T06:22:43Z</time>
      </trkpt>
      <trkpt lat="44.16168" lon="5.34988">
        <ele>1257</ele>
        <time>2015-07-19T06:22:44Z</time>
      </trkpt>
      <trkpt lat="44.16194" lon="5.35038">
        <ele>1250</ele>
        <time>2015-07-19T06:22:51Z</time>
      </trkpt>
      <trkpt lat="44.16198" lon="5.35046">
        <ele>1246</ele>
        <time>2015-07-19T06:22:53Z</time>
      </trkpt>
      <trkpt lat="44.16201" lon="5.35053">
        <ele>1243</ele>
        <time>2015-07-19T06:22:55Z</time>
      </trkpt>
      <trkpt lat="44.16198" lon="5.35059">
        <ele>1240</ele>
        <time>2015-07-19T06:22:57Z</time>
      </trkpt>
      <trkpt lat="44.16198" lon="5.35075">
        <ele>1237</ele>
        <time>2015-07-19T06:22:59Z</time>
      </trkpt>
      <trkpt lat="44.16225" lon="5.3514">
        <ele>1228</ele>
        <time>2015-07-19T06:23:06Z</time>
      </trkpt>
      <trkpt lat="44.16227" lon="5.35171">
        <ele>1221</ele>
        <time>2015-07-19T06:23:12Z</time>
      </trkpt>
      <trkpt lat="44.16225" lon="5.35188">
        <ele>1218</ele>
        <time>2015-07-19T06:23:16Z</time>
      </trkpt>
      <trkpt lat="44.16226" lon="5.35199">
        <ele>1217</ele>
        <time>2015-07-19T06:23:18Z</time>
      </trkpt>
      <trkpt lat="44.16229" lon="5.35209">
        <ele>1217</ele>
        <time>2015-07-19T06:23:19Z</time>
      </trkpt>
      <trkpt lat="44.16234" lon="5.35216">
        <ele>1217</ele>
        <time>2015-07-19T06:23:20Z</time>
      </trkpt>
      <trkpt lat="44.1624" lon="5.35224">
        <ele>1217</ele>
        <time>2015-07-19T06:23:21Z</time>
      </trkpt>
      <trkpt lat="44.1629" lon="5.35286">
        <ele>1214</ele>
        <time>2015-07-19T06:23:32Z</time>
      </trkpt>
      <trkpt lat="44.16297" lon="5.353">
        <ele>1211</ele>
        <time>2015-07-19T06:23:35Z</time>
      </trkpt>
      <trkpt lat="44.16323" lon="5.35379">
        <ele>1200</ele>
        <time>2015-07-19T06:23:46Z</time>
      </trkpt>
      <trkpt lat="44.16334" lon="5.35415">
        <ele>1195</ele>
        <time>2015-07-19T06:23:51Z</time>
      </trkpt>
      <trkpt lat="44.16336" lon="5.35432">
        <ele>1191</ele>
        <time>2015-07-19T06:23:54Z</time>
      </trkpt>
      <trkpt lat="44.16355" lon="5.35494">
        <ele>1187</ele>
        <time>2015-07-19T06:24:01Z</time>
      </trkpt>
      <trkpt lat="44.16359" lon="5.35499">
        <ele>1187</ele>
        <time>2015-07-19T06:24:02Z</time>
      </trkpt>
      <trkpt lat="44.16364" lon="5.35509">
        <ele>1187</ele>
        <time>2015-07-19T06:24:03Z</time>
      </trkpt>
      <trkpt lat="44.16402" lon="5.35582">
        <ele>1185</ele>
        <time>2015-07-19T06:24:13Z</time>
      </trkpt>
      <trkpt lat="44.16405" lon="5.3559">
        <ele>1186</ele>
        <time>2015-07-19T06:24:15Z</time>
      </trkpt>
      <trkpt lat="44.16408" lon="5.35603">
        <ele>1186</ele>
        <time>2015-07-19T06:24:17Z</time>
      </trkpt>
      <trkpt lat="44.16413" lon="5.35614">
        <ele>1186</ele>
        <time>2015-07-19T06:24:18Z</time>
      </trkpt>
      <trkpt lat="44.16417" lon="5.35624">
        <ele>1186</ele>
        <time>2015-07-19T06:24:19Z</time>
      </trkpt>
      <trkpt lat="44.16418" lon="5.35635">
        <ele>1186</ele>
        <time>2015-07-19T06:24:21Z</time>
      </trkpt>
      <trkpt lat="44.16422" lon="5.35645">
        <ele>1186</ele>
        <time>2015-07-19T06:24:23Z</time>
      </trkpt>
      <trkpt lat="44.16448" lon="5.35722">
        <ele>1181</ele>
        <time>2015-07-19T06:24:31Z</time>
      </trkpt>
      <trkpt lat="44.16449" lon="5.35733">
        <ele>1180</ele>
        <time>2015-07-19T06:24:33Z</time>
      </trkpt>
      <trkpt lat="44.16451" lon="5.35742">
        <ele>1177</ele>
        <time>2015-07-19T06:24:35Z</time>
      </trkpt>
      <trkpt lat="44.16455" lon="5.35744">
        <ele>1174</ele>
        <time>2015-07-19T06:24:38Z</time>
      </trkpt>
      <trkpt lat="44.16454" lon="5.35756">
        <ele>1174</ele>
        <time>2015-07-19T06:24:49Z</time>
      </trkpt>
      <trkpt lat="44.16446" lon="5.35762">
        <ele>1175</ele>
        <time>2015-07-19T06:24:53Z</time>
      </trkpt>
      <trkpt lat="44.16367" lon="5.35855">
        <ele>1194</ele>
        <time>2015-07-19T06:25:22Z</time>
      </trkpt>
      <trkpt lat="44.16358" lon="5.35858">
        <ele>1194</ele>
        <time>2015-07-19T06:25:26Z</time>
      </trkpt>
      <trkpt lat="44.16278" lon="5.35896">
        <ele>1211</ele>
        <time>2015-07-19T06:25:47Z</time>
      </trkpt>
      <trkpt lat="44.16269" lon="5.35903">
        <ele>1208</ele>
        <time>2015-07-19T06:25:56Z</time>
      </trkpt>
      <trkpt lat="44.16259" lon="5.3591">
        <ele>1208</ele>
        <time>2015-07-19T06:26:00Z</time>
      </trkpt>
      <trkpt lat="44.16236" lon="5.35906">
        <ele>1207</ele>
        <time>2015-07-19T06:26:06Z</time>
      </trkpt>
      <trkpt lat="44.16196" lon="5.35896">
        <ele>1210</ele>
        <time>2015-07-19T06:26:19Z</time>
      </trkpt>
      <trkpt lat="44.16187" lon="5.35902">
        <ele>1212</ele>
        <time>2015-07-19T06:26:23Z</time>
      </trkpt>
      <trkpt lat="44.1616" lon="5.3591">
        <ele>1211</ele>
        <time>2015-07-19T06:26:30Z</time>
      </trkpt>
      <trkpt lat="44.16141" lon="5.35919">
        <ele>1209</ele>
        <time>2015-07-19T06:26:36Z</time>
      </trkpt>
      <trkpt lat="44.1613" lon="5.35922">
        <ele>1209</ele>
        <time>2015-07-19T06:26:40Z</time>
      </trkpt>
      <trkpt lat="44.16122" lon="5.35928">
        <ele>1206</ele>
        <time>2015-07-19T06:26:44Z</time>
      </trkpt>
      <trkpt lat="44.16112" lon="5.35933">
        <ele>1205</ele>
        <time>2015-07-19T06:26:52Z</time>
      </trkpt>
      <trkpt lat="44.16105" lon="5.3594">
        <ele>1206</ele>
        <time>2015-07-19T06:26:57Z</time>
      </trkpt>
      <trkpt lat="44.16095" lon="5.35947">
        <ele>1206</ele>
        <time>2015-07-19T06:27:03Z</time>
      </trkpt>
      <trkpt lat="44.16029" lon="5.36017">
        <ele>1180</ele>
        <time>2015-07-19T06:27:34Z</time>
      </trkpt>
      <trkpt lat="44.16024" lon="5.36018">
        <ele>1179</ele>
        <time>2015-07-19T06:27:36Z</time>
      </trkpt>
      <trkpt lat="44.16013" lon="5.36048">
        <ele>1175</ele>
        <time>2015-07-19T06:27:46Z</time>
      </trkpt>
      <trkpt lat="44.1601" lon="5.36055">
        <ele>1175</ele>
        <time>2015-07-19T06:27:48Z</time>
      </trkpt>
      <trkpt lat="44.15991" lon="5.36095">
        <ele>1181</ele>
        <time>2015-07-19T06:28:05Z</time>
      </trkpt>
      <trkpt lat="44.15985" lon="5.36103">
        <ele>1180</ele>
        <time>2015-07-19T06:28:07Z</time>
      </trkpt>
      <trkpt lat="44.15978" lon="5.36122">
        <ele>1179</ele>
        <time>2015-07-19T06:28:11Z</time>
      </trkpt>
      <trkpt lat="44.15975" lon="5.36145">
        <ele>1175</ele>
        <time>2015-07-19T06:28:18Z</time>
      </trkpt>
      <trkpt lat="44.15974" lon="5.36151">
        <ele>1175</ele>
        <time>2015-07-19T06:28:20Z</time>
      </trkpt>
      <trkpt lat="44.15938" lon="5.36228">
        <ele>1183</ele>
        <time>2015-07-19T06:28:51Z</time>
      </trkpt>
      <trkpt lat="44.15916" lon="5.36249">
        <ele>1185</ele>
        <time>2015-07-19T06:29:01Z</time>
      </trkpt>
      <trkpt lat="44.15896" lon="5.36268">
        <ele>1187</ele>
        <time>2015-07-19T06:29:08Z</time>
      </trkpt>
      <trkpt lat="44.1589" lon="5.36281">
        <ele>1187</ele>
        <time>2015-07-19T06:29:12Z</time>
      </trkpt>
      <trkpt lat="44.15872" lon="5.36341">
        <ele>1180</ele>
        <time>2015-07-19T06:29:28Z</time>
      </trkpt>
      <trkpt lat="44.15874" lon="5.36352">
        <ele>1179</ele>
        <time>2015-07-19T06:29:30Z</time>
      </trkpt>
      <trkpt lat="44.15875" lon="5.36363">
        <ele>1178</ele>
        <time>2015-07-19T06:29:32Z</time>
      </trkpt>
      <trkpt lat="44.15875" lon="5.364">
        <ele>1173</ele>
        <time>2015-07-19T06:29:41Z</time>
      </trkpt>
      <trkpt lat="44.15874" lon="5.36407">
        <ele>1172</ele>
        <time>2015-07-19T06:29:43Z</time>
      </trkpt>
      <trkpt lat="44.15872" lon="5.36413">
        <ele>1172</ele>
        <time>2015-07-19T06:29:45Z</time>
      </trkpt>
      <trkpt lat="44.1587" lon="5.36438">
        <ele>1174</ele>
        <time>2015-07-19T06:29:51Z</time>
      </trkpt>
      <trkpt lat="44.1587" lon="5.36449">
        <ele>1175</ele>
        <time>2015-07-19T06:29:53Z</time>
      </trkpt>
      <trkpt lat="44.15867" lon="5.36456">
        <ele>1176</ele>
        <time>2015-07-19T06:29:55Z</time>
      </trkpt>
      <trkpt lat="44.15817" lon="5.36532">
        <ele>1191</ele>
        <time>2015-07-19T06:30:27Z</time>
      </trkpt>
      <trkpt lat="44.15803" lon="5.36547">
        <ele>1194</ele>
        <time>2015-07-19T06:30:34Z</time>
      </trkpt>
      <trkpt lat="44.158" lon="5.36557">
        <ele>1195</ele>
        <time>2015-07-19T06:30:37Z</time>
      </trkpt>
      <trkpt lat="44.15792" lon="5.36566">
        <ele>1196</ele>
        <time>2015-07-19T06:30:41Z</time>
      </trkpt>
      <trkpt lat="44.15795" lon="5.36581">
        <ele>1202</ele>
        <time>2015-07-19T06:30:55Z</time>
      </trkpt>
      <trkpt lat="44.15799" lon="5.36588">
        <ele>1198</ele>
        <time>2015-07-19T06:31:11Z</time>
      </trkpt>
      <trkpt lat="44.15804" lon="5.36591">
        <ele>1195</ele>
        <time>2015-07-19T06:31:33Z</time>
      </trkpt>
      <trkpt lat="44.15812" lon="5.36597">
        <ele>1197</ele>
        <time>2015-07-19T06:31:43Z</time>
      </trkpt>
      <trkpt lat="44.1581" lon="5.3661">
        <ele>1198</ele>
        <time>2015-07-19T06:31:48Z</time>
      </trkpt>
      <trkpt lat="44.15814" lon="5.36625">
        <ele>1198</ele>
        <time>2015-07-19T06:31:52Z</time>
      </trkpt>
      <trkpt lat="44.15812" lon="5.36638">
        <ele>1197</ele>
        <time>2015-07-19T06:32:08Z</time>
      </trkpt>
      <trkpt lat="44.15805" lon="5.36652">
        <ele>1195</ele>
        <time>2015-07-19T06:32:15Z</time>
      </trkpt>
      <trkpt lat="44.15803" lon="5.36668">
        <ele>1191</ele>
        <time>2015-07-19T06:32:18Z</time>
      </trkpt>
      <trkpt lat="44.15806" lon="5.36678">
        <ele>1180</ele>
        <time>2015-07-19T06:32:34Z</time>
      </trkpt>
      <trkpt lat="44.15814" lon="5.36687">
        <ele>1179</ele>
        <time>2015-07-19T06:32:48Z</time>
      </trkpt>
      <trkpt lat="44.15819" lon="5.36697">
        <ele>1181</ele>
        <time>2015-07-19T06:32:56Z</time>
      </trkpt>
      <trkpt lat="44.15823" lon="5.3671">
        <ele>1181</ele>
        <time>2015-07-19T06:33:01Z</time>
      </trkpt>
      <trkpt lat="44.15818" lon="5.36725">
        <ele>1179</ele>
        <time>2015-07-19T06:33:05Z</time>
      </trkpt>
      <trkpt lat="44.15805" lon="5.36739">
        <ele>1178</ele>
        <time>2015-07-19T06:33:10Z</time>
      </trkpt>
      <trkpt lat="44.15805" lon="5.36765">
        <ele>1179</ele>
        <time>2015-07-19T06:33:16Z</time>
      </trkpt>
      <trkpt lat="44.15815" lon="5.36779">
        <ele>1178</ele>
        <time>2015-07-19T06:33:25Z</time>
      </trkpt>
      <trkpt lat="44.15824" lon="5.36792">
        <ele>1165</ele>
        <time>2015-07-19T06:33:41Z</time>
      </trkpt>
      <trkpt lat="44.15831" lon="5.36804">
        <ele>1166</ele>
        <time>2015-07-19T06:33:44Z</time>
      </trkpt>
      <trkpt lat="44.15821" lon="5.36807">
        <ele>1169</ele>
        <time>2015-07-19T06:33:51Z</time>
      </trkpt>
      <trkpt lat="44.15804" lon="5.3682">
        <ele>1174</ele>
        <time>2015-07-19T06:33:59Z</time>
      </trkpt>
      <trkpt lat="44.15798" lon="5.36831">
        <ele>1175</ele>
        <time>2015-07-19T06:34:06Z</time>
      </trkpt>
      <trkpt lat="44.1579" lon="5.36845">
        <ele>1175</ele>
        <time>2015-07-19T06:34:24Z</time>
      </trkpt>
      <trkpt lat="44.15784" lon="5.36857">
        <ele>1176</ele>
        <time>2015-07-19T06:34:29Z</time>
      </trkpt>
      <trkpt lat="44.15777" lon="5.36866">
        <ele>1176</ele>
        <time>2015-07-19T06:34:32Z</time>
      </trkpt>
      <trkpt lat="44.15773" lon="5.36879">
        <ele>1175</ele>
        <time>2015-07-19T06:34:36Z</time>
      </trkpt>
      <trkpt lat="44.15762" lon="5.369">
        <ele>1174</ele>
        <time>2015-07-19T06:34:42Z</time>
      </trkpt>
      <trkpt lat="44.15755" lon="5.36916">
        <ele>1174</ele>
        <time>2015-07-19T06:34:45Z</time>
      </trkpt>
      <trkpt lat="44.15753" lon="5.36923">
        <ele>1173</ele>
        <time>2015-07-19T06:34:46Z</time>
      </trkpt>
      <trkpt lat="44.15756" lon="5.3693">
        <ele>1173</ele>
        <time>2015-07-19T06:34:47Z</time>
      </trkpt>
      <trkpt lat="44.1576" lon="5.36944">
        <ele>1172</ele>
        <time>2015-07-19T06:34:49Z</time>
      </trkpt>
      <trkpt lat="44.15766" lon="5.36957">
        <ele>1169</ele>
        <time>2015-07-19T06:34:53Z</time>
      </trkpt>
      <trkpt lat="44.15774" lon="5.3696">
        <ele>1168</ele>
        <time>2015-07-19T06:34:56Z</time>
      </trkpt>
      <trkpt lat="44.15784" lon="5.36959">
        <ele>1168</ele>
        <time>2015-07-19T06:34:59Z</time>
      </trkpt>
      <trkpt lat="44.15793" lon="5.3695">
        <ele>1168</ele>
        <time>2015-07-19T06:35:02Z</time>
      </trkpt>
      <trkpt lat="44.15802" lon="5.36941">
        <ele>1171</ele>
        <time>2015-07-19T06:35:07Z</time>
      </trkpt>
      <trkpt lat="44.15814" lon="5.36933">
        <ele>1172</ele>
        <time>2015-07-19T06:35:11Z</time>
      </trkpt>
      <trkpt lat="44.15824" lon="5.36923">
        <ele>1171</ele>
        <time>2015-07-19T06:35:14Z</time>
      </trkpt>
      <trkpt lat="44.1584" lon="5.36907">
        <ele>1175</ele>
        <time>2015-07-19T06:35:22Z</time>
      </trkpt>
      <trkpt lat="44.15854" lon="5.3688">
        <ele>1168</ele>
        <time>2015-07-19T06:35:54Z</time>
      </trkpt>
      <trkpt lat="44.15864" lon="5.36873">
        <ele>1164</ele>
        <time>2015-07-19T06:35:58Z</time>
      </trkpt>
      <trkpt lat="44.15891" lon="5.36849">
        <ele>1163</ele>
        <time>2015-07-19T06:36:05Z</time>
      </trkpt>
      <trkpt lat="44.15895" lon="5.36845">
        <ele>1164</ele>
        <time>2015-07-19T06:36:06Z</time>
      </trkpt>
      <trkpt lat="44.15918" lon="5.36822">
        <ele>1163</ele>
        <time>2015-07-19T06:36:13Z</time>
      </trkpt>
      <trkpt lat="44.15922" lon="5.36815">
        <ele>1163</ele>
        <time>2015-07-19T06:36:14Z</time>
      </trkpt>
      <trkpt lat="44.15926" lon="5.36802">
        <ele>1162</ele>
        <time>2015-07-19T06:36:15Z</time>
      </trkpt>
      <trkpt lat="44.15928" lon="5.36788">
        <ele>1162</ele>
        <time>2015-07-19T06:36:16Z</time>
      </trkpt>
      <trkpt lat="44.1593" lon="5.36732">
        <ele>1157</ele>
        <time>2015-07-19T06:36:22Z</time>
      </trkpt>
      <trkpt lat="44.15932" lon="5.36711">
        <ele>1153</ele>
        <time>2015-07-19T06:36:27Z</time>
      </trkpt>
      <trkpt lat="44.15931" lon="5.3669">
        <ele>1153</ele>
        <time>2015-07-19T06:36:39Z</time>
      </trkpt>
      <trkpt lat="44.15936" lon="5.36677">
        <ele>1153</ele>
        <time>2015-07-19T06:36:42Z</time>
      </trkpt>
      <trkpt lat="44.15934" lon="5.36642">
        <ele>1153</ele>
        <time>2015-07-19T06:36:48Z</time>
      </trkpt>
      <trkpt lat="44.15931" lon="5.36629">
        <ele>1163</ele>
        <time>2015-07-19T06:37:04Z</time>
      </trkpt>
      <trkpt lat="44.15917" lon="5.36632">
        <ele>1162</ele>
        <time>2015-07-19T06:37:09Z</time>
      </trkpt>
      <trkpt lat="44.15914" lon="5.36648">
        <ele>1159</ele>
        <time>2015-07-19T06:37:13Z</time>
      </trkpt>
      <trkpt lat="44.15914" lon="5.36662">
        <ele>1153</ele>
        <time>2015-07-19T06:37:16Z</time>
      </trkpt>
      <trkpt lat="44.15943" lon="5.36728">
        <ele>1124</ele>
        <time>2015-07-19T06:37:40Z</time>
      </trkpt>
      <trkpt lat="44.15954" lon="5.36735">
        <ele>1116</ele>
        <time>2015-07-19T06:37:51Z</time>
      </trkpt>
      <trkpt lat="44.15977" lon="5.36767">
        <ele>1117</ele>
        <time>2015-07-19T06:37:58Z</time>
      </trkpt>
      <trkpt lat="44.15994" lon="5.36787">
        <ele>1115</ele>
        <time>2015-07-19T06:38:03Z</time>
      </trkpt>
      <trkpt lat="44.15999" lon="5.36791">
        <ele>1114</ele>
        <time>2015-07-19T06:38:07Z</time>
      </trkpt>
      <trkpt lat="44.15977" lon="5.36822">
        <ele>1109</ele>
        <time>2015-07-19T06:38:23Z</time>
      </trkpt>
      <trkpt lat="44.1597" lon="5.36824">
        <ele>1108</ele>
        <time>2015-07-19T06:38:25Z</time>
      </trkpt>
      <trkpt lat="44.15963" lon="5.36827">
        <ele>1108</ele>
        <time>2015-07-19T06:38:27Z</time>
      </trkpt>
      <trkpt lat="44.15955" lon="5.36837">
        <ele>1108</ele>
        <time>2015-07-19T06:38:40Z</time>
      </trkpt>
      <trkpt lat="44.15956" lon="5.36851">
        <ele>1106</ele>
        <time>2015-07-19T06:38:51Z</time>
      </trkpt>
      <trkpt lat="44.15947" lon="5.36857">
        <ele>1105</ele>
        <time>2015-07-19T06:38:55Z</time>
      </trkpt>
      <trkpt lat="44.15937" lon="5.36868">
        <ele>1106</ele>
        <time>2015-07-19T06:38:58Z</time>
      </trkpt>
      <trkpt lat="44.15918" lon="5.36881">
        <ele>1101</ele>
        <time>2015-07-19T06:39:13Z</time>
      </trkpt>
      <trkpt lat="44.15914" lon="5.36889">
        <ele>1095</ele>
        <time>2015-07-19T06:39:29Z</time>
      </trkpt>
      <trkpt lat="44.15913" lon="5.36901">
        <ele>1097</ele>
        <time>2015-07-19T06:39:40Z</time>
      </trkpt>
      <trkpt lat="44.15904" lon="5.36911">
        <ele>1102</ele>
        <time>2015-07-19T06:39:44Z</time>
      </trkpt>
      <trkpt lat="44.15896" lon="5.3692">
        <ele>1104</ele>
        <time>2015-07-19T06:39:47Z</time>
      </trkpt>
      <trkpt lat="44.15894" lon="5.36937">
        <ele>1104</ele>
        <time>2015-07-19T06:39:51Z</time>
      </trkpt>
      <trkpt lat="44.15889" lon="5.36952">
        <ele>1103</ele>
        <time>2015-07-19T06:39:54Z</time>
      </trkpt>
      <trkpt lat="44.15898" lon="5.36961">
        <ele>1100</ele>
        <time>2015-07-19T06:39:58Z</time>
      </trkpt>
      <trkpt lat="44.15927" lon="5.36958">
        <ele>1091</ele>
        <time>2015-07-19T06:40:06Z</time>
      </trkpt>
      <trkpt lat="44.15934" lon="5.36955">
        <ele>1089</ele>
        <time>2015-07-19T06:40:08Z</time>
      </trkpt>
      <trkpt lat="44.15955" lon="5.36934">
        <ele>1086</ele>
        <time>2015-07-19T06:40:13Z</time>
      </trkpt>
      <trkpt lat="44.15995" lon="5.36909">
        <ele>1083</ele>
        <time>2015-07-19T06:40:25Z</time>
      </trkpt>
      <trkpt lat="44.16098" lon="5.36823">
        <ele>1054</ele>
        <time>2015-07-19T06:40:53Z</time>
      </trkpt>
      <trkpt lat="44.16102" lon="5.36789">
        <ele>1053</ele>
        <time>2015-07-19T06:40:56Z</time>
      </trkpt>
      <trkpt lat="44.16086" lon="5.36735">
        <ele>1051</ele>
        <time>2015-07-19T06:41:05Z</time>
      </trkpt>
      <trkpt lat="44.16074" lon="5.36681">
        <ele>1054</ele>
        <time>2015-07-19T06:41:18Z</time>
      </trkpt>
      <trkpt lat="44.16067" lon="5.36666">
        <ele>1056</ele>
        <time>2015-07-19T06:41:22Z</time>
      </trkpt>
      <trkpt lat="44.16057" lon="5.36673">
        <ele>1064</ele>
        <time>2015-07-19T06:41:36Z</time>
      </trkpt>
      <trkpt lat="44.1606" lon="5.36689">
        <ele>1063</ele>
        <time>2015-07-19T06:41:44Z</time>
      </trkpt>
      <trkpt lat="44.16068" lon="5.367">
        <ele>1062</ele>
        <time>2015-07-19T06:41:46Z</time>
      </trkpt>
      <trkpt lat="44.16121" lon="5.36784">
        <ele>1043</ele>
        <time>2015-07-19T06:42:01Z</time>
      </trkpt>
      <trkpt lat="44.16126" lon="5.3679">
        <ele>1041</ele>
        <time>2015-07-19T06:42:03Z</time>
      </trkpt>
      <trkpt lat="44.16123" lon="5.36807">
        <ele>1036</ele>
        <time>2015-07-19T06:42:09Z</time>
      </trkpt>
      <trkpt lat="44.16118" lon="5.36828">
        <ele>1034</ele>
        <time>2015-07-19T06:42:12Z</time>
      </trkpt>
      <trkpt lat="44.16112" lon="5.36834">
        <ele>1032</ele>
        <time>2015-07-19T06:42:14Z</time>
      </trkpt>
      <trkpt lat="44.16099" lon="5.36848">
        <ele>1029</ele>
        <time>2015-07-19T06:42:18Z</time>
      </trkpt>
      <trkpt lat="44.16096" lon="5.36856">
        <ele>1027</ele>
        <time>2015-07-19T06:42:20Z</time>
      </trkpt>
      <trkpt lat="44.16099" lon="5.36865">
        <ele>1025</ele>
        <time>2015-07-19T06:42:23Z</time>
      </trkpt>
      <trkpt lat="44.16114" lon="5.36884">
        <ele>1017</ele>
        <time>2015-07-19T06:42:30Z</time>
      </trkpt>
      <trkpt lat="44.16126" lon="5.36884">
        <ele>1008</ele>
        <time>2015-07-19T06:42:39Z</time>
      </trkpt>
      <trkpt lat="44.16145" lon="5.36868">
        <ele>1008</ele>
        <time>2015-07-19T06:42:46Z</time>
      </trkpt>
      <trkpt lat="44.16171" lon="5.36834">
        <ele>1011</ele>
        <time>2015-07-19T06:42:54Z</time>
      </trkpt>
      <trkpt lat="44.16171" lon="5.36814">
        <ele>1011</ele>
        <time>2015-07-19T06:42:56Z</time>
      </trkpt>
      <trkpt lat="44.16166" lon="5.36795">
        <ele>1011</ele>
        <time>2015-07-19T06:42:58Z</time>
      </trkpt>
      <trkpt lat="44.16158" lon="5.36748">
        <ele>1010</ele>
        <time>2015-07-19T06:43:04Z</time>
      </trkpt>
      <trkpt lat="44.1615" lon="5.36724">
        <ele>1010</ele>
        <time>2015-07-19T06:43:08Z</time>
      </trkpt>
      <trkpt lat="44.1615" lon="5.36716">
        <ele>1009</ele>
        <time>2015-07-19T06:43:09Z</time>
      </trkpt>
      <trkpt lat="44.16149" lon="5.36693">
        <ele>1009</ele>
        <time>2015-07-19T06:43:13Z</time>
      </trkpt>
      <trkpt lat="44.1614" lon="5.36685">
        <ele>1013</ele>
        <time>2015-07-19T06:43:34Z</time>
      </trkpt>
      <trkpt lat="44.16131" lon="5.36699">
        <ele>1012</ele>
        <time>2015-07-19T06:44:03Z</time>
      </trkpt>
      <trkpt lat="44.16136" lon="5.36714">
        <ele>1007</ele>
        <time>2015-07-19T06:44:07Z</time>
      </trkpt>
      <trkpt lat="44.16173" lon="5.36774">
        <ele>993</ele>
        <time>2015-07-19T06:44:17Z</time>
      </trkpt>
      <trkpt lat="44.16179" lon="5.36777">
        <ele>990</ele>
        <time>2015-07-19T06:44:19Z</time>
      </trkpt>
      <trkpt lat="44.16181" lon="5.36784">
        <ele>988</ele>
        <time>2015-07-19T06:44:21Z</time>
      </trkpt>
      <trkpt lat="44.16179" lon="5.36804">
        <ele>985</ele>
        <time>2015-07-19T06:44:25Z</time>
      </trkpt>
      <trkpt lat="44.16145" lon="5.36887">
        <ele>972</ele>
        <time>2015-07-19T06:44:41Z</time>
      </trkpt>
      <trkpt lat="44.16154" lon="5.36914">
        <ele>970</ele>
        <time>2015-07-19T06:44:48Z</time>
      </trkpt>
      <trkpt lat="44.1616" lon="5.36928">
        <ele>970</ele>
        <time>2015-07-19T06:45:03Z</time>
      </trkpt>
      <trkpt lat="44.16151" lon="5.3694">
        <ele>972</ele>
        <time>2015-07-19T06:45:16Z</time>
      </trkpt>
      <trkpt lat="44.16162" lon="5.36941">
        <ele>967</ele>
        <time>2015-07-19T06:45:29Z</time>
      </trkpt>
      <trkpt lat="44.16239" lon="5.36846">
        <ele>954</ele>
        <time>2015-07-19T06:45:58Z</time>
      </trkpt>
      <trkpt lat="44.16252" lon="5.36804">
        <ele>954</ele>
        <time>2015-07-19T06:46:02Z</time>
      </trkpt>
      <trkpt lat="44.16254" lon="5.36794">
        <ele>953</ele>
        <time>2015-07-19T06:46:03Z</time>
      </trkpt>
      <trkpt lat="44.16256" lon="5.36745">
        <ele>953</ele>
        <time>2015-07-19T06:46:07Z</time>
      </trkpt>
      <trkpt lat="44.16249" lon="5.36731">
        <ele>953</ele>
        <time>2015-07-19T06:46:09Z</time>
      </trkpt>
      <trkpt lat="44.16237" lon="5.36711">
        <ele>951</ele>
        <time>2015-07-19T06:46:25Z</time>
      </trkpt>
      <trkpt lat="44.16236" lon="5.36717">
        <ele>955</ele>
        <time>2015-07-19T06:47:43Z</time>
      </trkpt>
      <trkpt lat="44.16241" lon="5.36787">
        <ele>929</ele>
        <time>2015-07-19T06:48:01Z</time>
      </trkpt>
      <trkpt lat="44.1624" lon="5.36802">
        <ele>923</ele>
        <time>2015-07-19T06:48:04Z</time>
      </trkpt>
      <trkpt lat="44.16217" lon="5.3688">
        <ele>905</ele>
        <time>2015-07-19T06:48:18Z</time>
      </trkpt>
      <trkpt lat="44.16219" lon="5.36897">
        <ele>904</ele>
        <time>2015-07-19T06:48:20Z</time>
      </trkpt>
      <trkpt lat="44.16222" lon="5.36906">
        <ele>904</ele>
        <time>2015-07-19T06:48:21Z</time>
      </trkpt>
      <trkpt lat="44.16238" lon="5.36911">
        <ele>906</ele>
        <time>2015-07-19T06:48:45Z</time>
      </trkpt>
      <trkpt lat="44.1626" lon="5.36906">
        <ele>907</ele>
        <time>2015-07-19T06:48:51Z</time>
      </trkpt>
      <trkpt lat="44.16268" lon="5.36899">
        <ele>907</ele>
        <time>2015-07-19T06:48:54Z</time>
      </trkpt>
      <trkpt lat="44.16281" lon="5.36878">
        <ele>904</ele>
        <time>2015-07-19T06:49:00Z</time>
      </trkpt>
      <trkpt lat="44.16293" lon="5.36861">
        <ele>901</ele>
        <time>2015-07-19T06:49:06Z</time>
      </trkpt>
      <trkpt lat="44.16296" lon="5.36848">
        <ele>895</ele>
        <time>2015-07-19T06:49:21Z</time>
      </trkpt>
      <trkpt lat="44.16284" lon="5.36852">
        <ele>894</ele>
        <time>2015-07-19T06:49:36Z</time>
      </trkpt>
      <trkpt lat="44.16267" lon="5.36873">
        <ele>894</ele>
        <time>2015-07-19T06:49:42Z</time>
      </trkpt>
      <trkpt lat="44.16218" lon="5.36967">
        <ele>886</ele>
        <time>2015-07-19T06:50:02Z</time>
      </trkpt>
      <trkpt lat="44.16177" lon="5.37046">
        <ele>877</ele>
        <time>2015-07-19T06:50:20Z</time>
      </trkpt>
      <trkpt lat="44.16172" lon="5.37055">
        <ele>877</ele>
        <time>2015-07-19T06:50:22Z</time>
      </trkpt>
      <trkpt lat="44.16167" lon="5.37072">
        <ele>879</ele>
        <time>2015-07-19T06:50:26Z</time>
      </trkpt>
      <trkpt lat="44.16166" lon="5.37079">
        <ele>878</ele>
        <time>2015-07-19T06:50:29Z</time>
      </trkpt>
      <trkpt lat="44.16169" lon="5.37095">
        <ele>875</ele>
        <time>2015-07-19T06:50:36Z</time>
      </trkpt>
      <trkpt lat="44.16175" lon="5.37105">
        <ele>876</ele>
        <time>2015-07-19T06:50:45Z</time>
      </trkpt>
      <trkpt lat="44.1618" lon="5.37119">
        <ele>872</ele>
        <time>2015-07-19T06:50:50Z</time>
      </trkpt>
      <trkpt lat="44.16189" lon="5.37107">
        <ele>864</ele>
        <time>2015-07-19T06:51:00Z</time>
      </trkpt>
      <trkpt lat="44.16199" lon="5.37096">
        <ele>864</ele>
        <time>2015-07-19T06:51:04Z</time>
      </trkpt>
      <trkpt lat="44.16222" lon="5.3709">
        <ele>864</ele>
        <time>2015-07-19T06:51:09Z</time>
      </trkpt>
      <trkpt lat="44.16226" lon="5.37087">
        <ele>864</ele>
        <time>2015-07-19T06:51:10Z</time>
      </trkpt>
      <trkpt lat="44.16243" lon="5.37068">
        <ele>861</ele>
        <time>2015-07-19T06:51:15Z</time>
      </trkpt>
      <trkpt lat="44.16249" lon="5.37058">
        <ele>862</ele>
        <time>2015-07-19T06:51:17Z</time>
      </trkpt>
      <trkpt lat="44.16254" lon="5.37048">
        <ele>862</ele>
        <time>2015-07-19T06:51:20Z</time>
      </trkpt>
      <trkpt lat="44.16258" lon="5.37041">
        <ele>862</ele>
        <time>2015-07-19T06:51:21Z</time>
      </trkpt>
      <trkpt lat="44.16261" lon="5.37031">
        <ele>861</ele>
        <time>2015-07-19T06:51:23Z</time>
      </trkpt>
      <trkpt lat="44.16266" lon="5.37023">
        <ele>861</ele>
        <time>2015-07-19T06:51:25Z</time>
      </trkpt>
      <trkpt lat="44.16338" lon="5.36909">
        <ele>846</ele>
        <time>2015-07-19T06:51:49Z</time>
      </trkpt>
      <trkpt lat="44.16343" lon="5.36887">
        <ele>846</ele>
        <time>2015-07-19T06:51:51Z</time>
      </trkpt>
      <trkpt lat="44.16387" lon="5.36784">
        <ele>885</ele>
        <time>2015-07-19T06:52:22Z</time>
      </trkpt>
      <trkpt lat="44.16423" lon="5.36712">
        <ele>905</ele>
        <time>2015-07-19T06:52:39Z</time>
      </trkpt>
      <trkpt lat="44.16424" lon="5.36703">
        <ele>904</ele>
        <time>2015-07-19T06:52:41Z</time>
      </trkpt>
      <trkpt lat="44.16426" lon="5.36695">
        <ele>903</ele>
        <time>2015-07-19T06:52:43Z</time>
      </trkpt>
      <trkpt lat="44.16424" lon="5.36681">
        <ele>903</ele>
        <time>2015-07-19T06:52:46Z</time>
      </trkpt>
      <trkpt lat="44.16415" lon="5.36674">
        <ele>902</ele>
        <time>2015-07-19T06:52:49Z</time>
      </trkpt>
      <trkpt lat="44.16403" lon="5.36678">
        <ele>903</ele>
        <time>2015-07-19T06:52:52Z</time>
      </trkpt>
      <trkpt lat="44.16381" lon="5.36699">
        <ele>904</ele>
        <time>2015-07-19T06:52:58Z</time>
      </trkpt>
      <trkpt lat="44.16364" lon="5.3674">
        <ele>906</ele>
        <time>2015-07-19T06:53:05Z</time>
      </trkpt>
      <trkpt lat="44.16359" lon="5.36757">
        <ele>906</ele>
        <time>2015-07-19T06:53:07Z</time>
      </trkpt>
      <trkpt lat="44.16358" lon="5.36773">
        <ele>904</ele>
        <time>2015-07-19T06:53:09Z</time>
      </trkpt>
      <trkpt lat="44.16366" lon="5.36787">
        <ele>890</ele>
        <time>2015-07-19T06:53:18Z</time>
      </trkpt>
      <trkpt lat="44.16366" lon="5.36807">
        <ele>883</ele>
        <time>2015-07-19T06:53:27Z</time>
      </trkpt>
      <trkpt lat="44.16364" lon="5.36835">
        <ele>879</ele>
        <time>2015-07-19T06:53:31Z</time>
      </trkpt>
      <trkpt lat="44.16359" lon="5.36841">
        <ele>877</ele>
        <time>2015-07-19T06:53:33Z</time>
      </trkpt>
      <trkpt lat="44.16338" lon="5.36892">
        <ele>866</ele>
        <time>2015-07-19T06:53:40Z</time>
      </trkpt>
      <trkpt lat="44.16337" lon="5.3695">
        <ele>850</ele>
        <time>2015-07-19T06:53:44Z</time>
      </trkpt>
      <trkpt lat="44.16322" lon="5.37026">
        <ele>815</ele>
        <time>2015-07-19T06:53:52Z</time>
      </trkpt>
      <trkpt lat="44.1633" lon="5.3708">
        <ele>800</ele>
        <time>2015-07-19T06:53:57Z</time>
      </trkpt>
      <trkpt lat="44.16354" lon="5.37135">
        <ele>792</ele>
        <time>2015-07-19T06:54:02Z</time>
      </trkpt>
      <trkpt lat="44.16369" lon="5.37153">
        <ele>789</ele>
        <time>2015-07-19T06:54:05Z</time>
      </trkpt>
      <trkpt lat="44.1641" lon="5.37202">
        <ele>786</ele>
        <time>2015-07-19T06:54:11Z</time>
      </trkpt>
      <trkpt lat="44.16425" lon="5.37205">
        <ele>787</ele>
        <time>2015-07-19T06:54:13Z</time>
      </trkpt>
      <trkpt lat="44.16433" lon="5.37206">
        <ele>786</ele>
        <time>2015-07-19T06:54:14Z</time>
      </trkpt>
      <trkpt lat="44.16462" lon="5.37211">
        <ele>786</ele>
        <time>2015-07-19T06:54:18Z</time>
      </trkpt>
      <trkpt lat="44.16472" lon="5.37213">
        <ele>785</ele>
        <time>2015-07-19T06:54:20Z</time>
      </trkpt>
      <trkpt lat="44.16516" lon="5.37221">
        <ele>783</ele>
        <time>2015-07-19T06:54:25Z</time>
      </trkpt>
      <trkpt lat="44.16546" lon="5.37226">
        <ele>777</ele>
        <time>2015-07-19T06:54:41Z</time>
      </trkpt>
      <trkpt lat="44.16546" lon="5.37217">
        <ele>774</ele>
        <time>2015-07-19T06:54:43Z</time>
      </trkpt>
      <trkpt lat="44.16545" lon="5.3721">
        <ele>773</ele>
        <time>2015-07-19T06:54:44Z</time>
      </trkpt>
      <trkpt lat="44.16522" lon="5.37181">
        <ele>767</ele>
        <time>2015-07-19T06:54:49Z</time>
      </trkpt>
      <trkpt lat="44.16491" lon="5.3714">
        <ele>760</ele>
        <time>2015-07-19T06:54:54Z</time>
      </trkpt>
      <trkpt lat="44.16487" lon="5.37114">
        <ele>757</ele>
        <time>2015-07-19T06:54:58Z</time>
      </trkpt>
      <trkpt lat="44.16484" lon="5.36982">
        <ele>741</ele>
        <time>2015-07-19T06:55:09Z</time>
      </trkpt>
      <trkpt lat="44.1649" lon="5.36969">
        <ele>737</ele>
        <time>2015-07-19T06:55:11Z</time>
      </trkpt>
      <trkpt lat="44.16625" lon="5.36834">
        <ele>705</ele>
        <time>2015-07-19T06:55:33Z</time>
      </trkpt>
      <trkpt lat="44.16631" lon="5.36831">
        <ele>702</ele>
        <time>2015-07-19T06:55:35Z</time>
      </trkpt>
      <trkpt lat="44.16628" lon="5.36826">
        <ele>701</ele>
        <time>2015-07-19T06:55:41Z</time>
      </trkpt>
      <trkpt lat="44.16622" lon="5.36827">
        <ele>701</ele>
        <time>2015-07-19T06:55:42Z</time>
      </trkpt>
      <trkpt lat="44.16616" lon="5.36831">
        <ele>701</ele>
        <time>2015-07-19T06:55:43Z</time>
      </trkpt>
      <trkpt lat="44.16587" lon="5.36877">
        <ele>705</ele>
        <time>2015-07-19T06:55:48Z</time>
      </trkpt>
      <trkpt lat="44.16558" lon="5.36987">
        <ele>702</ele>
        <time>2015-07-19T06:55:56Z</time>
      </trkpt>
      <trkpt lat="44.16561" lon="5.36998">
        <ele>701</ele>
        <time>2015-07-19T06:55:57Z</time>
      </trkpt>
      <trkpt lat="44.16573" lon="5.37012">
        <ele>699</ele>
        <time>2015-07-19T06:55:59Z</time>
      </trkpt>
      <trkpt lat="44.16728" lon="5.37126">
        <ele>673</ele>
        <time>2015-07-19T06:56:21Z</time>
      </trkpt>
      <trkpt lat="44.1675" lon="5.3713">
        <ele>674</ele>
        <time>2015-07-19T06:56:23Z</time>
      </trkpt>
      <trkpt lat="44.16775" lon="5.37142">
        <ele>673</ele>
        <time>2015-07-19T06:56:25Z</time>
      </trkpt>
      <trkpt lat="44.16797" lon="5.37145">
        <ele>671</ele>
        <time>2015-07-19T06:56:28Z</time>
      </trkpt>
      <trkpt lat="44.16806" lon="5.37148">
        <ele>671</ele>
        <time>2015-07-19T06:56:29Z</time>
      </trkpt>
      <trkpt lat="44.16828" lon="5.37164">
        <ele>671</ele>
        <time>2015-07-19T06:56:31Z</time>
      </trkpt>
      <trkpt lat="44.16842" lon="5.37167">
        <ele>670</ele>
        <time>2015-07-19T06:56:32Z</time>
      </trkpt>
      <trkpt lat="44.17014" lon="5.37178">
        <ele>643</ele>
        <time>2015-07-19T06:56:47Z</time>
      </trkpt>
      <trkpt lat="44.17258" lon="5.37144">
        <ele>594</ele>
        <time>2015-07-19T06:57:18Z</time>
      </trkpt>
      <trkpt lat="44.17279" lon="5.37154">
        <ele>592</ele>
        <time>2015-07-19T06:57:21Z</time>
      </trkpt>
      <trkpt lat="44.17286" lon="5.37156">
        <ele>592</ele>
        <time>2015-07-19T06:57:23Z</time>
      </trkpt>
      <trkpt lat="44.17328" lon="5.37129">
        <ele>593</ele>
        <time>2015-07-19T06:57:30Z</time>
      </trkpt>
      <trkpt lat="44.17397" lon="5.37146">
        <ele>583</ele>
        <time>2015-07-19T06:57:39Z</time>
      </trkpt>
      <trkpt lat="44.174" lon="5.3715">
        <ele>583</ele>
        <time>2015-07-19T06:57:40Z</time>
      </trkpt>
      <trkpt lat="44.17413" lon="5.37152">
        <ele>581</ele>
        <time>2015-07-19T06:57:45Z</time>
      </trkpt>
      <trkpt lat="44.17424" lon="5.37151">
        <ele>580</ele>
        <time>2015-07-19T06:57:50Z</time>
      </trkpt>
      <trkpt lat="44.17435" lon="5.37145">
        <ele>580</ele>
        <time>2015-07-19T06:58:00Z</time>
      </trkpt>
      <trkpt lat="44.17441" lon="5.37144">
        <ele>579</ele>
        <time>2015-07-19T06:58:04Z</time>
      </trkpt>
      <trkpt lat="44.17453" lon="5.37145">
        <ele>580</ele>
        <time>2015-07-19T06:58:10Z</time>
      </trkpt>
      <trkpt lat="44.17459" lon="5.37142">
        <ele>580</ele>
        <time>2015-07-19T06:58:13Z</time>
      </trkpt>
      <trkpt lat="44.17468" lon="5.37135">
        <ele>579</ele>
        <time>2015-07-19T06:58:22Z</time>
      </trkpt>
      <trkpt lat="44.17488" lon="5.3712">
        <ele>577</ele>
        <time>2015-07-19T06:58:31Z</time>
      </trkpt>
      <trkpt lat="44.1752" lon="5.37104">
        <ele>587</ele>
        <time>2015-07-19T06:58:51Z</time>
      </trkpt>
      <trkpt lat="44.17527" lon="5.37107">
        <ele>589</ele>
        <time>2015-07-19T06:58:55Z</time>
      </trkpt>
      <trkpt lat="44.17531" lon="5.3711">
        <ele>589</ele>
        <time>2015-07-19T06:58:57Z</time>
      </trkpt>
      <trkpt lat="44.17551" lon="5.37132">
        <ele>586</ele>
        <time>2015-07-19T06:59:05Z</time>
      </trkpt>
      <trkpt lat="44.17568" lon="5.37163">
        <ele>586</ele>
        <time>2015-07-19T06:59:13Z</time>
      </trkpt>
      <trkpt lat="44.17576" lon="5.37172">
        <ele>585</ele>
        <time>2015-07-19T06:59:16Z</time>
      </trkpt>
      <trkpt lat="44.17581" lon="5.37176">
        <ele>584</ele>
        <time>2015-07-19T06:59:18Z</time>
      </trkpt>
      <trkpt lat="44.17589" lon="5.37183">
        <ele>584</ele>
        <time>2015-07-19T06:59:20Z</time>
      </trkpt>
      <trkpt lat="44.17596" lon="5.37186">
        <ele>585</ele>
        <time>2015-07-19T06:59:22Z</time>
      </trkpt>
      <trkpt lat="44.176" lon="5.37186">
        <ele>585</ele>
        <time>2015-07-19T06:59:23Z</time>
      </trkpt>
      <trkpt lat="44.17607" lon="5.37188">
        <ele>585</ele>
        <time>2015-07-19T06:59:25Z</time>
      </trkpt>
      <trkpt lat="44.17623" lon="5.3719">
        <ele>585</ele>
        <time>2015-07-19T06:59:29Z</time>
      </trkpt>
      <trkpt lat="44.17653" lon="5.37208">
        <ele>588</ele>
        <time>2015-07-19T06:59:35Z</time>
      </trkpt>
      <trkpt lat="44.17774" lon="5.37229">
        <ele>579</ele>
        <time>2015-07-19T06:59:51Z</time>
      </trkpt>
      <trkpt lat="44.17793" lon="5.3722">
        <ele>570</ele>
        <time>2015-07-19T07:00:11Z</time>
      </trkpt>
      <trkpt lat="44.17809" lon="5.37221">
        <ele>570</ele>
        <time>2015-07-19T07:00:15Z</time>
      </trkpt>
      <trkpt lat="44.17835" lon="5.37229">
        <ele>568</ele>
        <time>2015-07-19T07:00:21Z</time>
      </trkpt>
      <trkpt lat="44.17918" lon="5.37304">
        <ele>559</ele>
        <time>2015-07-19T07:00:37Z</time>
      </trkpt>
      <trkpt lat="44.17923" lon="5.37341">
        <ele>555</ele>
        <time>2015-07-19T07:00:44Z</time>
      </trkpt>
      <trkpt lat="44.17952" lon="5.37367">
        <ele>547</ele>
        <time>2015-07-19T07:00:56Z</time>
      </trkpt>
      <trkpt lat="44.17957" lon="5.37369">
        <ele>545</ele>
        <time>2015-07-19T07:01:00Z</time>
      </trkpt>
      <trkpt lat="44.17961" lon="5.37365">
        <ele>542</ele>
        <time>2015-07-19T07:01:13Z</time>
      </trkpt>
      <trkpt lat="44.17966" lon="5.37359">
        <ele>542</ele>
        <time>2015-07-19T07:01:19Z</time>
      </trkpt>
      <trkpt lat="44.17974" lon="5.3736">
        <ele>539</ele>
        <time>2015-07-19T07:01:24Z</time>
      </trkpt>
      <trkpt lat="44.17996" lon="5.37369">
        <ele>533</ele>
        <time>2015-07-19T07:01:34Z</time>
      </trkpt>
      <trkpt lat="44.17991" lon="5.37379">
        <ele>531</ele>
        <time>2015-07-19T07:01:46Z</time>
      </trkpt>
      <trkpt lat="44.1799" lon="5.37382">
        <ele>530</ele>
        <time>2015-07-19T07:01:47Z</time>
      </trkpt>
      <trkpt lat="44.17974" lon="5.37399">
        <ele>531</ele>
        <time>2015-07-19T07:01:57Z</time>
      </trkpt>
      <trkpt lat="44.17971" lon="5.37415">
        <ele>530</ele>
        <time>2015-07-19T07:02:04Z</time>
      </trkpt>
      <trkpt lat="44.17967" lon="5.37423">
        <ele>530</ele>
        <time>2015-07-19T07:02:06Z</time>
      </trkpt>
      <trkpt lat="44.17963" lon="5.37428">
        <ele>529</ele>
        <time>2015-07-19T07:02:08Z</time>
      </trkpt>
      <trkpt lat="44.17966" lon="5.37437">
        <ele>527</ele>
        <time>2015-07-19T07:02:13Z</time>
      </trkpt>
      <trkpt lat="44.1797" lon="5.37438">
        <ele>525</ele>
        <time>2015-07-19T07:02:28Z</time>
      </trkpt>
      <trkpt lat="44.17968" lon="5.3744">
        <ele>522</ele>
        <time>2015-07-19T07:03:06Z</time>
      </trkpt>
      <trkpt lat="44.17973" lon="5.37452">
        <ele>521</ele>
        <time>2015-07-19T07:03:46Z</time>
      </trkpt>
      <trkpt lat="44.17977" lon="5.37441">
        <ele>525</ele>
        <time>2015-07-19T07:08:21Z</time>
      </trkpt>
      <trkpt lat="44.17975" lon="5.37441">
        <ele>526</ele>
        <time>2015-07-19T07:08:32Z</time>
      </trkpt>
      <trkpt lat="44.17971" lon="5.37437">
        <ele>525</ele>
        <time>2015-07-19T07:11:13Z</time>
      </trkpt>
      <trkpt lat="44.17973" lon="5.37438">
        <ele>525</ele>
        <time>2015-07-19T07:16:38Z</time>
      </trkpt>
      <trkpt lat="44.17973" lon="5.37442">
        <ele>526</ele>
        <time>2015-07-19T07:18:08Z</time>
      </trkpt>
      <trkpt lat="44.17985" lon="5.3745">
        <ele>526</ele>
        <time>2015-07-19T07:18:15Z</time>
      </trkpt>
      <trkpt lat="44.17991" lon="5.37449">
        <ele>527</ele>
        <time>2015-07-19T07:18:15Z</time>
      </trkpt>
      <trkpt lat="44.18004" lon="5.37443">
        <ele>528</ele>
        <time>2015-07-19T07:18:17Z</time>
      </trkpt>
      <trkpt lat="44.18013" lon="5.37419">
        <ele>529</ele>
        <time>2015-07-19T07:18:20Z</time>
      </trkpt>
      <trkpt lat="44.1802" lon="5.37394">
        <ele>530</ele>
        <time>2015-07-19T07:18:23Z</time>
      </trkpt>
      <trkpt lat="44.1801" lon="5.37212">
        <ele>520</ele>
        <time>2015-07-19T07:18:49Z</time>
      </trkpt>
      <trkpt lat="44.18011" lon="5.37174">
        <ele>522</ele>
        <time>2015-07-19T07:18:55Z</time>
      </trkpt>
      <trkpt lat="44.18012" lon="5.37168">
        <ele>522</ele>
        <time>2015-07-19T07:18:56Z</time>
      </trkpt>
      <trkpt lat="44.18091" lon="5.36913">
        <ele>522</ele>
        <time>2015-07-19T07:19:27Z</time>
      </trkpt>
      <trkpt lat="44.18079" lon="5.36682">
        <ele>514</ele>
        <time>2015-07-19T07:19:57Z</time>
      </trkpt>
      <trkpt lat="44.1808" lon="5.36671">
        <ele>514</ele>
        <time>2015-07-19T07:19:58Z</time>
      </trkpt>
      <trkpt lat="44.18085" lon="5.36507">
        <ele>513</ele>
        <time>2015-07-19T07:20:15Z</time>
      </trkpt>
      <trkpt lat="44.18092" lon="5.36463">
        <ele>518</ele>
        <time>2015-07-19T07:20:21Z</time>
      </trkpt>
      <trkpt lat="44.18086" lon="5.36447">
        <ele>518</ele>
        <time>2015-07-19T07:20:23Z</time>
      </trkpt>
      <trkpt lat="44.18081" lon="5.3633">
        <ele>519</ele>
        <time>2015-07-19T07:20:36Z</time>
      </trkpt>
      <trkpt lat="44.18098" lon="5.36266">
        <ele>517</ele>
        <time>2015-07-19T07:20:43Z</time>
      </trkpt>
      <trkpt lat="44.181" lon="5.36259">
        <ele>517</ele>
        <time>2015-07-19T07:20:44Z</time>
      </trkpt>
      <trkpt lat="44.18124" lon="5.36198">
        <ele>527</ele>
        <time>2015-07-19T07:20:55Z</time>
      </trkpt>
      <trkpt lat="44.18129" lon="5.36183">
        <ele>527</ele>
        <time>2015-07-19T07:20:57Z</time>
      </trkpt>
      <trkpt lat="44.18136" lon="5.36166">
        <ele>527</ele>
        <time>2015-07-19T07:20:59Z</time>
      </trkpt>
      <trkpt lat="44.18141" lon="5.36149">
        <ele>526</ele>
        <time>2015-07-19T07:21:01Z</time>
      </trkpt>
      <trkpt lat="44.18148" lon="5.3604">
        <ele>518</ele>
        <time>2015-07-19T07:21:18Z</time>
      </trkpt>
      <trkpt lat="44.18148" lon="5.36031">
        <ele>520</ele>
        <time>2015-07-19T07:21:21Z</time>
      </trkpt>
      <trkpt lat="44.18156" lon="5.36006">
        <ele>528</ele>
        <time>2015-07-19T07:21:35Z</time>
      </trkpt>
      <trkpt lat="44.18159" lon="5.35994">
        <ele>527</ele>
        <time>2015-07-19T07:21:39Z</time>
      </trkpt>
      <trkpt lat="44.18163" lon="5.35975">
        <ele>524</ele>
        <time>2015-07-19T07:21:44Z</time>
      </trkpt>
      <trkpt lat="44.18164" lon="5.35968">
        <ele>524</ele>
        <time>2015-07-19T07:21:47Z</time>
      </trkpt>
      <trkpt lat="44.18164" lon="5.35935">
        <ele>531</ele>
        <time>2015-07-19T07:22:03Z</time>
      </trkpt>
      <trkpt lat="44.18166" lon="5.35914">
        <ele>528</ele>
        <time>2015-07-19T07:22:10Z</time>
      </trkpt>
      <trkpt lat="44.18172" lon="5.35878">
        <ele>526</ele>
        <time>2015-07-19T07:22:17Z</time>
      </trkpt>
      <trkpt lat="44.18176" lon="5.35869">
        <ele>528</ele>
        <time>2015-07-19T07:22:20Z</time>
      </trkpt>
      <trkpt lat="44.18188" lon="5.35863">
        <ele>530</ele>
        <time>2015-07-19T07:22:24Z</time>
      </trkpt>
      <trkpt lat="44.18215" lon="5.35838">
        <ele>528</ele>
        <time>2015-07-19T07:22:30Z</time>
      </trkpt>
      <trkpt lat="44.18223" lon="5.35825">
        <ele>528</ele>
        <time>2015-07-19T07:22:32Z</time>
      </trkpt>
      <trkpt lat="44.18241" lon="5.35787">
        <ele>526</ele>
        <time>2015-07-19T07:22:37Z</time>
      </trkpt>
      <trkpt lat="44.18249" lon="5.35762">
        <ele>527</ele>
        <time>2015-07-19T07:22:41Z</time>
      </trkpt>
      <trkpt lat="44.18249" lon="5.3573">
        <ele>527</ele>
        <time>2015-07-19T07:22:45Z</time>
      </trkpt>
      <trkpt lat="44.18246" lon="5.35711">
        <ele>528</ele>
        <time>2015-07-19T07:22:48Z</time>
      </trkpt>
      <trkpt lat="44.1824" lon="5.35697">
        <ele>530</ele>
        <time>2015-07-19T07:22:51Z</time>
      </trkpt>
      <trkpt lat="44.1824" lon="5.3569">
        <ele>532</ele>
        <time>2015-07-19T07:22:53Z</time>
      </trkpt>
      <trkpt lat="44.18259" lon="5.35642">
        <ele>539</ele>
        <time>2015-07-19T07:23:03Z</time>
      </trkpt>
      <trkpt lat="44.18267" lon="5.35616">
        <ele>540</ele>
        <time>2015-07-19T07:23:06Z</time>
      </trkpt>
      <trkpt lat="44.1829" lon="5.35338">
        <ele>511</ele>
        <time>2015-07-19T07:23:37Z</time>
      </trkpt>
      <trkpt lat="44.1828" lon="5.35321">
        <ele>510</ele>
        <time>2015-07-19T07:23:41Z</time>
      </trkpt>
      <trkpt lat="44.18253" lon="5.35309">
        <ele>510</ele>
        <time>2015-07-19T07:23:46Z</time>
      </trkpt>
      <trkpt lat="44.18252" lon="5.35309">
        <ele>510</ele>
        <time>2015-07-19T07:23:58Z</time>
      </trkpt>
      <trkpt lat="44.18269" lon="5.35278">
        <ele>520</ele>
        <time>2015-07-19T07:24:08Z</time>
      </trkpt>
      <trkpt lat="44.18273" lon="5.35258">
        <ele>520</ele>
        <time>2015-07-19T07:24:11Z</time>
      </trkpt>
      <trkpt lat="44.18275" lon="5.35194">
        <ele>512</ele>
        <time>2015-07-19T07:24:25Z</time>
      </trkpt>
      <trkpt lat="44.18279" lon="5.35168">
        <ele>513</ele>
        <time>2015-07-19T07:24:36Z</time>
      </trkpt>
      <trkpt lat="44.18281" lon="5.35155">
        <ele>512</ele>
        <time>2015-07-19T07:24:40Z</time>
      </trkpt>
      <trkpt lat="44.18282" lon="5.35141">
        <ele>510</ele>
        <time>2015-07-19T07:24:45Z</time>
      </trkpt>
      <trkpt lat="44.18279" lon="5.35136">
        <ele>507</ele>
        <time>2015-07-19T07:24:52Z</time>
      </trkpt>
      <trkpt lat="44.18272" lon="5.35141">
        <ele>506</ele>
        <time>2015-07-19T07:24:55Z</time>
      </trkpt>
      <trkpt lat="44.18269" lon="5.3515">
        <ele>505</ele>
        <time>2015-07-19T07:24:59Z</time>
      </trkpt>
      <trkpt lat="44.18263" lon="5.35152">
        <ele>507</ele>
        <time>2015-07-19T07:25:06Z</time>
      </trkpt>
      <trkpt lat="44.18258" lon="5.35153">
        <ele>510</ele>
        <time>2015-07-19T07:25:11Z</time>
      </trkpt>
      <trkpt lat="44.18238" lon="5.35148">
        <ele>512</ele>
        <time>2015-07-19T07:25:25Z</time>
      </trkpt>
      <trkpt lat="44.18232" lon="5.35147">
        <ele>516</ele>
        <time>2015-07-19T07:25:33Z</time>
      </trkpt>
      <trkpt lat="44.18211" lon="5.35134">
        <ele>520</ele>
        <time>2015-07-19T07:25:53Z</time>
      </trkpt>
      <trkpt lat="44.18216" lon="5.35126">
        <ele>525</ele>
        <time>2015-07-19T07:26:02Z</time>
      </trkpt>
      <trkpt lat="44.18199" lon="5.35053">
        <ele>534</ele>
        <time>2015-07-19T07:26:18Z</time>
      </trkpt>
      <trkpt lat="44.18188" lon="5.35053">
        <ele>536</ele>
        <time>2015-07-19T07:26:22Z</time>
      </trkpt>
      <trkpt lat="44.18183" lon="5.35054">
        <ele>537</ele>
        <time>2015-07-19T07:26:23Z</time>
      </trkpt>
      <trkpt lat="44.18185" lon="5.35068">
        <ele>542</ele>
        <time>2015-07-19T07:26:29Z</time>
      </trkpt>
      <trkpt lat="44.18226" lon="5.35096">
        <ele>547</ele>
        <time>2015-07-19T07:26:39Z</time>
      </trkpt>
      <trkpt lat="44.1828" lon="5.35082">
        <ele>547</ele>
        <time>2015-07-19T07:26:48Z</time>
      </trkpt>
      <trkpt lat="44.18296" lon="5.35062">
        <ele>549</ele>
        <time>2015-07-19T07:26:52Z</time>
      </trkpt>
      <trkpt lat="44.18335" lon="5.34967">
        <ele>535</ele>
        <time>2015-07-19T07:27:02Z</time>
      </trkpt>
      <trkpt lat="44.18347" lon="5.3496">
        <ele>532</ele>
        <time>2015-07-19T07:27:10Z</time>
      </trkpt>
      <trkpt lat="44.18365" lon="5.34936">
        <ele>532</ele>
        <time>2015-07-19T07:27:14Z</time>
      </trkpt>
      <trkpt lat="44.18368" lon="5.34929">
        <ele>532</ele>
        <time>2015-07-19T07:27:15Z</time>
      </trkpt>
      <trkpt lat="44.18411" lon="5.34817">
        <ele>512</ele>
        <time>2015-07-19T07:27:29Z</time>
      </trkpt>
      <trkpt lat="44.18405" lon="5.34788">
        <ele>509</ele>
        <time>2015-07-19T07:27:33Z</time>
      </trkpt>
      <trkpt lat="44.18404" lon="5.34781">
        <ele>508</ele>
        <time>2015-07-19T07:27:34Z</time>
      </trkpt>
      <trkpt lat="44.1839" lon="5.34756">
        <ele>508</ele>
        <time>2015-07-19T07:27:39Z</time>
      </trkpt>
      <trkpt lat="44.18388" lon="5.34745">
        <ele>508</ele>
        <time>2015-07-19T07:27:40Z</time>
      </trkpt>
      <trkpt lat="44.18396" lon="5.34706">
        <ele>511</ele>
        <time>2015-07-19T07:27:46Z</time>
      </trkpt>
      <trkpt lat="44.18401" lon="5.34693">
        <ele>511</ele>
        <time>2015-07-19T07:27:49Z</time>
      </trkpt>
      <trkpt lat="44.184" lon="5.34684">
        <ele>510</ele>
        <time>2015-07-19T07:27:51Z</time>
      </trkpt>
      <trkpt lat="44.18405" lon="5.34667">
        <ele>510</ele>
        <time>2015-07-19T07:27:54Z</time>
      </trkpt>
      <trkpt lat="44.1841" lon="5.34657">
        <ele>510</ele>
        <time>2015-07-19T07:27:56Z</time>
      </trkpt>
      <trkpt lat="44.18466" lon="5.34552">
        <ele>526</ele>
        <time>2015-07-19T07:28:27Z</time>
      </trkpt>
      <trkpt lat="44.18479" lon="5.34527">
        <ele>532</ele>
        <time>2015-07-19T07:28:35Z</time>
      </trkpt>
      <trkpt lat="44.18496" lon="5.3451">
        <ele>534</ele>
        <time>2015-07-19T07:28:44Z</time>
      </trkpt>
      <trkpt lat="44.18506" lon="5.34507">
        <ele>534</ele>
        <time>2015-07-19T07:28:48Z</time>
      </trkpt>
      <trkpt lat="44.18515" lon="5.34502">
        <ele>535</ele>
        <time>2015-07-19T07:28:52Z</time>
      </trkpt>
      <trkpt lat="44.1854" lon="5.34477">
        <ele>542</ele>
        <time>2015-07-19T07:29:04Z</time>
      </trkpt>
      <trkpt lat="44.18548" lon="5.34464">
        <ele>542</ele>
        <time>2015-07-19T07:29:08Z</time>
      </trkpt>
      <trkpt lat="44.18601" lon="5.34303">
        <ele>509</ele>
        <time>2015-07-19T07:29:38Z</time>
      </trkpt>
      <trkpt lat="44.18599" lon="5.34295">
        <ele>509</ele>
        <time>2015-07-19T07:29:39Z</time>
      </trkpt>
      <trkpt lat="44.18586" lon="5.34278">
        <ele>508</ele>
        <time>2015-07-19T07:29:41Z</time>
      </trkpt>
      <trkpt lat="44.18563" lon="5.34254">
        <ele>507</ele>
        <time>2015-07-19T07:29:45Z</time>
      </trkpt>
      <trkpt lat="44.18534" lon="5.34231">
        <ele>510</ele>
        <time>2015-07-19T07:29:53Z</time>
      </trkpt>
      <trkpt lat="44.18505" lon="5.34201">
        <ele>521</ele>
        <time>2015-07-19T07:30:17Z</time>
      </trkpt>
      <trkpt lat="44.18503" lon="5.34188">
        <ele>521</ele>
        <time>2015-07-19T07:30:30Z</time>
      </trkpt>
      <trkpt lat="44.18494" lon="5.34182">
        <ele>524</ele>
        <time>2015-07-19T07:30:36Z</time>
      </trkpt>
      <trkpt lat="44.18496" lon="5.34193">
        <ele>519</ele>
        <time>2015-07-19T07:30:53Z</time>
      </trkpt>
      <trkpt lat="44.18514" lon="5.34225">
        <ele>501</ele>
        <time>2015-07-19T07:31:08Z</time>
      </trkpt>
      <trkpt lat="44.18524" lon="5.34232">
        <ele>503</ele>
        <time>2015-07-19T07:31:15Z</time>
      </trkpt>
      <trkpt lat="44.18543" lon="5.34227">
        <ele>507</ele>
        <time>2015-07-19T07:31:21Z</time>
      </trkpt>
      <trkpt lat="44.18562" lon="5.34206">
        <ele>518</ele>
        <time>2015-07-19T07:31:42Z</time>
      </trkpt>
      <trkpt lat="44.18569" lon="5.34175">
        <ele>494</ele>
        <time>2015-07-19T07:32:40Z</time>
      </trkpt>
      <trkpt lat="44.18576" lon="5.34166">
        <ele>493</ele>
        <time>2015-07-19T07:32:51Z</time>
      </trkpt>
      <trkpt lat="44.18584" lon="5.34158">
        <ele>496</ele>
        <time>2015-07-19T07:32:57Z</time>
      </trkpt>
      <trkpt lat="44.18595" lon="5.34161">
        <ele>503</ele>
        <time>2015-07-19T07:33:06Z</time>
      </trkpt>
      <trkpt lat="44.18664" lon="5.3419">
        <ele>512</ele>
        <time>2015-07-19T07:33:19Z</time>
      </trkpt>
      <trkpt lat="44.18671" lon="5.3419">
        <ele>512</ele>
        <time>2015-07-19T07:33:20Z</time>
      </trkpt>
      <trkpt lat="44.18678" lon="5.34192">
        <ele>511</ele>
        <time>2015-07-19T07:33:21Z</time>
      </trkpt>
      <trkpt lat="44.18693" lon="5.34208">
        <ele>502</ele>
        <time>2015-07-19T07:33:30Z</time>
      </trkpt>
      <trkpt lat="44.18695" lon="5.34209">
        <ele>501</ele>
        <time>2015-07-19T07:33:31Z</time>
      </trkpt>
      <trkpt lat="44.18699" lon="5.34209">
        <ele>500</ele>
        <time>2015-07-19T07:33:33Z</time>
      </trkpt>
      <trkpt lat="44.18705" lon="5.34206">
        <ele>500</ele>
        <time>2015-07-19T07:33:35Z</time>
      </trkpt>
      <trkpt lat="44.18711" lon="5.34195">
        <ele>499</ele>
        <time>2015-07-19T07:33:37Z</time>
      </trkpt>
      <trkpt lat="44.18716" lon="5.34188">
        <ele>500</ele>
        <time>2015-07-19T07:33:38Z</time>
      </trkpt>
      <trkpt lat="44.1872" lon="5.34183">
        <ele>499</ele>
        <time>2015-07-19T07:33:39Z</time>
      </trkpt>
      <trkpt lat="44.18755" lon="5.34114">
        <ele>498</ele>
        <time>2015-07-19T07:33:47Z</time>
      </trkpt>
      <trkpt lat="44.18777" lon="5.34071">
        <ele>501</ele>
        <time>2015-07-19T07:33:54Z</time>
      </trkpt>
      <trkpt lat="44.18809" lon="5.34042">
        <ele>496</ele>
        <time>2015-07-19T07:34:10Z</time>
      </trkpt>
      <trkpt lat="44.18812" lon="5.34038">
        <ele>499</ele>
        <time>2015-07-19T07:34:14Z</time>
      </trkpt>
      <trkpt lat="44.18815" lon="5.34023">
        <ele>501</ele>
        <time>2015-07-19T07:34:20Z</time>
      </trkpt>
      <trkpt lat="44.18814" lon="5.33944">
        <ele>482</ele>
        <time>2015-07-19T07:34:40Z</time>
      </trkpt>
      <trkpt lat="44.18814" lon="5.33931">
        <ele>481</ele>
        <time>2015-07-19T07:34:45Z</time>
      </trkpt>
      <trkpt lat="44.18822" lon="5.33893">
        <ele>479</ele>
        <time>2015-07-19T07:34:59Z</time>
      </trkpt>
      <trkpt lat="44.18822" lon="5.33885">
        <ele>480</ele>
        <time>2015-07-19T07:35:02Z</time>
      </trkpt>
      <trkpt lat="44.18836" lon="5.33842">
        <ele>491</ele>
        <time>2015-07-19T07:35:24Z</time>
      </trkpt>
      <trkpt lat="44.18839" lon="5.33826">
        <ele>492</ele>
        <time>2015-07-19T07:35:29Z</time>
      </trkpt>
      <trkpt lat="44.18838" lon="5.33813">
        <ele>492</ele>
        <time>2015-07-19T07:35:33Z</time>
      </trkpt>
      <trkpt lat="44.18835" lon="5.33782">
        <ele>495</ele>
        <time>2015-07-19T07:35:45Z</time>
      </trkpt>
      <trkpt lat="44.18835" lon="5.33776">
        <ele>495</ele>
        <time>2015-07-19T07:35:47Z</time>
      </trkpt>
      <trkpt lat="44.18841" lon="5.33764">
        <ele>492</ele>
        <time>2015-07-19T07:35:53Z</time>
      </trkpt>
      <trkpt lat="44.18846" lon="5.33762">
        <ele>493</ele>
        <time>2015-07-19T07:35:55Z</time>
      </trkpt>
      <trkpt lat="44.18852" lon="5.3376">
        <ele>492</ele>
        <time>2015-07-19T07:35:58Z</time>
      </trkpt>
      <trkpt lat="44.18909" lon="5.33723">
        <ele>495</ele>
        <time>2015-07-19T07:36:21Z</time>
      </trkpt>
      <trkpt lat="44.18931" lon="5.33707">
        <ele>508</ele>
        <time>2015-07-19T07:36:39Z</time>
      </trkpt>
      <trkpt lat="44.18939" lon="5.33701">
        <ele>509</ele>
        <time>2015-07-19T07:36:41Z</time>
      </trkpt>
      <trkpt lat="44.18949" lon="5.3368">
        <ele>509</ele>
        <time>2015-07-19T07:36:45Z</time>
      </trkpt>
      <trkpt lat="44.18954" lon="5.33668">
        <ele>509</ele>
        <time>2015-07-19T07:36:47Z</time>
      </trkpt>
      <trkpt lat="44.1896" lon="5.33657">
        <ele>509</ele>
        <time>2015-07-19T07:36:49Z</time>
      </trkpt>
      <trkpt lat="44.19088" lon="5.33358">
        <ele>479</ele>
        <time>2015-07-19T07:37:20Z</time>
      </trkpt>
      <trkpt lat="44.19086" lon="5.3334">
        <ele>479</ele>
        <time>2015-07-19T07:37:22Z</time>
      </trkpt>
      <trkpt lat="44.19082" lon="5.33333">
        <ele>479</ele>
        <time>2015-07-19T07:37:23Z</time>
      </trkpt>
      <trkpt lat="44.1907" lon="5.33323">
        <ele>477</ele>
        <time>2015-07-19T07:37:26Z</time>
      </trkpt>
      <trkpt lat="44.19033" lon="5.33204">
        <ele>474</ele>
        <time>2015-07-19T07:37:46Z</time>
      </trkpt>
      <trkpt lat="44.19032" lon="5.33184">
        <ele>475</ele>
        <time>2015-07-19T07:37:50Z</time>
      </trkpt>
      <trkpt lat="44.19022" lon="5.33182">
        <ele>478</ele>
        <time>2015-07-19T07:38:06Z</time>
      </trkpt>
      <trkpt lat="44.19017" lon="5.33175">
        <ele>471</ele>
        <time>2015-07-19T07:38:30Z</time>
      </trkpt>
      <trkpt lat="44.19016" lon="5.33171">
        <ele>467</ele>
        <time>2015-07-19T07:38:50Z</time>
      </trkpt>
      <trkpt lat="44.19021" lon="5.33167">
        <ele>468</ele>
        <time>2015-07-19T07:39:09Z</time>
      </trkpt>
      <trkpt lat="44.19018" lon="5.33153">
        <ele>469</ele>
        <time>2015-07-19T07:39:18Z</time>
      </trkpt>
      <trkpt lat="44.19021" lon="5.33134">
        <ele>471</ele>
        <time>2015-07-19T07:39:24Z</time>
      </trkpt>
      <trkpt lat="44.19021" lon="5.33118">
        <ele>472</ele>
        <time>2015-07-19T07:39:29Z</time>
      </trkpt>
      <trkpt lat="44.19027" lon="5.33096">
        <ele>470</ele>
        <time>2015-07-19T07:39:34Z</time>
      </trkpt>
      <trkpt lat="44.19034" lon="5.33081">
        <ele>471</ele>
        <time>2015-07-19T07:39:38Z</time>
      </trkpt>
      <trkpt lat="44.19056" lon="5.33025">
        <ele>485</ele>
        <time>2015-07-19T07:40:03Z</time>
      </trkpt>
      <trkpt lat="44.19061" lon="5.3302">
        <ele>484</ele>
        <time>2015-07-19T07:40:05Z</time>
      </trkpt>
      <trkpt lat="44.19067" lon="5.33011">
        <ele>484</ele>
        <time>2015-07-19T07:40:08Z</time>
      </trkpt>
      <trkpt lat="44.19084" lon="5.32964">
        <ele>483</ele>
        <time>2015-07-19T07:40:13Z</time>
      </trkpt>
      <trkpt lat="44.19101" lon="5.32917">
        <ele>480</ele>
        <time>2015-07-19T07:40:20Z</time>
      </trkpt>
      <trkpt lat="44.19106" lon="5.32907">
        <ele>480</ele>
        <time>2015-07-19T07:40:23Z</time>
      </trkpt>
      <trkpt lat="44.19115" lon="5.32894">
        <ele>482</ele>
        <time>2015-07-19T07:40:29Z</time>
      </trkpt>
      <trkpt lat="44.19138" lon="5.32885">
        <ele>477</ele>
        <time>2015-07-19T07:40:38Z</time>
      </trkpt>
      <trkpt lat="44.19141" lon="5.32877">
        <ele>478</ele>
        <time>2015-07-19T07:40:41Z</time>
      </trkpt>
      <trkpt lat="44.19135" lon="5.32802">
        <ele>493</ele>
        <time>2015-07-19T07:41:07Z</time>
      </trkpt>
      <trkpt lat="44.19125" lon="5.32775">
        <ele>488</ele>
        <time>2015-07-19T07:41:16Z</time>
      </trkpt>
      <trkpt lat="44.1907" lon="5.32729">
        <ele>476</ele>
        <time>2015-07-19T07:41:45Z</time>
      </trkpt>
      <trkpt lat="44.1906" lon="5.32725">
        <ele>476</ele>
        <time>2015-07-19T07:41:49Z</time>
      </trkpt>
      <trkpt lat="44.19013" lon="5.32705">
        <ele>486</ele>
        <time>2015-07-19T07:42:13Z</time>
      </trkpt>
      <trkpt lat="44.19011" lon="5.32697">
        <ele>488</ele>
        <time>2015-07-19T07:42:17Z</time>
      </trkpt>
      <trkpt lat="44.19011" lon="5.32684">
        <ele>490</ele>
        <time>2015-07-19T07:42:22Z</time>
      </trkpt>
      <trkpt lat="44.19019" lon="5.32642">
        <ele>492</ele>
        <time>2015-07-19T07:42:38Z</time>
      </trkpt>
      <trkpt lat="44.19019" lon="5.32629">
        <ele>492</ele>
        <time>2015-07-19T07:42:45Z</time>
      </trkpt>
      <trkpt lat="44.19028" lon="5.32589">
        <ele>500</ele>
        <time>2015-07-19T07:43:13Z</time>
      </trkpt>
      <trkpt lat="44.19029" lon="5.32583">
        <ele>501</ele>
        <time>2015-07-19T07:43:16Z</time>
      </trkpt>
      <trkpt lat="44.19029" lon="5.32576">
        <ele>500</ele>
        <time>2015-07-19T07:43:18Z</time>
      </trkpt>
      <trkpt lat="44.18991" lon="5.32458">
        <ele>499</ele>
        <time>2015-07-19T07:43:48Z</time>
      </trkpt>
      <trkpt lat="44.18905" lon="5.32331">
        <ele>491</ele>
        <time>2015-07-19T07:44:14Z</time>
      </trkpt>
      <trkpt lat="44.18901" lon="5.32313">
        <ele>490</ele>
        <time>2015-07-19T07:44:24Z</time>
      </trkpt>
      <trkpt lat="44.18906" lon="5.32302">
        <ele>491</ele>
        <time>2015-07-19T07:44:33Z</time>
      </trkpt>
      <trkpt lat="44.1891" lon="5.32294">
        <ele>490</ele>
        <time>2015-07-19T07:44:38Z</time>
      </trkpt>
      <trkpt lat="44.18913" lon="5.32291">
        <ele>490</ele>
        <time>2015-07-19T07:44:39Z</time>
      </trkpt>
      <trkpt lat="44.18928" lon="5.32264">
        <ele>498</ele>
        <time>2015-07-19T07:44:52Z</time>
      </trkpt>
      <trkpt lat="44.1893" lon="5.32254">
        <ele>498</ele>
        <time>2015-07-19T07:44:56Z</time>
      </trkpt>
      <trkpt lat="44.18933" lon="5.32244">
        <ele>498</ele>
        <time>2015-07-19T07:45:00Z</time>
      </trkpt>
      <trkpt lat="44.18953" lon="5.32188">
        <ele>499</ele>
        <time>2015-07-19T07:45:24Z</time>
      </trkpt>
      <trkpt lat="44.18955" lon="5.32182">
        <ele>500</ele>
        <time>2015-07-19T07:45:27Z</time>
      </trkpt>
      <trkpt lat="44.18962" lon="5.32166">
        <ele>501</ele>
        <time>2015-07-19T07:45:34Z</time>
      </trkpt>
      <trkpt lat="44.18965" lon="5.3216">
        <ele>500</ele>
        <time>2015-07-19T07:45:37Z</time>
      </trkpt>
      <trkpt lat="44.18968" lon="5.32154">
        <ele>500</ele>
        <time>2015-07-19T07:45:41Z</time>
      </trkpt>
      <trkpt lat="44.18999" lon="5.32098">
        <ele>516</ele>
        <time>2015-07-19T07:46:14Z</time>
      </trkpt>
      <trkpt lat="44.19007" lon="5.32064">
        <ele>519</ele>
        <time>2015-07-19T07:46:31Z</time>
      </trkpt>
      <trkpt lat="44.19016" lon="5.32029">
        <ele>525</ele>
        <time>2015-07-19T07:47:04Z</time>
      </trkpt>
      <trkpt lat="44.19019" lon="5.32017">
        <ele>525</ele>
        <time>2015-07-19T07:47:05Z</time>
      </trkpt>
      <trkpt lat="44.19021" lon="5.32004">
        <ele>529</ele>
        <time>2015-07-19T07:47:15Z</time>
      </trkpt>
      <trkpt lat="44.1903" lon="5.31982">
        <ele>540</ele>
        <time>2015-07-19T07:47:33Z</time>
      </trkpt>
      <trkpt lat="44.19033" lon="5.31968">
        <ele>540</ele>
        <time>2015-07-19T07:47:38Z</time>
      </trkpt>
      <trkpt lat="44.19039" lon="5.31954">
        <ele>538</ele>
        <time>2015-07-19T07:47:45Z</time>
      </trkpt>
      <trkpt lat="44.1904" lon="5.31946">
        <ele>534</ele>
        <time>2015-07-19T07:47:50Z</time>
      </trkpt>
      <trkpt lat="44.19035" lon="5.31923">
        <ele>528</ele>
        <time>2015-07-19T07:48:15Z</time>
      </trkpt>
      <trkpt lat="44.19028" lon="5.31901">
        <ele>531</ele>
        <time>2015-07-19T07:48:27Z</time>
      </trkpt>
      <trkpt lat="44.19026" lon="5.31884">
        <ele>531</ele>
        <time>2015-07-19T07:48:39Z</time>
      </trkpt>
      <trkpt lat="44.19032" lon="5.31868">
        <ele>524</ele>
        <time>2015-07-19T07:48:47Z</time>
      </trkpt>
      <trkpt lat="44.19058" lon="5.31843">
        <ele>515</ele>
        <time>2015-07-19T07:49:05Z</time>
      </trkpt>
      <trkpt lat="44.1908" lon="5.3183">
        <ele>515</ele>
        <time>2015-07-19T07:49:18Z</time>
      </trkpt>
      <trkpt lat="44.19098" lon="5.31813">
        <ele>519</ele>
        <time>2015-07-19T07:49:31Z</time>
      </trkpt>
      <trkpt lat="44.19154" lon="5.31773">
        <ele>522</ele>
        <time>2015-07-19T07:49:57Z</time>
      </trkpt>
      <trkpt lat="44.19192" lon="5.31725">
        <ele>539</ele>
        <time>2015-07-19T07:50:20Z</time>
      </trkpt>
      <trkpt lat="44.192" lon="5.31713">
        <ele>539</ele>
        <time>2015-07-19T07:50:25Z</time>
      </trkpt>
      <trkpt lat="44.1921" lon="5.31703">
        <ele>539</ele>
        <time>2015-07-19T07:50:29Z</time>
      </trkpt>
      <trkpt lat="44.19218" lon="5.31698">
        <ele>540</ele>
        <time>2015-07-19T07:50:34Z</time>
      </trkpt>
      <trkpt lat="44.19228" lon="5.31689">
        <ele>540</ele>
        <time>2015-07-19T07:50:39Z</time>
      </trkpt>
      <trkpt lat="44.19238" lon="5.31682">
        <ele>540</ele>
        <time>2015-07-19T07:50:44Z</time>
      </trkpt>
      <trkpt lat="44.19277" lon="5.31638">
        <ele>564</ele>
        <time>2015-07-19T07:51:13Z</time>
      </trkpt>
      <trkpt lat="44.19287" lon="5.31593">
        <ele>556</ele>
        <time>2015-07-19T07:51:32Z</time>
      </trkpt>
      <trkpt lat="44.19284" lon="5.31583">
        <ele>552</ele>
        <time>2015-07-19T07:51:44Z</time>
      </trkpt>
      <trkpt lat="44.19294" lon="5.31567">
        <ele>555</ele>
        <time>2015-07-19T07:52:13Z</time>
      </trkpt>
      <trkpt lat="44.193" lon="5.31558">
        <ele>555</ele>
        <time>2015-07-19T07:52:16Z</time>
      </trkpt>
      <trkpt lat="44.19309" lon="5.31552">
        <ele>558</ele>
        <time>2015-07-19T07:52:22Z</time>
      </trkpt>
      <trkpt lat="44.19318" lon="5.31543">
        <ele>559</ele>
        <time>2015-07-19T07:52:26Z</time>
      </trkpt>
      <trkpt lat="44.19331" lon="5.315">
        <ele>561</ele>
        <time>2015-07-19T07:52:37Z</time>
      </trkpt>
      <trkpt lat="44.19338" lon="5.3149">
        <ele>565</ele>
        <time>2015-07-19T07:52:42Z</time>
      </trkpt>
      <trkpt lat="44.19355" lon="5.31437">
        <ele>577</ele>
        <time>2015-07-19T07:53:04Z</time>
      </trkpt>
      <trkpt lat="44.19362" lon="5.31428">
        <ele>577</ele>
        <time>2015-07-19T07:53:07Z</time>
      </trkpt>
      <trkpt lat="44.19371" lon="5.31418">
        <ele>579</ele>
        <time>2015-07-19T07:53:09Z</time>
      </trkpt>
      <trkpt lat="44.19428" lon="5.31334">
        <ele>583</ele>
        <time>2015-07-19T07:53:22Z</time>
      </trkpt>
      <trkpt lat="44.19477" lon="5.31229">
        <ele>572</ele>
        <time>2015-07-19T07:53:38Z</time>
      </trkpt>
      <trkpt lat="44.19483" lon="5.31224">
        <ele>571</ele>
        <time>2015-07-19T07:53:40Z</time>
      </trkpt>
      <trkpt lat="44.19484" lon="5.31216">
        <ele>571</ele>
        <time>2015-07-19T07:53:41Z</time>
      </trkpt>
      <trkpt lat="44.19487" lon="5.31202">
        <ele>570</ele>
        <time>2015-07-19T07:53:42Z</time>
      </trkpt>
      <trkpt lat="44.1951" lon="5.3115">
        <ele>564</ele>
        <time>2015-07-19T07:53:46Z</time>
      </trkpt>
      <trkpt lat="44.19542" lon="5.30946">
        <ele>547</ele>
        <time>2015-07-19T07:54:02Z</time>
      </trkpt>
      <trkpt lat="44.19538" lon="5.30955">
        <ele>548</ele>
        <time>2015-07-19T07:54:09Z</time>
      </trkpt>
      <trkpt lat="44.19543" lon="5.3096">
        <ele>550</ele>
        <time>2015-07-19T07:54:12Z</time>
      </trkpt>
      <trkpt lat="44.19549" lon="5.30958">
        <ele>552</ele>
        <time>2015-07-19T07:54:15Z</time>
      </trkpt>
      <trkpt lat="44.19562" lon="5.30941">
        <ele>556</ele>
        <time>2015-07-19T07:54:19Z</time>
      </trkpt>
      <trkpt lat="44.19568" lon="5.30921">
        <ele>557</ele>
        <time>2015-07-19T07:54:22Z</time>
      </trkpt>
      <trkpt lat="44.19574" lon="5.30906">
        <ele>557</ele>
        <time>2015-07-19T07:54:25Z</time>
      </trkpt>
      <trkpt lat="44.19586" lon="5.3086">
        <ele>552</ele>
        <time>2015-07-19T07:54:32Z</time>
      </trkpt>
      <trkpt lat="44.19588" lon="5.30852">
        <ele>544</ele>
        <time>2015-07-19T07:54:40Z</time>
      </trkpt>
      <trkpt lat="44.19593" lon="5.30852">
        <ele>544</ele>
        <time>2015-07-19T07:54:43Z</time>
      </trkpt>
      <trkpt lat="44.19597" lon="5.30848">
        <ele>544</ele>
        <time>2015-07-19T07:54:45Z</time>
      </trkpt>
      <trkpt lat="44.19608" lon="5.30842">
        <ele>546</ele>
        <time>2015-07-19T07:54:51Z</time>
      </trkpt>
      <trkpt lat="44.19633" lon="5.30843">
        <ele>554</ele>
        <time>2015-07-19T07:55:04Z</time>
      </trkpt>
      <trkpt lat="44.19658" lon="5.30821">
        <ele>554</ele>
        <time>2015-07-19T07:55:11Z</time>
      </trkpt>
      <trkpt lat="44.19715" lon="5.30756">
        <ele>553</ele>
        <time>2015-07-19T07:55:23Z</time>
      </trkpt>
      <trkpt lat="44.19733" lon="5.3069">
        <ele>546</ele>
        <time>2015-07-19T07:55:27Z</time>
      </trkpt>
      <trkpt lat="44.19702" lon="5.3032">
        <ele>511</ele>
        <time>2015-07-19T07:55:57Z</time>
      </trkpt>
      <trkpt lat="44.19709" lon="5.30175">
        <ele>502</ele>
        <time>2015-07-19T07:56:09Z</time>
      </trkpt>
      <trkpt lat="44.19704" lon="5.30173">
        <ele>501</ele>
        <time>2015-07-19T07:56:10Z</time>
      </trkpt>
      <trkpt lat="44.197" lon="5.30168">
        <ele>500</ele>
        <time>2015-07-19T07:56:12Z</time>
      </trkpt>
      <trkpt lat="44.19696" lon="5.30169">
        <ele>500</ele>
        <time>2015-07-19T07:56:14Z</time>
      </trkpt>
      <trkpt lat="44.19699" lon="5.30161">
        <ele>499</ele>
        <time>2015-07-19T07:56:19Z</time>
      </trkpt>
      <trkpt lat="44.19704" lon="5.30151">
        <ele>499</ele>
        <time>2015-07-19T07:56:20Z</time>
      </trkpt>
      <trkpt lat="44.19708" lon="5.30142">
        <ele>498</ele>
        <time>2015-07-19T07:56:21Z</time>
      </trkpt>
      <trkpt lat="44.1971" lon="5.30134">
        <ele>497</ele>
        <time>2015-07-19T07:56:23Z</time>
      </trkpt>
      <trkpt lat="44.19727" lon="5.30135">
        <ele>500</ele>
        <time>2015-07-19T07:56:29Z</time>
      </trkpt>
      <trkpt lat="44.19886" lon="5.30169">
        <ele>521</ele>
        <time>2015-07-19T07:56:58Z</time>
      </trkpt>
      <trkpt lat="44.199" lon="5.30151">
        <ele>521</ele>
        <time>2015-07-19T07:57:01Z</time>
      </trkpt>
      <trkpt lat="44.19911" lon="5.30125">
        <ele>520</ele>
        <time>2015-07-19T07:57:03Z</time>
      </trkpt>
      <trkpt lat="44.19934" lon="5.30053">
        <ele>516</ele>
        <time>2015-07-19T07:57:07Z</time>
      </trkpt>
      <trkpt lat="44.20013" lon="5.29767">
        <ele>440</ele>
        <time>2015-07-19T07:57:38Z</time>
      </trkpt>
      <trkpt lat="44.20027" lon="5.29732">
        <ele>437</ele>
        <time>2015-07-19T07:57:42Z</time>
      </trkpt>
      <trkpt lat="44.2007" lon="5.29523">
        <ele>430</ele>
        <time>2015-07-19T07:58:12Z</time>
      </trkpt>
      <trkpt lat="44.20107" lon="5.29396">
        <ele>427</ele>
        <time>2015-07-19T07:58:35Z</time>
      </trkpt>
      <trkpt lat="44.20143" lon="5.29321">
        <ele>429</ele>
        <time>2015-07-19T07:58:47Z</time>
      </trkpt>
      <trkpt lat="44.20146" lon="5.29314">
        <ele>429</ele>
        <time>2015-07-19T07:58:48Z</time>
      </trkpt>
      <trkpt lat="44.2015" lon="5.29304">
        <ele>429</ele>
        <time>2015-07-19T07:58:50Z</time>
      </trkpt>
      <trkpt lat="44.20156" lon="5.29288">
        <ele>429</ele>
        <time>2015-07-19T07:59:06Z</time>
      </trkpt>
      <trkpt lat="44.20148" lon="5.29288">
        <ele>426</ele>
        <time>2015-07-19T07:59:22Z</time>
      </trkpt>
      <trkpt lat="44.2015" lon="5.29281">
        <ele>426</ele>
        <time>2015-07-19T07:59:27Z</time>
      </trkpt>
      <trkpt lat="44.20157" lon="5.29264">
        <ele>425</ele>
        <time>2015-07-19T07:59:31Z</time>
      </trkpt>
      <trkpt lat="44.20161" lon="5.29259">
        <ele>424</ele>
        <time>2015-07-19T07:59:33Z</time>
      </trkpt>
      <trkpt lat="44.20165" lon="5.29252">
        <ele>424</ele>
        <time>2015-07-19T07:59:35Z</time>
      </trkpt>
      <trkpt lat="44.2019" lon="5.29219">
        <ele>427</ele>
        <time>2015-07-19T07:59:43Z</time>
      </trkpt>
      <trkpt lat="44.20194" lon="5.29214">
        <ele>427</ele>
        <time>2015-07-19T07:59:45Z</time>
      </trkpt>
      <trkpt lat="44.20205" lon="5.29203">
        <ele>428</ele>
        <time>2015-07-19T07:59:49Z</time>
      </trkpt>
      <trkpt lat="44.20213" lon="5.29197">
        <ele>427</ele>
        <time>2015-07-19T07:59:51Z</time>
      </trkpt>
      <trkpt lat="44.20234" lon="5.29185">
        <ele>427</ele>
        <time>2015-07-19T07:59:57Z</time>
      </trkpt>
      <trkpt lat="44.20301" lon="5.29134">
        <ele>445</ele>
        <time>2015-07-19T08:00:16Z</time>
      </trkpt>
      <trkpt lat="44.20306" lon="5.29123">
        <ele>444</ele>
        <time>2015-07-19T08:00:17Z</time>
      </trkpt>
      <trkpt lat="44.20362" lon="5.28913">
        <ele>436</ele>
        <time>2015-07-19T08:00:47Z</time>
      </trkpt>
      <trkpt lat="44.20441" lon="5.2871">
        <ele>440</ele>
        <time>2015-07-19T08:01:18Z</time>
      </trkpt>
      <trkpt lat="44.2045" lon="5.28695">
        <ele>441</ele>
        <time>2015-07-19T08:01:22Z</time>
      </trkpt>
      <trkpt lat="44.20455" lon="5.28687">
        <ele>441</ele>
        <time>2015-07-19T08:01:24Z</time>
      </trkpt>
      <trkpt lat="44.20556" lon="5.28491">
        <ele>426</ele>
        <time>2015-07-19T08:01:55Z</time>
      </trkpt>
      <trkpt lat="44.2057" lon="5.28466">
        <ele>426</ele>
        <time>2015-07-19T08:01:59Z</time>
      </trkpt>
      <trkpt lat="44.20621" lon="5.28434">
        <ele>421</ele>
        <time>2015-07-19T08:02:10Z</time>
      </trkpt>
      <trkpt lat="44.20635" lon="5.28432">
        <ele>420</ele>
        <time>2015-07-19T08:02:13Z</time>
      </trkpt>
      <trkpt lat="44.20644" lon="5.28429">
        <ele>420</ele>
        <time>2015-07-19T08:02:15Z</time>
      </trkpt>
      <trkpt lat="44.20661" lon="5.28411">
        <ele>420</ele>
        <time>2015-07-19T08:02:20Z</time>
      </trkpt>
      <trkpt lat="44.20734" lon="5.28207">
        <ele>424</ele>
        <time>2015-07-19T08:02:51Z</time>
      </trkpt>
      <trkpt lat="44.20821" lon="5.28024">
        <ele>426</ele>
        <time>2015-07-19T08:03:22Z</time>
      </trkpt>
      <trkpt lat="44.20839" lon="5.27986">
        <ele>426</ele>
        <time>2015-07-19T08:03:28Z</time>
      </trkpt>
      <trkpt lat="44.20849" lon="5.27958">
        <ele>425</ele>
        <time>2015-07-19T08:03:34Z</time>
      </trkpt>
      <trkpt lat="44.20853" lon="5.27951">
        <ele>425</ele>
        <time>2015-07-19T08:03:36Z</time>
      </trkpt>
      <trkpt lat="44.20858" lon="5.27945">
        <ele>425</ele>
        <time>2015-07-19T08:03:38Z</time>
      </trkpt>
      <trkpt lat="44.20874" lon="5.27914">
        <ele>425</ele>
        <time>2015-07-19T08:03:44Z</time>
      </trkpt>
      <trkpt lat="44.20887" lon="5.2789">
        <ele>427</ele>
        <time>2015-07-19T08:03:50Z</time>
      </trkpt>
      <trkpt lat="44.20891" lon="5.27846">
        <ele>426</ele>
        <time>2015-07-19T08:03:56Z</time>
      </trkpt>
      <trkpt lat="44.20891" lon="5.27827">
        <ele>424</ele>
        <time>2015-07-19T08:04:03Z</time>
      </trkpt>
      <trkpt lat="44.20887" lon="5.27822">
        <ele>416</ele>
        <time>2015-07-19T08:04:23Z</time>
      </trkpt>
      <trkpt lat="44.20877" lon="5.27819">
        <ele>411</ele>
        <time>2015-07-19T08:04:35Z</time>
      </trkpt>
      <trkpt lat="44.20871" lon="5.27824">
        <ele>408</ele>
        <time>2015-07-19T08:05:10Z</time>
      </trkpt>
      <trkpt lat="44.20868" lon="5.27827">
        <ele>417</ele>
        <time>2015-07-19T08:06:27Z</time>
      </trkpt>
      <trkpt lat="44.20867" lon="5.27819">
        <ele>409</ele>
        <time>2015-07-19T08:06:56Z</time>
      </trkpt>
      <trkpt lat="44.2087" lon="5.27821">
        <ele>409</ele>
        <time>2015-07-19T08:08:42Z</time>
      </trkpt>
      <trkpt lat="44.20874" lon="5.27823">
        <ele>409</ele>
        <time>2015-07-19T08:09:05Z</time>
      </trkpt>
      <trkpt lat="44.20873" lon="5.27816">
        <ele>407</ele>
        <time>2015-07-19T08:09:59Z</time>
      </trkpt>
      <trkpt lat="44.20867" lon="5.27823">
        <ele>406</ele>
        <time>2015-07-19T08:11:12Z</time>
      </trkpt>
      <trkpt lat="44.20865" lon="5.27822">
        <ele>407</ele>
        <time>2015-07-19T08:11:39Z</time>
      </trkpt>
      <trkpt lat="44.20871" lon="5.27833">
        <ele>406</ele>
        <time>2015-07-19T08:12:58Z</time>
      </trkpt>
      <trkpt lat="44.20884" lon="5.2784">
        <ele>400</ele>
        <time>2015-07-19T08:13:37Z</time>
      </trkpt>
      <trkpt lat="44.20877" lon="5.27833">
        <ele>397</ele>
        <time>2015-07-19T08:22:12Z</time>
      </trkpt>
      <trkpt lat="44.20868" lon="5.27825">
        <ele>400</ele>
        <time>2015-07-19T08:23:31Z</time>
      </trkpt>
      <trkpt lat="44.20875" lon="5.27817">
        <ele>414</ele>
        <time>2015-07-19T08:24:12Z</time>
      </trkpt>
      <trkpt lat="44.20872" lon="5.27813">
        <ele>413</ele>
        <time>2015-07-19T08:28:39Z</time>
      </trkpt>
      <trkpt lat="44.2088" lon="5.27819">
        <ele>410</ele>
        <time>2015-07-19T08:29:55Z</time>
      </trkpt>
      <trkpt lat="44.20891" lon="5.27795">
        <ele>409</ele>
        <time>2015-07-19T08:30:01Z</time>
      </trkpt>
      <trkpt lat="44.20905" lon="5.27782">
        <ele>409</ele>
        <time>2015-07-19T08:30:04Z</time>
      </trkpt>
      <trkpt lat="44.20933" lon="5.2776">
        <ele>407</ele>
        <time>2015-07-19T08:30:09Z</time>
      </trkpt>
      <trkpt lat="44.20939" lon="5.27751">
        <ele>408</ele>
        <time>2015-07-19T08:30:10Z</time>
      </trkpt>
      <trkpt lat="44.20956" lon="5.27729">
        <ele>410</ele>
        <time>2015-07-19T08:30:14Z</time>
      </trkpt>
      <trkpt lat="44.20959" lon="5.27723">
        <ele>410</ele>
        <time>2015-07-19T08:30:15Z</time>
      </trkpt>
      <trkpt lat="44.20974" lon="5.27694">
        <ele>407</ele>
        <time>2015-07-19T08:30:18Z</time>
      </trkpt>
      <trkpt lat="44.20976" lon="5.27688">
        <ele>406</ele>
        <time>2015-07-19T08:30:19Z</time>
      </trkpt>
      <trkpt lat="44.20972" lon="5.27677">
        <ele>406</ele>
        <time>2015-07-19T08:30:21Z</time>
      </trkpt>
      <trkpt lat="44.20964" lon="5.27663">
        <ele>404</ele>
        <time>2015-07-19T08:30:24Z</time>
      </trkpt>
      <trkpt lat="44.20953" lon="5.27646">
        <ele>403</ele>
        <time>2015-07-19T08:30:28Z</time>
      </trkpt>
      <trkpt lat="44.20949" lon="5.27639">
        <ele>403</ele>
        <time>2015-07-19T08:30:31Z</time>
      </trkpt>
      <trkpt lat="44.20948" lon="5.27632">
        <ele>404</ele>
        <time>2015-07-19T08:30:34Z</time>
      </trkpt>
      <trkpt lat="44.20939" lon="5.2762">
        <ele>402</ele>
        <time>2015-07-19T08:31:05Z</time>
      </trkpt>
      <trkpt lat="44.20936" lon="5.27595">
        <ele>406</ele>
        <time>2015-07-19T08:31:22Z</time>
      </trkpt>
      <trkpt lat="44.20937" lon="5.27582">
        <ele>407</ele>
        <time>2015-07-19T08:31:28Z</time>
      </trkpt>
      <trkpt lat="44.20942" lon="5.27571">
        <ele>407</ele>
        <time>2015-07-19T08:31:35Z</time>
      </trkpt>
      <trkpt lat="44.20945" lon="5.27526">
        <ele>404</ele>
        <time>2015-07-19T08:32:10Z</time>
      </trkpt>
      <trkpt lat="44.20949" lon="5.27514">
        <ele>405</ele>
        <time>2015-07-19T08:32:22Z</time>
      </trkpt>
      <trkpt lat="44.20949" lon="5.27502">
        <ele>405</ele>
        <time>2015-07-19T08:32:33Z</time>
      </trkpt>
      <trkpt lat="44.20943" lon="5.2749">
        <ele>402</ele>
        <time>2015-07-19T08:32:48Z</time>
      </trkpt>
      <trkpt lat="44.2094" lon="5.27476">
        <ele>402</ele>
        <time>2015-07-19T08:33:00Z</time>
      </trkpt>
      <trkpt lat="44.2094" lon="5.27463">
        <ele>402</ele>
        <time>2015-07-19T08:33:05Z</time>
      </trkpt>
      <trkpt lat="44.20943" lon="5.2745">
        <ele>402</ele>
        <time>2015-07-19T08:33:13Z</time>
      </trkpt>
      <trkpt lat="44.20942" lon="5.27435">
        <ele>403</ele>
        <time>2015-07-19T08:33:20Z</time>
      </trkpt>
      <trkpt lat="44.20946" lon="5.27405">
        <ele>409</ele>
        <time>2015-07-19T08:33:35Z</time>
      </trkpt>
      <trkpt lat="44.20938" lon="5.2738">
        <ele>413</ele>
        <time>2015-07-19T08:33:47Z</time>
      </trkpt>
      <trkpt lat="44.20939" lon="5.27366">
        <ele>416</ele>
        <time>2015-07-19T08:33:54Z</time>
      </trkpt>
      <trkpt lat="44.20935" lon="5.27353">
        <ele>417</ele>
        <time>2015-07-19T08:33:59Z</time>
      </trkpt>
      <trkpt lat="44.20937" lon="5.27339">
        <ele>417</ele>
        <time>2015-07-19T08:34:04Z</time>
      </trkpt>
      <trkpt lat="44.20931" lon="5.27308">
        <ele>418</ele>
        <time>2015-07-19T08:34:13Z</time>
      </trkpt>
      <trkpt lat="44.20934" lon="5.27294">
        <ele>419</ele>
        <time>2015-07-19T08:34:17Z</time>
      </trkpt>
      <trkpt lat="44.20943" lon="5.27282">
        <ele>420</ele>
        <time>2015-07-19T08:34:20Z</time>
      </trkpt>
      <trkpt lat="44.20946" lon="5.27276">
        <ele>420</ele>
        <time>2015-07-19T08:34:21Z</time>
      </trkpt>
      <trkpt lat="44.20947" lon="5.2726">
        <ele>422</ele>
        <time>2015-07-19T08:34:25Z</time>
      </trkpt>
      <trkpt lat="44.20941" lon="5.27248">
        <ele>422</ele>
        <time>2015-07-19T08:34:32Z</time>
      </trkpt>
      <trkpt lat="44.20933" lon="5.27239">
        <ele>426</ele>
        <time>2015-07-19T08:34:38Z</time>
      </trkpt>
      <trkpt lat="44.20933" lon="5.27224">
        <ele>426</ele>
        <time>2015-07-19T08:34:42Z</time>
      </trkpt>
      <trkpt lat="44.20937" lon="5.27197">
        <ele>427</ele>
        <time>2015-07-19T08:34:51Z</time>
      </trkpt>
      <trkpt lat="44.20938" lon="5.27184">
        <ele>426</ele>
        <time>2015-07-19T08:34:55Z</time>
      </trkpt>
      <trkpt lat="44.2094" lon="5.27169">
        <ele>427</ele>
        <time>2015-07-19T08:35:03Z</time>
      </trkpt>
      <trkpt lat="44.20941" lon="5.27155">
        <ele>428</ele>
        <time>2015-07-19T08:35:09Z</time>
      </trkpt>
      <trkpt lat="44.20949" lon="5.27143">
        <ele>427</ele>
        <time>2015-07-19T08:35:12Z</time>
      </trkpt>
      <trkpt lat="44.20961" lon="5.27123">
        <ele>424</ele>
        <time>2015-07-19T08:35:19Z</time>
      </trkpt>
      <trkpt lat="44.20967" lon="5.27056">
        <ele>428</ele>
        <time>2015-07-19T08:35:48Z</time>
      </trkpt>
      <trkpt lat="44.20967" lon="5.27049">
        <ele>427</ele>
        <time>2015-07-19T08:35:51Z</time>
      </trkpt>
      <trkpt lat="44.2097" lon="5.27041">
        <ele>427</ele>
        <time>2015-07-19T08:35:56Z</time>
      </trkpt>
      <trkpt lat="44.20973" lon="5.27028">
        <ele>428</ele>
        <time>2015-07-19T08:36:03Z</time>
      </trkpt>
      <trkpt lat="44.20974" lon="5.27021">
        <ele>429</ele>
        <time>2015-07-19T08:36:07Z</time>
      </trkpt>
      <trkpt lat="44.20974" lon="5.27013">
        <ele>428</ele>
        <time>2015-07-19T08:36:12Z</time>
      </trkpt>
      <trkpt lat="44.20977" lon="5.27006">
        <ele>428</ele>
        <time>2015-07-19T08:36:15Z</time>
      </trkpt>
      <trkpt lat="44.20982" lon="5.26958">
        <ele>434</ele>
        <time>2015-07-19T08:36:46Z</time>
      </trkpt>
      <trkpt lat="44.20979" lon="5.26946">
        <ele>436</ele>
        <time>2015-07-19T08:36:56Z</time>
      </trkpt>
      <trkpt lat="44.20976" lon="5.26938">
        <ele>434</ele>
        <time>2015-07-19T08:37:49Z</time>
      </trkpt>
      <trkpt lat="44.20974" lon="5.26921">
        <ele>434</ele>
        <time>2015-07-19T08:38:26Z</time>
      </trkpt>
      <trkpt lat="44.20978" lon="5.26868">
        <ele>443</ele>
        <time>2015-07-19T08:39:03Z</time>
      </trkpt>
      <trkpt lat="44.20982" lon="5.26853">
        <ele>445</ele>
        <time>2015-07-19T08:39:11Z</time>
      </trkpt>
      <trkpt lat="44.20984" lon="5.26843">
        <ele>446</ele>
        <time>2015-07-19T08:39:16Z</time>
      </trkpt>
      <trkpt lat="44.20985" lon="5.26836">
        <ele>446</ele>
        <time>2015-07-19T08:39:19Z</time>
      </trkpt>
      <trkpt lat="44.20985" lon="5.2683">
        <ele>446</ele>
        <time>2015-07-19T08:39:24Z</time>
      </trkpt>
      <trkpt lat="44.20986" lon="5.26822">
        <ele>447</ele>
        <time>2015-07-19T08:39:30Z</time>
      </trkpt>
      <trkpt lat="44.2099" lon="5.26807">
        <ele>447</ele>
        <time>2015-07-19T08:39:38Z</time>
      </trkpt>
      <trkpt lat="44.20993" lon="5.26787">
        <ele>451</ele>
        <time>2015-07-19T08:39:57Z</time>
      </trkpt>
      <trkpt lat="44.20984" lon="5.26779">
        <ele>449</ele>
        <time>2015-07-19T08:40:20Z</time>
      </trkpt>
      <trkpt lat="44.20979" lon="5.26768">
        <ele>449</ele>
        <time>2015-07-19T08:40:35Z</time>
      </trkpt>
      <trkpt lat="44.20975" lon="5.26757">
        <ele>450</ele>
        <time>2015-07-19T08:40:43Z</time>
      </trkpt>
      <trkpt lat="44.20973" lon="5.26731">
        <ele>456</ele>
        <time>2015-07-19T08:41:00Z</time>
      </trkpt>
      <trkpt lat="44.20975" lon="5.26718">
        <ele>457</ele>
        <time>2015-07-19T08:41:04Z</time>
      </trkpt>
      <trkpt lat="44.20972" lon="5.26705">
        <ele>458</ele>
        <time>2015-07-19T08:41:10Z</time>
      </trkpt>
      <trkpt lat="44.20969" lon="5.26692">
        <ele>457</ele>
        <time>2015-07-19T08:41:23Z</time>
      </trkpt>
      <trkpt lat="44.20954" lon="5.26671">
        <ele>463</ele>
        <time>2015-07-19T08:41:42Z</time>
      </trkpt>
      <trkpt lat="44.20946" lon="5.26664">
        <ele>463</ele>
        <time>2015-07-19T08:41:49Z</time>
      </trkpt>
      <trkpt lat="44.20937" lon="5.26657">
        <ele>465</ele>
        <time>2015-07-19T08:41:58Z</time>
      </trkpt>
      <trkpt lat="44.2093" lon="5.2665">
        <ele>464</ele>
        <time>2015-07-19T08:42:03Z</time>
      </trkpt>
      <trkpt lat="44.20905" lon="5.26624">
        <ele>469</ele>
        <time>2015-07-19T08:42:34Z</time>
      </trkpt>
      <trkpt lat="44.20889" lon="5.26607">
        <ele>467</ele>
        <time>2015-07-19T08:42:50Z</time>
      </trkpt>
      <trkpt lat="44.20879" lon="5.26593">
        <ele>474</ele>
        <time>2015-07-19T08:43:28Z</time>
      </trkpt>
      <trkpt lat="44.20849" lon="5.26582">
        <ele>479</ele>
        <time>2015-07-19T08:43:52Z</time>
      </trkpt>
      <trkpt lat="44.20844" lon="5.26582">
        <ele>479</ele>
        <time>2015-07-19T08:44:05Z</time>
      </trkpt>
      <trkpt lat="44.20827" lon="5.26596">
        <ele>465</ele>
        <time>2015-07-19T08:44:46Z</time>
      </trkpt>
      <trkpt lat="44.20817" lon="5.26594">
        <ele>461</ele>
        <time>2015-07-19T08:44:58Z</time>
      </trkpt>
      <trkpt lat="44.20799" lon="5.26582">
        <ele>456</ele>
        <time>2015-07-19T08:45:10Z</time>
      </trkpt>
      <trkpt lat="44.20789" lon="5.26577">
        <ele>456</ele>
        <time>2015-07-19T08:45:18Z</time>
      </trkpt>
      <trkpt lat="44.20781" lon="5.26572">
        <ele>458</ele>
        <time>2015-07-19T08:45:29Z</time>
      </trkpt>
      <trkpt lat="44.20779" lon="5.26559">
        <ele>466</ele>
        <time>2015-07-19T08:45:37Z</time>
      </trkpt>
      <trkpt lat="44.20779" lon="5.26543">
        <ele>473</ele>
        <time>2015-07-19T08:45:43Z</time>
      </trkpt>
      <trkpt lat="44.20784" lon="5.26531">
        <ele>481</ele>
        <time>2015-07-19T08:45:52Z</time>
      </trkpt>
      <trkpt lat="44.20788" lon="5.26491">
        <ele>490</ele>
        <time>2015-07-19T08:46:11Z</time>
      </trkpt>
      <trkpt lat="44.20781" lon="5.2648">
        <ele>491</ele>
        <time>2015-07-19T08:46:18Z</time>
      </trkpt>
      <trkpt lat="44.20767" lon="5.2646">
        <ele>495</ele>
        <time>2015-07-19T08:46:35Z</time>
      </trkpt>
      <trkpt lat="44.20747" lon="5.2645">
        <ele>500</ele>
        <time>2015-07-19T08:46:54Z</time>
      </trkpt>
      <trkpt lat="44.20738" lon="5.26447">
        <ele>499</ele>
        <time>2015-07-19T08:47:03Z</time>
      </trkpt>
      <trkpt lat="44.20711" lon="5.26429">
        <ele>503</ele>
        <time>2015-07-19T08:47:24Z</time>
      </trkpt>
      <trkpt lat="44.20704" lon="5.26424">
        <ele>507</ele>
        <time>2015-07-19T08:47:42Z</time>
      </trkpt>
      <trkpt lat="44.20694" lon="5.26428">
        <ele>501</ele>
        <time>2015-07-19T08:47:56Z</time>
      </trkpt>
      <trkpt lat="44.20686" lon="5.26423">
        <ele>500</ele>
        <time>2015-07-19T08:48:03Z</time>
      </trkpt>
      <trkpt lat="44.20676" lon="5.26401">
        <ele>504</ele>
        <time>2015-07-19T08:48:18Z</time>
      </trkpt>
      <trkpt lat="44.20674" lon="5.26388">
        <ele>505</ele>
        <time>2015-07-19T08:48:25Z</time>
      </trkpt>
      <trkpt lat="44.20671" lon="5.26371">
        <ele>505</ele>
        <time>2015-07-19T08:48:40Z</time>
      </trkpt>
      <trkpt lat="44.20661" lon="5.26335">
        <ele>511</ele>
        <time>2015-07-19T08:49:05Z</time>
      </trkpt>
      <trkpt lat="44.20648" lon="5.26315">
        <ele>510</ele>
        <time>2015-07-19T08:49:20Z</time>
      </trkpt>
      <trkpt lat="44.2064" lon="5.26294">
        <ele>517</ele>
        <time>2015-07-19T08:49:54Z</time>
      </trkpt>
      <trkpt lat="44.20635" lon="5.26279">
        <ele>515</ele>
        <time>2015-07-19T08:50:15Z</time>
      </trkpt>
      <trkpt lat="44.20624" lon="5.26257">
        <ele>523</ele>
        <time>2015-07-19T08:50:35Z</time>
      </trkpt>
      <trkpt lat="44.20621" lon="5.26231">
        <ele>525</ele>
        <time>2015-07-19T08:50:51Z</time>
      </trkpt>
      <trkpt lat="44.20624" lon="5.26217">
        <ele>527</ele>
        <time>2015-07-19T08:50:59Z</time>
      </trkpt>
      <trkpt lat="44.2062" lon="5.26202">
        <ele>523</ele>
        <time>2015-07-19T08:51:13Z</time>
      </trkpt>
      <trkpt lat="44.20612" lon="5.26178">
        <ele>526</ele>
        <time>2015-07-19T08:51:29Z</time>
      </trkpt>
      <trkpt lat="44.20604" lon="5.2617">
        <ele>526</ele>
        <time>2015-07-19T08:51:38Z</time>
      </trkpt>
      <trkpt lat="44.20589" lon="5.26156">
        <ele>534</ele>
        <time>2015-07-19T08:51:54Z</time>
      </trkpt>
      <trkpt lat="44.20557" lon="5.26146">
        <ele>565</ele>
        <time>2015-07-19T08:52:24Z</time>
      </trkpt>
      <trkpt lat="44.2055" lon="5.26155">
        <ele>565</ele>
        <time>2015-07-19T08:52:38Z</time>
      </trkpt>
      <trkpt lat="44.2055" lon="5.2615">
        <ele>567</ele>
        <time>2015-07-19T08:53:16Z</time>
      </trkpt>
      <trkpt lat="44.20555" lon="5.26139">
        <ele>567</ele>
        <time>2015-07-19T08:53:28Z</time>
      </trkpt>
      <trkpt lat="44.2056" lon="5.26128">
        <ele>569</ele>
        <time>2015-07-19T08:53:37Z</time>
      </trkpt>
      <trkpt lat="44.20566" lon="5.26117">
        <ele>568</ele>
        <time>2015-07-19T08:53:44Z</time>
      </trkpt>
      <trkpt lat="44.20567" lon="5.26103">
        <ele>567</ele>
        <time>2015-07-19T08:53:49Z</time>
      </trkpt>
      <trkpt lat="44.20563" lon="5.26077">
        <ele>560</ele>
        <time>2015-07-19T08:53:59Z</time>
      </trkpt>
      <trkpt lat="44.2056" lon="5.26063">
        <ele>560</ele>
        <time>2015-07-19T08:54:05Z</time>
      </trkpt>
      <trkpt lat="44.20557" lon="5.26049">
        <ele>554</ele>
        <time>2015-07-19T08:54:12Z</time>
      </trkpt>
      <trkpt lat="44.20528" lon="5.26013">
        <ele>539</ele>
        <time>2015-07-19T08:54:32Z</time>
      </trkpt>
      <trkpt lat="44.20516" lon="5.25981">
        <ele>558</ele>
        <time>2015-07-19T08:55:06Z</time>
      </trkpt>
      <trkpt lat="44.20509" lon="5.25973">
        <ele>557</ele>
        <time>2015-07-19T08:55:11Z</time>
      </trkpt>
      <trkpt lat="44.20491" lon="5.25961">
        <ele>562</ele>
        <time>2015-07-19T08:55:28Z</time>
      </trkpt>
      <trkpt lat="44.20484" lon="5.25953">
        <ele>562</ele>
        <time>2015-07-19T08:55:37Z</time>
      </trkpt>
      <trkpt lat="44.20468" lon="5.25942">
        <ele>581</ele>
        <time>2015-07-19T08:56:03Z</time>
      </trkpt>
      <trkpt lat="44.20459" lon="5.25942">
        <ele>577</ele>
        <time>2015-07-19T08:56:15Z</time>
      </trkpt>
      <trkpt lat="44.20449" lon="5.25939">
        <ele>578</ele>
        <time>2015-07-19T08:56:29Z</time>
      </trkpt>
      <trkpt lat="44.20425" lon="5.25937">
        <ele>601</ele>
        <time>2015-07-19T08:57:15Z</time>
      </trkpt>
      <trkpt lat="44.20417" lon="5.25931">
        <ele>606</ele>
        <time>2015-07-19T08:57:24Z</time>
      </trkpt>
      <trkpt lat="44.20406" lon="5.25919">
        <ele>608</ele>
        <time>2015-07-19T08:57:35Z</time>
      </trkpt>
      <trkpt lat="44.20394" lon="5.25919">
        <ele>611</ele>
        <time>2015-07-19T08:57:56Z</time>
      </trkpt>
      <trkpt lat="44.20392" lon="5.25937">
        <ele>604</ele>
        <time>2015-07-19T08:58:10Z</time>
      </trkpt>
      <trkpt lat="44.20388" lon="5.25957">
        <ele>572</ele>
        <time>2015-07-19T08:58:28Z</time>
      </trkpt>
      <trkpt lat="44.20398" lon="5.25954">
        <ele>551</ele>
        <time>2015-07-19T08:58:52Z</time>
      </trkpt>
      <trkpt lat="44.20417" lon="5.25932">
        <ele>529</ele>
        <time>2015-07-19T08:59:35Z</time>
      </trkpt>
      <trkpt lat="44.2042" lon="5.25911">
        <ele>521</ele>
        <time>2015-07-19T08:59:57Z</time>
      </trkpt>
      <trkpt lat="44.2042" lon="5.25899">
        <ele>524</ele>
        <time>2015-07-19T09:00:00Z</time>
      </trkpt>
      <trkpt lat="44.20427" lon="5.25885">
        <ele>531</ele>
        <time>2015-07-19T09:00:07Z</time>
      </trkpt>
      <trkpt lat="44.20423" lon="5.25872">
        <ele>547</ele>
        <time>2015-07-19T09:00:13Z</time>
      </trkpt>
      <trkpt lat="44.20405" lon="5.25825">
        <ele>567</ele>
        <time>2015-07-19T09:00:30Z</time>
      </trkpt>
      <trkpt lat="44.20396" lon="5.25816">
        <ele>564</ele>
        <time>2015-07-19T09:00:38Z</time>
      </trkpt>
      <trkpt lat="44.20389" lon="5.25806">
        <ele>565</ele>
        <time>2015-07-19T09:00:46Z</time>
      </trkpt>
      <trkpt lat="44.20382" lon="5.25796">
        <ele>573</ele>
        <time>2015-07-19T09:00:59Z</time>
      </trkpt>
      <trkpt lat="44.20377" lon="5.25753">
        <ele>595</ele>
        <time>2015-07-19T09:01:35Z</time>
      </trkpt>
      <trkpt lat="44.20379" lon="5.25741">
        <ele>601</ele>
        <time>2015-07-19T09:01:51Z</time>
      </trkpt>
      <trkpt lat="44.20375" lon="5.25728">
        <ele>605</ele>
        <time>2015-07-19T09:02:00Z</time>
      </trkpt>
      <trkpt lat="44.20371" lon="5.25716">
        <ele>606</ele>
        <time>2015-07-19T09:02:04Z</time>
      </trkpt>
      <trkpt lat="44.2037" lon="5.25704">
        <ele>605</ele>
        <time>2015-07-19T09:02:18Z</time>
      </trkpt>
      <trkpt lat="44.20371" lon="5.2569">
        <ele>609</ele>
        <time>2015-07-19T09:02:34Z</time>
      </trkpt>
      <trkpt lat="44.20372" lon="5.25676">
        <ele>608</ele>
        <time>2015-07-19T09:02:42Z</time>
      </trkpt>
      <trkpt lat="44.20371" lon="5.2562">
        <ele>624</ele>
        <time>2015-07-19T09:03:22Z</time>
      </trkpt>
      <trkpt lat="44.20369" lon="5.25608">
        <ele>624</ele>
        <time>2015-07-19T09:03:30Z</time>
      </trkpt>
      <trkpt lat="44.20362" lon="5.25596">
        <ele>622</ele>
        <time>2015-07-19T09:03:37Z</time>
      </trkpt>
      <trkpt lat="44.20351" lon="5.2559">
        <ele>620</ele>
        <time>2015-07-19T09:03:44Z</time>
      </trkpt>
      <trkpt lat="44.20343" lon="5.25581">
        <ele>620</ele>
        <time>2015-07-19T09:03:50Z</time>
      </trkpt>
      <trkpt lat="44.20334" lon="5.25586">
        <ele>623</ele>
        <time>2015-07-19T09:03:56Z</time>
      </trkpt>
      <trkpt lat="44.20327" lon="5.25597">
        <ele>627</ele>
        <time>2015-07-19T09:04:01Z</time>
      </trkpt>
      <trkpt lat="44.20318" lon="5.25603">
        <ele>630</ele>
        <time>2015-07-19T09:04:07Z</time>
      </trkpt>
      <trkpt lat="44.20315" lon="5.25615">
        <ele>629</ele>
        <time>2015-07-19T09:04:13Z</time>
      </trkpt>
      <trkpt lat="44.2031" lon="5.25641">
        <ele>621</ele>
        <time>2015-07-19T09:04:35Z</time>
      </trkpt>
      <trkpt lat="44.20299" lon="5.25664">
        <ele>623</ele>
        <time>2015-07-19T09:04:55Z</time>
      </trkpt>
      <trkpt lat="44.20286" lon="5.25683">
        <ele>628</ele>
        <time>2015-07-19T09:05:18Z</time>
      </trkpt>
      <trkpt lat="44.20291" lon="5.25674">
        <ele>630</ele>
        <time>2015-07-19T09:05:37Z</time>
      </trkpt>
      <trkpt lat="44.20296" lon="5.25619">
        <ele>636</ele>
        <time>2015-07-19T09:06:10Z</time>
      </trkpt>
      <trkpt lat="44.20297" lon="5.25606">
        <ele>638</ele>
        <time>2015-07-19T09:06:17Z</time>
      </trkpt>
      <trkpt lat="44.20293" lon="5.25593">
        <ele>642</ele>
        <time>2015-07-19T09:06:27Z</time>
      </trkpt>
      <trkpt lat="44.20291" lon="5.25581">
        <ele>643</ele>
        <time>2015-07-19T09:06:33Z</time>
      </trkpt>
      <trkpt lat="44.20287" lon="5.25569">
        <ele>641</ele>
        <time>2015-07-19T09:06:41Z</time>
      </trkpt>
      <trkpt lat="44.20276" lon="5.25534">
        <ele>647</ele>
        <time>2015-07-19T09:07:06Z</time>
      </trkpt>
      <trkpt lat="44.20277" lon="5.2552">
        <ele>650</ele>
        <time>2015-07-19T09:07:13Z</time>
      </trkpt>
      <trkpt lat="44.20276" lon="5.25495">
        <ele>649</ele>
        <time>2015-07-19T09:07:32Z</time>
      </trkpt>
      <trkpt lat="44.20276" lon="5.25442">
        <ele>655</ele>
        <time>2015-07-19T09:08:02Z</time>
      </trkpt>
      <trkpt lat="44.20278" lon="5.25419">
        <ele>659</ele>
        <time>2015-07-19T09:08:28Z</time>
      </trkpt>
      <trkpt lat="44.20282" lon="5.25406">
        <ele>657</ele>
        <time>2015-07-19T09:08:43Z</time>
      </trkpt>
      <trkpt lat="44.20276" lon="5.25392">
        <ele>655</ele>
        <time>2015-07-19T09:09:08Z</time>
      </trkpt>
      <trkpt lat="44.20272" lon="5.2538">
        <ele>657</ele>
        <time>2015-07-19T09:09:17Z</time>
      </trkpt>
      <trkpt lat="44.20258" lon="5.25344">
        <ele>655</ele>
        <time>2015-07-19T09:09:41Z</time>
      </trkpt>
      <trkpt lat="44.20258" lon="5.25331">
        <ele>657</ele>
        <time>2015-07-19T09:09:50Z</time>
      </trkpt>
      <trkpt lat="44.20248" lon="5.25313">
        <ele>667</ele>
        <time>2015-07-19T09:10:22Z</time>
      </trkpt>
      <trkpt lat="44.20243" lon="5.25289">
        <ele>670</ele>
        <time>2015-07-19T09:10:41Z</time>
      </trkpt>
      <trkpt lat="44.20228" lon="5.25269">
        <ele>671</ele>
        <time>2015-07-19T09:11:12Z</time>
      </trkpt>
      <trkpt lat="44.20234" lon="5.2526">
        <ele>672</ele>
        <time>2015-07-19T09:11:25Z</time>
      </trkpt>
      <trkpt lat="44.2024" lon="5.25249">
        <ele>672</ele>
        <time>2015-07-19T09:11:37Z</time>
      </trkpt>
      <trkpt lat="44.20247" lon="5.25241">
        <ele>672</ele>
        <time>2015-07-19T09:11:49Z</time>
      </trkpt>
      <trkpt lat="44.20258" lon="5.25224">
        <ele>669</ele>
        <time>2015-07-19T09:12:17Z</time>
      </trkpt>
      <trkpt lat="44.20257" lon="5.25232">
        <ele>678</ele>
        <time>2015-07-19T09:12:50Z</time>
      </trkpt>
      <trkpt lat="44.20269" lon="5.25219">
        <ele>679</ele>
        <time>2015-07-19T09:13:14Z</time>
      </trkpt>
      <trkpt lat="44.20277" lon="5.25211">
        <ele>677</ele>
        <time>2015-07-19T09:13:21Z</time>
      </trkpt>
      <trkpt lat="44.20279" lon="5.25199">
        <ele>677</ele>
        <time>2015-07-19T09:13:30Z</time>
      </trkpt>
      <trkpt lat="44.20283" lon="5.25175">
        <ele>684</ele>
        <time>2015-07-19T09:14:15Z</time>
      </trkpt>
      <trkpt lat="44.20285" lon="5.25162">
        <ele>684</ele>
        <time>2015-07-19T09:14:21Z</time>
      </trkpt>
      <trkpt lat="44.20281" lon="5.25149">
        <ele>684</ele>
        <time>2015-07-19T09:14:30Z</time>
      </trkpt>
      <trkpt lat="44.20281" lon="5.25134">
        <ele>685</ele>
        <time>2015-07-19T09:14:39Z</time>
      </trkpt>
      <trkpt lat="44.20277" lon="5.25122">
        <ele>684</ele>
        <time>2015-07-19T09:14:48Z</time>
      </trkpt>
      <trkpt lat="44.20276" lon="5.25109">
        <ele>686</ele>
        <time>2015-07-19T09:15:02Z</time>
      </trkpt>
      <trkpt lat="44.20269" lon="5.25083">
        <ele>688</ele>
        <time>2015-07-19T09:15:12Z</time>
      </trkpt>
      <trkpt lat="44.20262" lon="5.25059">
        <ele>676</ele>
        <time>2015-07-19T09:15:29Z</time>
      </trkpt>
      <trkpt lat="44.20247" lon="5.25044">
        <ele>682</ele>
        <time>2015-07-19T09:15:52Z</time>
      </trkpt>
      <trkpt lat="44.20231" lon="5.25028">
        <ele>690</ele>
        <time>2015-07-19T09:16:15Z</time>
      </trkpt>
      <trkpt lat="44.20225" lon="5.25018">
        <ele>690</ele>
        <time>2015-07-19T09:16:21Z</time>
      </trkpt>
      <trkpt lat="44.20217" lon="5.2501">
        <ele>693</ele>
        <time>2015-07-19T09:16:30Z</time>
      </trkpt>
      <trkpt lat="44.20206" lon="5.24989">
        <ele>691</ele>
        <time>2015-07-19T09:16:45Z</time>
      </trkpt>
      <trkpt lat="44.20204" lon="5.24973">
        <ele>689</ele>
        <time>2015-07-19T09:16:56Z</time>
      </trkpt>
      <trkpt lat="44.20202" lon="5.24934">
        <ele>704</ele>
        <time>2015-07-19T09:17:36Z</time>
      </trkpt>
      <trkpt lat="44.20199" lon="5.24922">
        <ele>708</ele>
        <time>2015-07-19T09:17:47Z</time>
      </trkpt>
      <trkpt lat="44.20203" lon="5.2491">
        <ele>712</ele>
        <time>2015-07-19T09:17:58Z</time>
      </trkpt>
      <trkpt lat="44.20202" lon="5.24884">
        <ele>717</ele>
        <time>2015-07-19T09:18:14Z</time>
      </trkpt>
      <trkpt lat="44.20203" lon="5.24857">
        <ele>716</ele>
        <time>2015-07-19T09:18:27Z</time>
      </trkpt>
      <trkpt lat="44.20198" lon="5.24845">
        <ele>715</ele>
        <time>2015-07-19T09:18:31Z</time>
      </trkpt>
      <trkpt lat="44.2019" lon="5.2484">
        <ele>710</ele>
        <time>2015-07-19T09:18:46Z</time>
      </trkpt>
      <trkpt lat="44.20185" lon="5.24845">
        <ele>710</ele>
        <time>2015-07-19T09:19:01Z</time>
      </trkpt>
      <trkpt lat="44.20177" lon="5.24842">
        <ele>709</ele>
        <time>2015-07-19T09:19:29Z</time>
      </trkpt>
      <trkpt lat="44.20176" lon="5.24852">
        <ele>689</ele>
        <time>2015-07-19T09:19:56Z</time>
      </trkpt>
      <trkpt lat="44.20169" lon="5.2486">
        <ele>689</ele>
        <time>2015-07-19T09:20:06Z</time>
      </trkpt>
      <trkpt lat="44.20151" lon="5.24877">
        <ele>699</ele>
        <time>2015-07-19T09:20:24Z</time>
      </trkpt>
      <trkpt lat="44.20141" lon="5.24878">
        <ele>705</ele>
        <time>2015-07-19T09:20:32Z</time>
      </trkpt>
      <trkpt lat="44.20131" lon="5.24876">
        <ele>710</ele>
        <time>2015-07-19T09:20:50Z</time>
      </trkpt>
      <trkpt lat="44.20121" lon="5.24881">
        <ele>715</ele>
        <time>2015-07-19T09:21:05Z</time>
      </trkpt>
      <trkpt lat="44.20116" lon="5.24893">
        <ele>719</ele>
        <time>2015-07-19T09:21:15Z</time>
      </trkpt>
      <trkpt lat="44.2012" lon="5.24905">
        <ele>719</ele>
        <time>2015-07-19T09:21:19Z</time>
      </trkpt>
      <trkpt lat="44.20129" lon="5.24915">
        <ele>718</ele>
        <time>2015-07-19T09:21:26Z</time>
      </trkpt>
      <trkpt lat="44.20132" lon="5.24927">
        <ele>718</ele>
        <time>2015-07-19T09:21:36Z</time>
      </trkpt>
      <trkpt lat="44.20142" lon="5.24951">
        <ele>722</ele>
        <time>2015-07-19T09:21:55Z</time>
      </trkpt>
      <trkpt lat="44.20142" lon="5.24966">
        <ele>725</ele>
        <time>2015-07-19T09:22:06Z</time>
      </trkpt>
      <trkpt lat="44.20136" lon="5.24973">
        <ele>725</ele>
        <time>2015-07-19T09:23:20Z</time>
      </trkpt>
      <trkpt lat="44.20137" lon="5.24977">
        <ele>727</ele>
        <time>2015-07-19T09:24:22Z</time>
      </trkpt>
      <trkpt lat="44.20146" lon="5.24983">
        <ele>727</ele>
        <time>2015-07-19T09:24:40Z</time>
      </trkpt>
      <trkpt lat="44.20156" lon="5.24989">
        <ele>727</ele>
        <time>2015-07-19T09:24:47Z</time>
      </trkpt>
      <trkpt lat="44.20163" lon="5.24999">
        <ele>726</ele>
        <time>2015-07-19T09:24:55Z</time>
      </trkpt>
      <trkpt lat="44.20166" lon="5.2501">
        <ele>732</ele>
        <time>2015-07-19T09:25:15Z</time>
      </trkpt>
      <trkpt lat="44.20159" lon="5.25019">
        <ele>732</ele>
        <time>2015-07-19T09:25:20Z</time>
      </trkpt>
      <trkpt lat="44.20155" lon="5.2503">
        <ele>736</ele>
        <time>2015-07-19T09:25:35Z</time>
      </trkpt>
      <trkpt lat="44.20158" lon="5.25048">
        <ele>734</ele>
        <time>2015-07-19T09:26:06Z</time>
      </trkpt>
      <trkpt lat="44.20159" lon="5.25061">
        <ele>735</ele>
        <time>2015-07-19T09:26:15Z</time>
      </trkpt>
      <trkpt lat="44.20159" lon="5.25074">
        <ele>734</ele>
        <time>2015-07-19T09:26:27Z</time>
      </trkpt>
      <trkpt lat="44.20153" lon="5.25099">
        <ele>744</ele>
        <time>2015-07-19T09:26:48Z</time>
      </trkpt>
      <trkpt lat="44.20147" lon="5.25117">
        <ele>737</ele>
        <time>2015-07-19T09:27:17Z</time>
      </trkpt>
      <trkpt lat="44.20143" lon="5.25127">
        <ele>739</ele>
        <time>2015-07-19T09:27:35Z</time>
      </trkpt>
      <trkpt lat="44.20132" lon="5.25137">
        <ele>736</ele>
        <time>2015-07-19T09:27:59Z</time>
      </trkpt>
      <trkpt lat="44.20091" lon="5.25154">
        <ele>742</ele>
        <time>2015-07-19T09:28:46Z</time>
      </trkpt>
      <trkpt lat="44.20082" lon="5.2516">
        <ele>745</ele>
        <time>2015-07-19T09:29:00Z</time>
      </trkpt>
      <trkpt lat="44.2006" lon="5.25174">
        <ele>746</ele>
        <time>2015-07-19T09:29:23Z</time>
      </trkpt>
      <trkpt lat="44.20059" lon="5.25186">
        <ele>751</ele>
        <time>2015-07-19T09:29:40Z</time>
      </trkpt>
      <trkpt lat="44.20051" lon="5.25196">
        <ele>758</ele>
        <time>2015-07-19T09:29:56Z</time>
      </trkpt>
      <trkpt lat="44.20043" lon="5.25219">
        <ele>761</ele>
        <time>2015-07-19T09:30:12Z</time>
      </trkpt>
      <trkpt lat="44.20037" lon="5.25232">
        <ele>761</ele>
        <time>2015-07-19T09:30:18Z</time>
      </trkpt>
      <trkpt lat="44.20034" lon="5.25246">
        <ele>763</ele>
        <time>2015-07-19T09:30:24Z</time>
      </trkpt>
      <trkpt lat="44.20042" lon="5.25285">
        <ele>758</ele>
        <time>2015-07-19T09:30:44Z</time>
      </trkpt>
      <trkpt lat="44.20048" lon="5.25299">
        <ele>757</ele>
        <time>2015-07-19T09:30:52Z</time>
      </trkpt>
      <trkpt lat="44.20053" lon="5.2531">
        <ele>757</ele>
        <time>2015-07-19T09:30:58Z</time>
      </trkpt>
      <trkpt lat="44.20061" lon="5.25334">
        <ele>760</ele>
        <time>2015-07-19T09:31:12Z</time>
      </trkpt>
      <trkpt lat="44.20075" lon="5.25351">
        <ele>757</ele>
        <time>2015-07-19T09:31:24Z</time>
      </trkpt>
      <trkpt lat="44.20083" lon="5.25358">
        <ele>757</ele>
        <time>2015-07-19T09:31:29Z</time>
      </trkpt>
      <trkpt lat="44.20092" lon="5.25362">
        <ele>758</ele>
        <time>2015-07-19T09:31:34Z</time>
      </trkpt>
      <trkpt lat="44.20086" lon="5.25371">
        <ele>759</ele>
        <time>2015-07-19T09:31:41Z</time>
      </trkpt>
      <trkpt lat="44.20077" lon="5.25381">
        <ele>763</ele>
        <time>2015-07-19T09:31:50Z</time>
      </trkpt>
      <trkpt lat="44.20075" lon="5.25394">
        <ele>767</ele>
        <time>2015-07-19T09:31:59Z</time>
      </trkpt>
      <trkpt lat="44.20076" lon="5.25406">
        <ele>767</ele>
        <time>2015-07-19T09:32:09Z</time>
      </trkpt>
      <trkpt lat="44.20071" lon="5.25431">
        <ele>771</ele>
        <time>2015-07-19T09:32:24Z</time>
      </trkpt>
      <trkpt lat="44.20071" lon="5.25442">
        <ele>772</ele>
        <time>2015-07-19T09:32:31Z</time>
      </trkpt>
      <trkpt lat="44.20071" lon="5.25466">
        <ele>769</ele>
        <time>2015-07-19T09:32:47Z</time>
      </trkpt>
      <trkpt lat="44.20071" lon="5.25474">
        <ele>771</ele>
        <time>2015-07-19T09:32:52Z</time>
      </trkpt>
      <trkpt lat="44.20069" lon="5.25481">
        <ele>770</ele>
        <time>2015-07-19T09:32:57Z</time>
      </trkpt>
      <trkpt lat="44.20065" lon="5.25495">
        <ele>773</ele>
        <time>2015-07-19T09:33:08Z</time>
      </trkpt>
      <trkpt lat="44.20061" lon="5.25499">
        <ele>773</ele>
        <time>2015-07-19T09:33:13Z</time>
      </trkpt>
      <trkpt lat="44.20054" lon="5.25511">
        <ele>776</ele>
        <time>2015-07-19T09:33:24Z</time>
      </trkpt>
      <trkpt lat="44.20051" lon="5.25516">
        <ele>776</ele>
        <time>2015-07-19T09:33:31Z</time>
      </trkpt>
      <trkpt lat="44.20041" lon="5.2552">
        <ele>776</ele>
        <time>2015-07-19T09:33:40Z</time>
      </trkpt>
      <trkpt lat="44.20015" lon="5.25516">
        <ele>781</ele>
        <time>2015-07-19T09:34:12Z</time>
      </trkpt>
      <trkpt lat="44.2001" lon="5.25515">
        <ele>779</ele>
        <time>2015-07-19T09:34:21Z</time>
      </trkpt>
      <trkpt lat="44.20003" lon="5.25519">
        <ele>780</ele>
        <time>2015-07-19T09:34:32Z</time>
      </trkpt>
      <trkpt lat="44.19967" lon="5.25557">
        <ele>788</ele>
        <time>2015-07-19T09:35:08Z</time>
      </trkpt>
      <trkpt lat="44.19963" lon="5.25568">
        <ele>789</ele>
        <time>2015-07-19T09:35:16Z</time>
      </trkpt>
      <trkpt lat="44.19956" lon="5.25579">
        <ele>789</ele>
        <time>2015-07-19T09:35:24Z</time>
      </trkpt>
      <trkpt lat="44.19936" lon="5.2561">
        <ele>796</ele>
        <time>2015-07-19T09:35:45Z</time>
      </trkpt>
      <trkpt lat="44.19928" lon="5.25634">
        <ele>791</ele>
        <time>2015-07-19T09:36:02Z</time>
      </trkpt>
      <trkpt lat="44.19924" lon="5.25646">
        <ele>791</ele>
        <time>2015-07-19T09:36:12Z</time>
      </trkpt>
      <trkpt lat="44.19921" lon="5.25658">
        <ele>792</ele>
        <time>2015-07-19T09:36:21Z</time>
      </trkpt>
      <trkpt lat="44.19916" lon="5.25683">
        <ele>797</ele>
        <time>2015-07-19T09:36:38Z</time>
      </trkpt>
      <trkpt lat="44.19921" lon="5.25697">
        <ele>803</ele>
        <time>2015-07-19T09:36:52Z</time>
      </trkpt>
      <trkpt lat="44.19926" lon="5.25708">
        <ele>808</ele>
        <time>2015-07-19T09:36:57Z</time>
      </trkpt>
      <trkpt lat="44.19933" lon="5.25718">
        <ele>809</ele>
        <time>2015-07-19T09:37:04Z</time>
      </trkpt>
      <trkpt lat="44.19945" lon="5.25737">
        <ele>805</ele>
        <time>2015-07-19T09:37:22Z</time>
      </trkpt>
      <trkpt lat="44.19948" lon="5.25745">
        <ele>806</ele>
        <time>2015-07-19T09:37:30Z</time>
      </trkpt>
      <trkpt lat="44.19948" lon="5.25754">
        <ele>807</ele>
        <time>2015-07-19T09:37:37Z</time>
      </trkpt>
      <trkpt lat="44.1995" lon="5.25783">
        <ele>821</ele>
        <time>2015-07-19T09:37:59Z</time>
      </trkpt>
      <trkpt lat="44.19958" lon="5.25792">
        <ele>823</ele>
        <time>2015-07-19T09:38:18Z</time>
      </trkpt>
      <trkpt lat="44.19961" lon="5.25792">
        <ele>821</ele>
        <time>2015-07-19T09:39:16Z</time>
      </trkpt>
      <trkpt lat="44.1995" lon="5.25761">
        <ele>821</ele>
        <time>2015-07-19T09:39:44Z</time>
      </trkpt>
      <trkpt lat="44.19947" lon="5.25755">
        <ele>818</ele>
        <time>2015-07-19T09:39:49Z</time>
      </trkpt>
      <trkpt lat="44.19941" lon="5.25749">
        <ele>817</ele>
        <time>2015-07-19T09:40:05Z</time>
      </trkpt>
      <trkpt lat="44.19939" lon="5.2575">
        <ele>818</ele>
        <time>2015-07-19T09:40:11Z</time>
      </trkpt>
      <trkpt lat="44.1993" lon="5.25749">
        <ele>831</ele>
        <time>2015-07-19T09:41:02Z</time>
      </trkpt>
      <trkpt lat="44.19925" lon="5.2575">
        <ele>822</ele>
        <time>2015-07-19T09:41:46Z</time>
      </trkpt>
      <trkpt lat="44.19914" lon="5.25753">
        <ele>831</ele>
        <time>2015-07-19T09:41:57Z</time>
      </trkpt>
      <trkpt lat="44.1991" lon="5.25745">
        <ele>832</ele>
        <time>2015-07-19T09:42:21Z</time>
      </trkpt>
      <trkpt lat="44.19908" lon="5.2574">
        <ele>823</ele>
        <time>2015-07-19T09:42:34Z</time>
      </trkpt>
      <trkpt lat="44.19902" lon="5.25723">
        <ele>832</ele>
        <time>2015-07-19T09:42:45Z</time>
      </trkpt>
      <trkpt lat="44.19902" lon="5.25723">
        <ele>831</ele>
        <time>2015-07-19T09:43:03Z</time>
      </trkpt>
      <trkpt lat="44.19898" lon="5.25722">
        <ele>830</ele>
        <time>2015-07-19T09:43:10Z</time>
      </trkpt>
      <trkpt lat="44.19893" lon="5.25714">
        <ele>828</ele>
        <time>2015-07-19T09:43:26Z</time>
      </trkpt>
      <trkpt lat="44.1989" lon="5.25702">
        <ele>830</ele>
        <time>2015-07-19T09:43:39Z</time>
      </trkpt>
      <trkpt lat="44.19889" lon="5.25688">
        <ele>834</ele>
        <time>2015-07-19T09:43:50Z</time>
      </trkpt>
      <trkpt lat="44.19887" lon="5.25681">
        <ele>834</ele>
        <time>2015-07-19T09:43:54Z</time>
      </trkpt>
      <trkpt lat="44.19888" lon="5.25674">
        <ele>834</ele>
        <time>2015-07-19T09:43:59Z</time>
      </trkpt>
      <trkpt lat="44.19885" lon="5.25667">
        <ele>836</ele>
        <time>2015-07-19T09:44:06Z</time>
      </trkpt>
      <trkpt lat="44.19882" lon="5.25664">
        <ele>840</ele>
        <time>2015-07-19T09:44:21Z</time>
      </trkpt>
      <trkpt lat="44.19878" lon="5.2566">
        <ele>840</ele>
        <time>2015-07-19T09:44:28Z</time>
      </trkpt>
      <trkpt lat="44.19876" lon="5.25653">
        <ele>841</ele>
        <time>2015-07-19T09:44:34Z</time>
      </trkpt>
      <trkpt lat="44.19875" lon="5.25647">
        <ele>841</ele>
        <time>2015-07-19T09:44:39Z</time>
      </trkpt>
      <trkpt lat="44.19875" lon="5.25641">
        <ele>843</ele>
        <time>2015-07-19T09:44:44Z</time>
      </trkpt>
      <trkpt lat="44.19877" lon="5.25632">
        <ele>844</ele>
        <time>2015-07-19T09:44:55Z</time>
      </trkpt>
      <trkpt lat="44.19876" lon="5.25618">
        <ele>844</ele>
        <time>2015-07-19T09:45:05Z</time>
      </trkpt>
      <trkpt lat="44.19874" lon="5.25605">
        <ele>843</ele>
        <time>2015-07-19T09:45:13Z</time>
      </trkpt>
      <trkpt lat="44.19874" lon="5.25596">
        <ele>843</ele>
        <time>2015-07-19T09:45:20Z</time>
      </trkpt>
      <trkpt lat="44.19872" lon="5.2559">
        <ele>844</ele>
        <time>2015-07-19T09:45:25Z</time>
      </trkpt>
      <trkpt lat="44.19872" lon="5.25577">
        <ele>844</ele>
        <time>2015-07-19T09:45:35Z</time>
      </trkpt>
      <trkpt lat="44.19871" lon="5.25532">
        <ele>849</ele>
        <time>2015-07-19T09:46:10Z</time>
      </trkpt>
      <trkpt lat="44.19873" lon="5.25526">
        <ele>850</ele>
        <time>2015-07-19T09:46:16Z</time>
      </trkpt>
      <trkpt lat="44.19872" lon="5.25504">
        <ele>847</ele>
        <time>2015-07-19T09:46:36Z</time>
      </trkpt>
      <trkpt lat="44.19871" lon="5.25497">
        <ele>848</ele>
        <time>2015-07-19T09:46:42Z</time>
      </trkpt>
      <trkpt lat="44.19872" lon="5.25487">
        <ele>849</ele>
        <time>2015-07-19T09:46:50Z</time>
      </trkpt>
      <trkpt lat="44.19875" lon="5.25468">
        <ele>852</ele>
        <time>2015-07-19T09:47:06Z</time>
      </trkpt>
      <trkpt lat="44.19875" lon="5.25461">
        <ele>852</ele>
        <time>2015-07-19T09:47:12Z</time>
      </trkpt>
      <trkpt lat="44.19872" lon="5.25454">
        <ele>855</ele>
        <time>2015-07-19T09:47:22Z</time>
      </trkpt>
      <trkpt lat="44.19873" lon="5.25449">
        <ele>856</ele>
        <time>2015-07-19T09:47:33Z</time>
      </trkpt>
      <trkpt lat="44.19882" lon="5.25433">
        <ele>861</ele>
        <time>2015-07-19T09:47:51Z</time>
      </trkpt>
      <trkpt lat="44.19884" lon="5.25426">
        <ele>861</ele>
        <time>2015-07-19T09:47:56Z</time>
      </trkpt>
      <trkpt lat="44.19891" lon="5.25414">
        <ele>864</ele>
        <time>2015-07-19T09:48:10Z</time>
      </trkpt>
      <trkpt lat="44.19894" lon="5.25408">
        <ele>864</ele>
        <time>2015-07-19T09:48:13Z</time>
      </trkpt>
      <trkpt lat="44.19896" lon="5.25394">
        <ele>862</ele>
        <time>2015-07-19T09:48:21Z</time>
      </trkpt>
      <trkpt lat="44.19899" lon="5.2537">
        <ele>861</ele>
        <time>2015-07-19T09:48:33Z</time>
      </trkpt>
      <trkpt lat="44.19899" lon="5.25363">
        <ele>862</ele>
        <time>2015-07-19T09:48:37Z</time>
      </trkpt>
      <trkpt lat="44.19898" lon="5.25345">
        <ele>871</ele>
        <time>2015-07-19T09:48:55Z</time>
      </trkpt>
      <trkpt lat="44.19898" lon="5.25337">
        <ele>871</ele>
        <time>2015-07-19T09:49:05Z</time>
      </trkpt>
      <trkpt lat="44.19896" lon="5.25321">
        <ele>871</ele>
        <time>2015-07-19T09:49:24Z</time>
      </trkpt>
      <trkpt lat="44.19896" lon="5.25307">
        <ele>868</ele>
        <time>2015-07-19T09:49:36Z</time>
      </trkpt>
      <trkpt lat="44.19894" lon="5.2529">
        <ele>868</ele>
        <time>2015-07-19T09:49:49Z</time>
      </trkpt>
      <trkpt lat="44.19895" lon="5.25284">
        <ele>870</ele>
        <time>2015-07-19T09:49:54Z</time>
      </trkpt>
      <trkpt lat="44.19894" lon="5.25276">
        <ele>870</ele>
        <time>2015-07-19T09:50:00Z</time>
      </trkpt>
      <trkpt lat="44.19893" lon="5.25266">
        <ele>871</ele>
        <time>2015-07-19T09:50:10Z</time>
      </trkpt>
      <trkpt lat="44.1989" lon="5.25257">
        <ele>873</ele>
        <time>2015-07-19T09:50:19Z</time>
      </trkpt>
      <trkpt lat="44.19888" lon="5.2525">
        <ele>873</ele>
        <time>2015-07-19T09:50:24Z</time>
      </trkpt>
      <trkpt lat="44.19883" lon="5.25236">
        <ele>874</ele>
        <time>2015-07-19T09:50:34Z</time>
      </trkpt>
      <trkpt lat="44.19881" lon="5.25229">
        <ele>876</ele>
        <time>2015-07-19T09:50:41Z</time>
      </trkpt>
      <trkpt lat="44.19879" lon="5.25223">
        <ele>876</ele>
        <time>2015-07-19T09:50:47Z</time>
      </trkpt>
      <trkpt lat="44.19875" lon="5.25214">
        <ele>878</ele>
        <time>2015-07-19T09:50:55Z</time>
      </trkpt>
      <trkpt lat="44.19874" lon="5.25207">
        <ele>879</ele>
        <time>2015-07-19T09:50:59Z</time>
      </trkpt>
      <trkpt lat="44.19874" lon="5.25193">
        <ele>877</ele>
        <time>2015-07-19T09:51:07Z</time>
      </trkpt>
      <trkpt lat="44.19875" lon="5.25173">
        <ele>881</ele>
        <time>2015-07-19T09:51:21Z</time>
      </trkpt>
      <trkpt lat="44.19874" lon="5.25167">
        <ele>881</ele>
        <time>2015-07-19T09:51:26Z</time>
      </trkpt>
      <trkpt lat="44.19873" lon="5.25152">
        <ele>879</ele>
        <time>2015-07-19T09:51:35Z</time>
      </trkpt>
      <trkpt lat="44.1987" lon="5.25145">
        <ele>879</ele>
        <time>2015-07-19T09:51:40Z</time>
      </trkpt>
      <trkpt lat="44.19865" lon="5.25097">
        <ele>894</ele>
        <time>2015-07-19T09:52:12Z</time>
      </trkpt>
      <trkpt lat="44.19864" lon="5.2509">
        <ele>896</ele>
        <time>2015-07-19T09:52:18Z</time>
      </trkpt>
      <trkpt lat="44.1986" lon="5.2508">
        <ele>893</ele>
        <time>2015-07-19T09:52:32Z</time>
      </trkpt>
      <trkpt lat="44.19858" lon="5.2506">
        <ele>894</ele>
        <time>2015-07-19T09:52:47Z</time>
      </trkpt>
      <trkpt lat="44.19856" lon="5.25052">
        <ele>895</ele>
        <time>2015-07-19T09:52:55Z</time>
      </trkpt>
      <trkpt lat="44.1985" lon="5.25042">
        <ele>895</ele>
        <time>2015-07-19T09:53:05Z</time>
      </trkpt>
      <trkpt lat="44.19848" lon="5.25034">
        <ele>896</ele>
        <time>2015-07-19T09:53:10Z</time>
      </trkpt>
      <trkpt lat="44.19847" lon="5.25027">
        <ele>895</ele>
        <time>2015-07-19T09:53:15Z</time>
      </trkpt>
      <trkpt lat="44.19844" lon="5.25018">
        <ele>894</ele>
        <time>2015-07-19T09:53:25Z</time>
      </trkpt>
      <trkpt lat="44.19838" lon="5.24999">
        <ele>898</ele>
        <time>2015-07-19T09:53:47Z</time>
      </trkpt>
      <trkpt lat="44.19827" lon="5.24989">
        <ele>894</ele>
        <time>2015-07-19T09:55:00Z</time>
      </trkpt>
      <trkpt lat="44.19825" lon="5.2499">
        <ele>902</ele>
        <time>2015-07-19T10:00:47Z</time>
      </trkpt>
      <trkpt lat="44.19828" lon="5.24991">
        <ele>900</ele>
        <time>2015-07-19T10:01:30Z</time>
      </trkpt>
      <trkpt lat="44.1983" lon="5.24989">
        <ele>899</ele>
        <time>2015-07-19T10:02:53Z</time>
      </trkpt>
      <trkpt lat="44.19833" lon="5.24983">
        <ele>899</ele>
        <time>2015-07-19T10:02:59Z</time>
      </trkpt>
      <trkpt lat="44.19833" lon="5.24975">
        <ele>901</ele>
        <time>2015-07-19T10:03:05Z</time>
      </trkpt>
      <trkpt lat="44.19824" lon="5.24964">
        <ele>905</ele>
        <time>2015-07-19T10:03:18Z</time>
      </trkpt>
      <trkpt lat="44.19816" lon="5.2493">
        <ele>913</ele>
        <time>2015-07-19T10:03:55Z</time>
      </trkpt>
      <trkpt lat="44.19811" lon="5.24925">
        <ele>916</ele>
        <time>2015-07-19T10:04:02Z</time>
      </trkpt>
      <trkpt lat="44.19807" lon="5.24921">
        <ele>913</ele>
        <time>2015-07-19T10:04:08Z</time>
      </trkpt>
      <trkpt lat="44.19803" lon="5.24912">
        <ele>912</ele>
        <time>2015-07-19T10:04:17Z</time>
      </trkpt>
      <trkpt lat="44.19801" lon="5.24902">
        <ele>915</ele>
        <time>2015-07-19T10:04:25Z</time>
      </trkpt>
      <trkpt lat="44.19804" lon="5.24897">
        <ele>916</ele>
        <time>2015-07-19T10:04:27Z</time>
      </trkpt>
      <trkpt lat="44.19802" lon="5.24887">
        <ele>916</ele>
        <time>2015-07-19T10:04:39Z</time>
      </trkpt>
      <trkpt lat="44.19799" lon="5.24882">
        <ele>918</ele>
        <time>2015-07-19T10:04:45Z</time>
      </trkpt>
      <trkpt lat="44.19799" lon="5.24877">
        <ele>920</ele>
        <time>2015-07-19T10:04:56Z</time>
      </trkpt>
      <trkpt lat="44.19795" lon="5.24872">
        <ele>923</ele>
        <time>2015-07-19T10:05:11Z</time>
      </trkpt>
      <trkpt lat="44.19792" lon="5.24867">
        <ele>924</ele>
        <time>2015-07-19T10:05:18Z</time>
      </trkpt>
      <trkpt lat="44.19794" lon="5.24861">
        <ele>924</ele>
        <time>2015-07-19T10:05:28Z</time>
      </trkpt>
      <trkpt lat="44.198" lon="5.24854">
        <ele>929</ele>
        <time>2015-07-19T10:05:36Z</time>
      </trkpt>
      <trkpt lat="44.198" lon="5.24846">
        <ele>929</ele>
        <time>2015-07-19T10:05:43Z</time>
      </trkpt>
      <trkpt lat="44.19804" lon="5.24827">
        <ele>931</ele>
        <time>2015-07-19T10:05:55Z</time>
      </trkpt>
      <trkpt lat="44.19808" lon="5.24806">
        <ele>928</ele>
        <time>2015-07-19T10:06:09Z</time>
      </trkpt>
      <trkpt lat="44.19809" lon="5.24798">
        <ele>928</ele>
        <time>2015-07-19T10:06:14Z</time>
      </trkpt>
      <trkpt lat="44.19812" lon="5.24773">
        <ele>923</ele>
        <time>2015-07-19T10:06:31Z</time>
      </trkpt>
      <trkpt lat="44.19807" lon="5.24753">
        <ele>921</ele>
        <time>2015-07-19T10:06:46Z</time>
      </trkpt>
      <trkpt lat="44.19806" lon="5.24716">
        <ele>928</ele>
        <time>2015-07-19T10:07:21Z</time>
      </trkpt>
      <trkpt lat="44.19806" lon="5.24709">
        <ele>929</ele>
        <time>2015-07-19T10:07:26Z</time>
      </trkpt>
      <trkpt lat="44.19803" lon="5.24703">
        <ele>929</ele>
        <time>2015-07-19T10:07:31Z</time>
      </trkpt>
      <trkpt lat="44.19802" lon="5.24696">
        <ele>930</ele>
        <time>2015-07-19T10:07:39Z</time>
      </trkpt>
      <trkpt lat="44.198" lon="5.2469">
        <ele>929</ele>
        <time>2015-07-19T10:07:45Z</time>
      </trkpt>
      <trkpt lat="44.19797" lon="5.24685">
        <ele>929</ele>
        <time>2015-07-19T10:07:52Z</time>
      </trkpt>
      <trkpt lat="44.19784" lon="5.24665">
        <ele>934</ele>
        <time>2015-07-19T10:08:22Z</time>
      </trkpt>
      <trkpt lat="44.19785" lon="5.24657">
        <ele>934</ele>
        <time>2015-07-19T10:08:28Z</time>
      </trkpt>
      <trkpt lat="44.19782" lon="5.24648">
        <ele>936</ele>
        <time>2015-07-19T10:08:41Z</time>
      </trkpt>
      <trkpt lat="44.1978" lon="5.24643">
        <ele>935</ele>
        <time>2015-07-19T10:08:48Z</time>
      </trkpt>
      <trkpt lat="44.19777" lon="5.24628">
        <ele>938</ele>
        <time>2015-07-19T10:09:00Z</time>
      </trkpt>
      <trkpt lat="44.19775" lon="5.24615">
        <ele>937</ele>
        <time>2015-07-19T10:09:11Z</time>
      </trkpt>
      <trkpt lat="44.19774" lon="5.24607">
        <ele>939</ele>
        <time>2015-07-19T10:09:17Z</time>
      </trkpt>
      <trkpt lat="44.19764" lon="5.24582">
        <ele>946</ele>
        <time>2015-07-19T10:09:39Z</time>
      </trkpt>
      <trkpt lat="44.19761" lon="5.2457">
        <ele>947</ele>
        <time>2015-07-19T10:09:49Z</time>
      </trkpt>
      <trkpt lat="44.19755" lon="5.2456">
        <ele>947</ele>
        <time>2015-07-19T10:09:59Z</time>
      </trkpt>
      <trkpt lat="44.19744" lon="5.24549">
        <ele>939</ele>
        <time>2015-07-19T10:10:16Z</time>
      </trkpt>
      <trkpt lat="44.19745" lon="5.24543">
        <ele>942</ele>
        <time>2015-07-19T10:10:32Z</time>
      </trkpt>
      <trkpt lat="44.19748" lon="5.24537">
        <ele>943</ele>
        <time>2015-07-19T10:10:33Z</time>
      </trkpt>
      <trkpt lat="44.19747" lon="5.24527">
        <ele>949</ele>
        <time>2015-07-19T10:10:43Z</time>
      </trkpt>
      <trkpt lat="44.19744" lon="5.24516">
        <ele>952</ele>
        <time>2015-07-19T10:10:57Z</time>
      </trkpt>
      <trkpt lat="44.19737" lon="5.24507">
        <ele>953</ele>
        <time>2015-07-19T10:11:08Z</time>
      </trkpt>
      <trkpt lat="44.19733" lon="5.24495">
        <ele>953</ele>
        <time>2015-07-19T10:11:22Z</time>
      </trkpt>
      <trkpt lat="44.19725" lon="5.24486">
        <ele>966</ele>
        <time>2015-07-19T10:11:59Z</time>
      </trkpt>
      <trkpt lat="44.19716" lon="5.2448">
        <ele>968</ele>
        <time>2015-07-19T10:12:06Z</time>
      </trkpt>
      <trkpt lat="44.19714" lon="5.24466">
        <ele>967</ele>
        <time>2015-07-19T10:12:16Z</time>
      </trkpt>
      <trkpt lat="44.19714" lon="5.24453">
        <ele>967</ele>
        <time>2015-07-19T10:12:23Z</time>
      </trkpt>
      <trkpt lat="44.19714" lon="5.2444">
        <ele>967</ele>
        <time>2015-07-19T10:12:31Z</time>
      </trkpt>
      <trkpt lat="44.19712" lon="5.24426">
        <ele>971</ele>
        <time>2015-07-19T10:12:46Z</time>
      </trkpt>
      <trkpt lat="44.19707" lon="5.2441">
        <ele>970</ele>
        <time>2015-07-19T10:13:01Z</time>
      </trkpt>
      <trkpt lat="44.19695" lon="5.24399">
        <ele>967</ele>
        <time>2015-07-19T10:13:08Z</time>
      </trkpt>
      <trkpt lat="44.19694" lon="5.24392">
        <ele>961</ele>
        <time>2015-07-19T10:13:31Z</time>
      </trkpt>
      <trkpt lat="44.19694" lon="5.24379">
        <ele>963</ele>
        <time>2015-07-19T10:13:37Z</time>
      </trkpt>
      <trkpt lat="44.19685" lon="5.24345">
        <ele>977</ele>
        <time>2015-07-19T10:14:13Z</time>
      </trkpt>
      <trkpt lat="44.19673" lon="5.24322">
        <ele>983</ele>
        <time>2015-07-19T10:14:33Z</time>
      </trkpt>
      <trkpt lat="44.19668" lon="5.24312">
        <ele>983</ele>
        <time>2015-07-19T10:14:45Z</time>
      </trkpt>
      <trkpt lat="44.19663" lon="5.24301">
        <ele>983</ele>
        <time>2015-07-19T10:15:00Z</time>
      </trkpt>
      <trkpt lat="44.19661" lon="5.24286">
        <ele>978</ele>
        <time>2015-07-19T10:15:16Z</time>
      </trkpt>
      <trkpt lat="44.19666" lon="5.2428">
        <ele>976</ele>
        <time>2015-07-19T10:15:30Z</time>
      </trkpt>
      <trkpt lat="44.19673" lon="5.24276">
        <ele>978</ele>
        <time>2015-07-19T10:15:39Z</time>
      </trkpt>
      <trkpt lat="44.19702" lon="5.24271">
        <ele>986</ele>
        <time>2015-07-19T10:16:17Z</time>
      </trkpt>
      <trkpt lat="44.19711" lon="5.24266">
        <ele>983</ele>
        <time>2015-07-19T10:16:28Z</time>
      </trkpt>
      <trkpt lat="44.19717" lon="5.24252">
        <ele>980</ele>
        <time>2015-07-19T10:16:39Z</time>
      </trkpt>
      <trkpt lat="44.19716" lon="5.24241">
        <ele>982</ele>
        <time>2015-07-19T10:16:55Z</time>
      </trkpt>
      <trkpt lat="44.19709" lon="5.24239">
        <ele>986</ele>
        <time>2015-07-19T10:17:12Z</time>
      </trkpt>
      <trkpt lat="44.19692" lon="5.24237">
        <ele>989</ele>
        <time>2015-07-19T10:17:31Z</time>
      </trkpt>
      <trkpt lat="44.19684" lon="5.24232">
        <ele>988</ele>
        <time>2015-07-19T10:17:51Z</time>
      </trkpt>
      <trkpt lat="44.19667" lon="5.24223">
        <ele>990</ele>
        <time>2015-07-19T10:18:11Z</time>
      </trkpt>
      <trkpt lat="44.19662" lon="5.24222">
        <ele>991</ele>
        <time>2015-07-19T10:18:19Z</time>
      </trkpt>
      <trkpt lat="44.19653" lon="5.24219">
        <ele>992</ele>
        <time>2015-07-19T10:18:33Z</time>
      </trkpt>
      <trkpt lat="44.1963" lon="5.24209">
        <ele>1005</ele>
        <time>2015-07-19T10:19:07Z</time>
      </trkpt>
      <trkpt lat="44.19625" lon="5.24208">
        <ele>1005</ele>
        <time>2015-07-19T10:19:15Z</time>
      </trkpt>
      <trkpt lat="44.19621" lon="5.24203">
        <ele>1003</ele>
        <time>2015-07-19T10:19:23Z</time>
      </trkpt>
      <trkpt lat="44.19617" lon="5.24192">
        <ele>1004</ele>
        <time>2015-07-19T10:19:36Z</time>
      </trkpt>
      <trkpt lat="44.1961" lon="5.24186">
        <ele>1004</ele>
        <time>2015-07-19T10:19:43Z</time>
      </trkpt>
      <trkpt lat="44.19604" lon="5.24177">
        <ele>1000</ele>
        <time>2015-07-19T10:19:54Z</time>
      </trkpt>
      <trkpt lat="44.19599" lon="5.24175">
        <ele>999</ele>
        <time>2015-07-19T10:20:01Z</time>
      </trkpt>
      <trkpt lat="44.1959" lon="5.24174">
        <ele>1000</ele>
        <time>2015-07-19T10:20:07Z</time>
      </trkpt>
      <trkpt lat="44.19584" lon="5.24166">
        <ele>997</ele>
        <time>2015-07-19T10:20:24Z</time>
      </trkpt>
      <trkpt lat="44.19582" lon="5.24172">
        <ele>999</ele>
        <time>2015-07-19T10:20:34Z</time>
      </trkpt>
      <trkpt lat="44.19577" lon="5.24174">
        <ele>996</ele>
        <time>2015-07-19T10:22:06Z</time>
      </trkpt>
      <trkpt lat="44.19573" lon="5.24177">
        <ele>988</ele>
        <time>2015-07-19T10:22:34Z</time>
      </trkpt>
      <trkpt lat="44.19568" lon="5.2418">
        <ele>997</ele>
        <time>2015-07-19T10:25:49Z</time>
      </trkpt>
      <trkpt lat="44.19568" lon="5.24179">
        <ele>994</ele>
        <time>2015-07-19T10:29:39Z</time>
      </trkpt>
      <trkpt lat="44.19568" lon="5.24167">
        <ele>993</ele>
        <time>2015-07-19T10:31:49Z</time>
      </trkpt>
      <trkpt lat="44.19559" lon="5.24162">
        <ele>993</ele>
        <time>2015-07-19T10:31:54Z</time>
      </trkpt>
      <trkpt lat="44.19511" lon="5.24173">
        <ele>1012</ele>
        <time>2015-07-19T10:32:15Z</time>
      </trkpt>
      <trkpt lat="44.19499" lon="5.24177">
        <ele>1012</ele>
        <time>2015-07-19T10:32:20Z</time>
      </trkpt>
      <trkpt lat="44.19438" lon="5.24206">
        <ele>1019</ele>
        <time>2015-07-19T10:32:49Z</time>
      </trkpt>
      <trkpt lat="44.19433" lon="5.2421">
        <ele>1019</ele>
        <time>2015-07-19T10:32:52Z</time>
      </trkpt>
      <trkpt lat="44.19422" lon="5.24218">
        <ele>1019</ele>
        <time>2015-07-19T10:32:57Z</time>
      </trkpt>
      <trkpt lat="44.19416" lon="5.24224">
        <ele>1021</ele>
        <time>2015-07-19T10:33:01Z</time>
      </trkpt>
      <trkpt lat="44.1941" lon="5.24226">
        <ele>1021</ele>
        <time>2015-07-19T10:33:03Z</time>
      </trkpt>
      <trkpt lat="44.19406" lon="5.2423">
        <ele>1021</ele>
        <time>2015-07-19T10:33:05Z</time>
      </trkpt>
      <trkpt lat="44.19402" lon="5.24236">
        <ele>1021</ele>
        <time>2015-07-19T10:33:07Z</time>
      </trkpt>
      <trkpt lat="44.19373" lon="5.24279">
        <ele>1010</ele>
        <time>2015-07-19T10:33:24Z</time>
      </trkpt>
      <trkpt lat="44.19369" lon="5.24287">
        <ele>1010</ele>
        <time>2015-07-19T10:33:27Z</time>
      </trkpt>
      <trkpt lat="44.19364" lon="5.24297">
        <ele>1011</ele>
        <time>2015-07-19T10:33:31Z</time>
      </trkpt>
      <trkpt lat="44.19363" lon="5.243">
        <ele>1011</ele>
        <time>2015-07-19T10:33:32Z</time>
      </trkpt>
      <trkpt lat="44.19354" lon="5.24324">
        <ele>1008</ele>
        <time>2015-07-19T10:33:40Z</time>
      </trkpt>
      <trkpt lat="44.19352" lon="5.2433">
        <ele>1009</ele>
        <time>2015-07-19T10:33:42Z</time>
      </trkpt>
      <trkpt lat="44.19349" lon="5.24338">
        <ele>1009</ele>
        <time>2015-07-19T10:33:45Z</time>
      </trkpt>
      <trkpt lat="44.19331" lon="5.24364">
        <ele>1012</ele>
        <time>2015-07-19T10:33:59Z</time>
      </trkpt>
      <trkpt lat="44.19312" lon="5.24365">
        <ele>1014</ele>
        <time>2015-07-19T10:34:11Z</time>
      </trkpt>
      <trkpt lat="44.19302" lon="5.2436">
        <ele>1016</ele>
        <time>2015-07-19T10:34:17Z</time>
      </trkpt>
      <trkpt lat="44.19275" lon="5.24344">
        <ele>1017</ele>
        <time>2015-07-19T10:34:31Z</time>
      </trkpt>
      <trkpt lat="44.19215" lon="5.2429">
        <ele>1015</ele>
        <time>2015-07-19T10:35:00Z</time>
      </trkpt>
      <trkpt lat="44.19188" lon="5.24252">
        <ele>1017</ele>
        <time>2015-07-19T10:35:18Z</time>
      </trkpt>
      <trkpt lat="44.19163" lon="5.24206">
        <ele>1021</ele>
        <time>2015-07-19T10:35:37Z</time>
      </trkpt>
      <trkpt lat="44.19155" lon="5.24195">
        <ele>1021</ele>
        <time>2015-07-19T10:35:42Z</time>
      </trkpt>
      <trkpt lat="44.19134" lon="5.24175">
        <ele>1022</ele>
        <time>2015-07-19T10:35:56Z</time>
      </trkpt>
      <trkpt lat="44.19125" lon="5.24169">
        <ele>1021</ele>
        <time>2015-07-19T10:36:01Z</time>
      </trkpt>
      <trkpt lat="44.1912" lon="5.24168">
        <ele>1021</ele>
        <time>2015-07-19T10:36:04Z</time>
      </trkpt>
      <trkpt lat="44.19108" lon="5.24177">
        <ele>1021</ele>
        <time>2015-07-19T10:36:09Z</time>
      </trkpt>
      <trkpt lat="44.19099" lon="5.24186">
        <ele>1021</ele>
        <time>2015-07-19T10:36:15Z</time>
      </trkpt>
      <trkpt lat="44.19075" lon="5.24257">
        <ele>1027</ele>
        <time>2015-07-19T10:36:46Z</time>
      </trkpt>
      <trkpt lat="44.19073" lon="5.2427">
        <ele>1027</ele>
        <time>2015-07-19T10:36:50Z</time>
      </trkpt>
      <trkpt lat="44.19069" lon="5.24284">
        <ele>1027</ele>
        <time>2015-07-19T10:36:55Z</time>
      </trkpt>
      <trkpt lat="44.19064" lon="5.24313">
        <ele>1024</ele>
        <time>2015-07-19T10:37:05Z</time>
      </trkpt>
      <trkpt lat="44.19064" lon="5.24328">
        <ele>1025</ele>
        <time>2015-07-19T10:37:12Z</time>
      </trkpt>
      <trkpt lat="44.19065" lon="5.24344">
        <ele>1023</ele>
        <time>2015-07-19T10:37:18Z</time>
      </trkpt>
      <trkpt lat="44.19063" lon="5.24379">
        <ele>1027</ele>
        <time>2015-07-19T10:37:31Z</time>
      </trkpt>
      <trkpt lat="44.19065" lon="5.24399">
        <ele>1027</ele>
        <time>2015-07-19T10:37:39Z</time>
      </trkpt>
      <trkpt lat="44.19069" lon="5.24433">
        <ele>1031</ele>
        <time>2015-07-19T10:37:52Z</time>
      </trkpt>
      <trkpt lat="44.19068" lon="5.24447">
        <ele>1031</ele>
        <time>2015-07-19T10:37:57Z</time>
      </trkpt>
      <trkpt lat="44.19067" lon="5.24466">
        <ele>1033</ele>
        <time>2015-07-19T10:38:05Z</time>
      </trkpt>
      <trkpt lat="44.19069" lon="5.24485">
        <ele>1032</ele>
        <time>2015-07-19T10:38:12Z</time>
      </trkpt>
      <trkpt lat="44.19073" lon="5.24531">
        <ele>1039</ele>
        <time>2015-07-19T10:38:29Z</time>
      </trkpt>
      <trkpt lat="44.19076" lon="5.24559">
        <ele>1039</ele>
        <time>2015-07-19T10:38:40Z</time>
      </trkpt>
      <trkpt lat="44.19085" lon="5.24627">
        <ele>1044</ele>
        <time>2015-07-19T10:39:05Z</time>
      </trkpt>
      <trkpt lat="44.1908" lon="5.2471">
        <ele>1058</ele>
        <time>2015-07-19T10:39:39Z</time>
      </trkpt>
      <trkpt lat="44.19085" lon="5.24797">
        <ele>1057</ele>
        <time>2015-07-19T10:40:10Z</time>
      </trkpt>
      <trkpt lat="44.19086" lon="5.24823">
        <ele>1057</ele>
        <time>2015-07-19T10:40:20Z</time>
      </trkpt>
      <trkpt lat="44.19081" lon="5.24837">
        <ele>1055</ele>
        <time>2015-07-19T10:40:25Z</time>
      </trkpt>
      <trkpt lat="44.19072" lon="5.24833">
        <ele>1052</ele>
        <time>2015-07-19T10:40:40Z</time>
      </trkpt>
      <trkpt lat="44.19039" lon="5.24764">
        <ele>1063</ele>
        <time>2015-07-19T10:41:09Z</time>
      </trkpt>
      <trkpt lat="44.19033" lon="5.2475">
        <ele>1062</ele>
        <time>2015-07-19T10:41:14Z</time>
      </trkpt>
      <trkpt lat="44.19026" lon="5.24741">
        <ele>1062</ele>
        <time>2015-07-19T10:41:18Z</time>
      </trkpt>
      <trkpt lat="44.19014" lon="5.24718">
        <ele>1060</ele>
        <time>2015-07-19T10:41:28Z</time>
      </trkpt>
      <trkpt lat="44.19008" lon="5.24707">
        <ele>1060</ele>
        <time>2015-07-19T10:41:33Z</time>
      </trkpt>
      <trkpt lat="44.18997" lon="5.24685">
        <ele>1062</ele>
        <time>2015-07-19T10:41:42Z</time>
      </trkpt>
      <trkpt lat="44.18991" lon="5.24674">
        <ele>1063</ele>
        <time>2015-07-19T10:41:46Z</time>
      </trkpt>
      <trkpt lat="44.18986" lon="5.24663">
        <ele>1064</ele>
        <time>2015-07-19T10:41:51Z</time>
      </trkpt>
      <trkpt lat="44.18975" lon="5.24641">
        <ele>1064</ele>
        <time>2015-07-19T10:42:00Z</time>
      </trkpt>
      <trkpt lat="44.1893" lon="5.2457">
        <ele>1070</ele>
        <time>2015-07-19T10:42:34Z</time>
      </trkpt>
      <trkpt lat="44.18919" lon="5.24547">
        <ele>1070</ele>
        <time>2015-07-19T10:42:44Z</time>
      </trkpt>
      <trkpt lat="44.18907" lon="5.24523">
        <ele>1072</ele>
        <time>2015-07-19T10:42:55Z</time>
      </trkpt>
      <trkpt lat="44.18888" lon="5.2449">
        <ele>1072</ele>
        <time>2015-07-19T10:43:09Z</time>
      </trkpt>
      <trkpt lat="44.18874" lon="5.2447">
        <ele>1075</ele>
        <time>2015-07-19T10:43:20Z</time>
      </trkpt>
      <trkpt lat="44.18867" lon="5.24459">
        <ele>1076</ele>
        <time>2015-07-19T10:43:26Z</time>
      </trkpt>
      <trkpt lat="44.18853" lon="5.24421">
        <ele>1074</ele>
        <time>2015-07-19T10:43:42Z</time>
      </trkpt>
      <trkpt lat="44.18849" lon="5.24411">
        <ele>1072</ele>
        <time>2015-07-19T10:43:47Z</time>
      </trkpt>
      <trkpt lat="44.18844" lon="5.24403">
        <ele>1073</ele>
        <time>2015-07-19T10:44:03Z</time>
      </trkpt>
      <trkpt lat="44.18844" lon="5.24396">
        <ele>1073</ele>
        <time>2015-07-19T10:44:15Z</time>
      </trkpt>
      <trkpt lat="44.18838" lon="5.24388">
        <ele>1070</ele>
        <time>2015-07-19T10:45:45Z</time>
      </trkpt>
      <trkpt lat="44.18836" lon="5.24375">
        <ele>1070</ele>
        <time>2015-07-19T10:45:51Z</time>
      </trkpt>
      <trkpt lat="44.18839" lon="5.24363">
        <ele>1072</ele>
        <time>2015-07-19T10:45:56Z</time>
      </trkpt>
      <trkpt lat="44.18834" lon="5.2433">
        <ele>1075</ele>
        <time>2015-07-19T10:46:09Z</time>
      </trkpt>
      <trkpt lat="44.18831" lon="5.24324">
        <ele>1075</ele>
        <time>2015-07-19T10:46:11Z</time>
      </trkpt>
      <trkpt lat="44.18829" lon="5.24319">
        <ele>1074</ele>
        <time>2015-07-19T10:46:13Z</time>
      </trkpt>
      <trkpt lat="44.18822" lon="5.24301">
        <ele>1075</ele>
        <time>2015-07-19T10:46:20Z</time>
      </trkpt>
      <trkpt lat="44.18814" lon="5.24273">
        <ele>1075</ele>
        <time>2015-07-19T10:46:31Z</time>
      </trkpt>
      <trkpt lat="44.18804" lon="5.24249">
        <ele>1077</ele>
        <time>2015-07-19T10:46:41Z</time>
      </trkpt>
      <trkpt lat="44.18797" lon="5.2424">
        <ele>1077</ele>
        <time>2015-07-19T10:46:45Z</time>
      </trkpt>
      <trkpt lat="44.18773" lon="5.24229">
        <ele>1074</ele>
        <time>2015-07-19T10:46:55Z</time>
      </trkpt>
      <trkpt lat="44.18768" lon="5.24229">
        <ele>1073</ele>
        <time>2015-07-19T10:46:59Z</time>
      </trkpt>
      <trkpt lat="44.18758" lon="5.24232">
        <ele>1073</ele>
        <time>2015-07-19T10:47:05Z</time>
      </trkpt>
      <trkpt lat="44.18715" lon="5.24279">
        <ele>1087</ele>
        <time>2015-07-19T10:47:35Z</time>
      </trkpt>
      <trkpt lat="44.18669" lon="5.24332">
        <ele>1097</ele>
        <time>2015-07-19T10:48:07Z</time>
      </trkpt>
      <trkpt lat="44.1866" lon="5.24341">
        <ele>1096</ele>
        <time>2015-07-19T10:48:11Z</time>
      </trkpt>
      <trkpt lat="44.18651" lon="5.2435">
        <ele>1096</ele>
        <time>2015-07-19T10:48:18Z</time>
      </trkpt>
      <trkpt lat="44.18635" lon="5.24368">
        <ele>1094</ele>
        <time>2015-07-19T10:48:27Z</time>
      </trkpt>
      <trkpt lat="44.18625" lon="5.24381">
        <ele>1094</ele>
        <time>2015-07-19T10:48:34Z</time>
      </trkpt>
      <trkpt lat="44.18616" lon="5.24407">
        <ele>1093</ele>
        <time>2015-07-19T10:48:44Z</time>
      </trkpt>
      <trkpt lat="44.18602" lon="5.24462">
        <ele>1101</ele>
        <time>2015-07-19T10:49:03Z</time>
      </trkpt>
      <trkpt lat="44.18598" lon="5.24475">
        <ele>1101</ele>
        <time>2015-07-19T10:49:07Z</time>
      </trkpt>
      <trkpt lat="44.18592" lon="5.24494">
        <ele>1104</ele>
        <time>2015-07-19T10:49:13Z</time>
      </trkpt>
      <trkpt lat="44.1859" lon="5.24505">
        <ele>1104</ele>
        <time>2015-07-19T10:49:16Z</time>
      </trkpt>
      <trkpt lat="44.18589" lon="5.24513">
        <ele>1104</ele>
        <time>2015-07-19T10:49:18Z</time>
      </trkpt>
      <trkpt lat="44.18588" lon="5.24522">
        <ele>1104</ele>
        <time>2015-07-19T10:49:20Z</time>
      </trkpt>
      <trkpt lat="44.18586" lon="5.24531">
        <ele>1103</ele>
        <time>2015-07-19T10:49:23Z</time>
      </trkpt>
      <trkpt lat="44.18578" lon="5.24545">
        <ele>1103</ele>
        <time>2015-07-19T10:49:28Z</time>
      </trkpt>
      <trkpt lat="44.18575" lon="5.2455">
        <ele>1103</ele>
        <time>2015-07-19T10:49:30Z</time>
      </trkpt>
      <trkpt lat="44.18561" lon="5.2457">
        <ele>1100</ele>
        <time>2015-07-19T10:49:40Z</time>
      </trkpt>
      <trkpt lat="44.18554" lon="5.24574">
        <ele>1095</ele>
        <time>2015-07-19T10:49:44Z</time>
      </trkpt>
      <trkpt lat="44.18544" lon="5.24568">
        <ele>1091</ele>
        <time>2015-07-19T10:49:51Z</time>
      </trkpt>
      <trkpt lat="44.18508" lon="5.24481">
        <ele>1098</ele>
        <time>2015-07-19T10:50:23Z</time>
      </trkpt>
      <trkpt lat="44.18496" lon="5.24449">
        <ele>1099</ele>
        <time>2015-07-19T10:50:33Z</time>
      </trkpt>
      <trkpt lat="44.18486" lon="5.24432">
        <ele>1099</ele>
        <time>2015-07-19T10:50:40Z</time>
      </trkpt>
      <trkpt lat="44.18481" lon="5.24419">
        <ele>1100</ele>
        <time>2015-07-19T10:50:43Z</time>
      </trkpt>
      <trkpt lat="44.18469" lon="5.24364">
        <ele>1101</ele>
        <time>2015-07-19T10:50:57Z</time>
      </trkpt>
      <trkpt lat="44.18469" lon="5.24357">
        <ele>1101</ele>
        <time>2015-07-19T10:50:58Z</time>
      </trkpt>
      <trkpt lat="44.1847" lon="5.24314">
        <ele>1098</ele>
        <time>2015-07-19T10:51:10Z</time>
      </trkpt>
      <trkpt lat="44.18469" lon="5.24287">
        <ele>1100</ele>
        <time>2015-07-19T10:51:19Z</time>
      </trkpt>
      <trkpt lat="44.18483" lon="5.24229">
        <ele>1100</ele>
        <time>2015-07-19T10:51:33Z</time>
      </trkpt>
      <trkpt lat="44.1847" lon="5.24093">
        <ele>1095</ele>
        <time>2015-07-19T10:52:03Z</time>
      </trkpt>
      <trkpt lat="44.18465" lon="5.24066">
        <ele>1096</ele>
        <time>2015-07-19T10:52:10Z</time>
      </trkpt>
      <trkpt lat="44.18447" lon="5.23983">
        <ele>1104</ele>
        <time>2015-07-19T10:52:30Z</time>
      </trkpt>
      <trkpt lat="44.18441" lon="5.23929">
        <ele>1102</ele>
        <time>2015-07-19T10:52:42Z</time>
      </trkpt>
      <trkpt lat="44.18442" lon="5.23908">
        <ele>1103</ele>
        <time>2015-07-19T10:52:48Z</time>
      </trkpt>
      <trkpt lat="44.18444" lon="5.23899">
        <ele>1104</ele>
        <time>2015-07-19T10:52:50Z</time>
      </trkpt>
      <trkpt lat="44.18448" lon="5.23881">
        <ele>1104</ele>
        <time>2015-07-19T10:52:54Z</time>
      </trkpt>
      <trkpt lat="44.18455" lon="5.23834">
        <ele>1103</ele>
        <time>2015-07-19T10:53:04Z</time>
      </trkpt>
      <trkpt lat="44.18458" lon="5.2382">
        <ele>1104</ele>
        <time>2015-07-19T10:53:08Z</time>
      </trkpt>
      <trkpt lat="44.18457" lon="5.23813">
        <ele>1104</ele>
        <time>2015-07-19T10:53:10Z</time>
      </trkpt>
      <trkpt lat="44.18449" lon="5.23756">
        <ele>1107</ele>
        <time>2015-07-19T10:53:22Z</time>
      </trkpt>
      <trkpt lat="44.18445" lon="5.23747">
        <ele>1107</ele>
        <time>2015-07-19T10:53:24Z</time>
      </trkpt>
      <trkpt lat="44.18438" lon="5.23735">
        <ele>1106</ele>
        <time>2015-07-19T10:53:27Z</time>
      </trkpt>
      <trkpt lat="44.18429" lon="5.23716">
        <ele>1106</ele>
        <time>2015-07-19T10:53:33Z</time>
      </trkpt>
      <trkpt lat="44.18419" lon="5.23701">
        <ele>1105</ele>
        <time>2015-07-19T10:53:38Z</time>
      </trkpt>
      <trkpt lat="44.18405" lon="5.23681">
        <ele>1103</ele>
        <time>2015-07-19T10:53:46Z</time>
      </trkpt>
      <trkpt lat="44.18394" lon="5.23667">
        <ele>1104</ele>
        <time>2015-07-19T10:53:53Z</time>
      </trkpt>
      <trkpt lat="44.18391" lon="5.23662">
        <ele>1104</ele>
        <time>2015-07-19T10:53:55Z</time>
      </trkpt>
      <trkpt lat="44.18388" lon="5.23657">
        <ele>1104</ele>
        <time>2015-07-19T10:53:57Z</time>
      </trkpt>
      <trkpt lat="44.18378" lon="5.23647">
        <ele>1103</ele>
        <time>2015-07-19T10:54:02Z</time>
      </trkpt>
      <trkpt lat="44.18357" lon="5.2361">
        <ele>1105</ele>
        <time>2015-07-19T10:54:17Z</time>
      </trkpt>
      <trkpt lat="44.18348" lon="5.23599">
        <ele>1104</ele>
        <time>2015-07-19T10:54:22Z</time>
      </trkpt>
      <trkpt lat="44.18343" lon="5.23592">
        <ele>1105</ele>
        <time>2015-07-19T10:54:25Z</time>
      </trkpt>
      <trkpt lat="44.18341" lon="5.23589">
        <ele>1105</ele>
        <time>2015-07-19T10:54:26Z</time>
      </trkpt>
      <trkpt lat="44.18329" lon="5.23574">
        <ele>1103</ele>
        <time>2015-07-19T10:54:33Z</time>
      </trkpt>
      <trkpt lat="44.1832" lon="5.23566">
        <ele>1103</ele>
        <time>2015-07-19T10:54:38Z</time>
      </trkpt>
      <trkpt lat="44.18288" lon="5.23524">
        <ele>1102</ele>
        <time>2015-07-19T10:54:57Z</time>
      </trkpt>
      <trkpt lat="44.18265" lon="5.23503">
        <ele>1103</ele>
        <time>2015-07-19T10:55:09Z</time>
      </trkpt>
      <trkpt lat="44.18257" lon="5.23505">
        <ele>1103</ele>
        <time>2015-07-19T10:55:13Z</time>
      </trkpt>
      <trkpt lat="44.18241" lon="5.23521">
        <ele>1103</ele>
        <time>2015-07-19T10:55:21Z</time>
      </trkpt>
      <trkpt lat="44.18208" lon="5.2359">
        <ele>1107</ele>
        <time>2015-07-19T10:55:47Z</time>
      </trkpt>
      <trkpt lat="44.18196" lon="5.23607">
        <ele>1110</ele>
        <time>2015-07-19T10:55:55Z</time>
      </trkpt>
      <trkpt lat="44.1814" lon="5.23649">
        <ele>1117</ele>
        <time>2015-07-19T10:56:20Z</time>
      </trkpt>
      <trkpt lat="44.1807" lon="5.23631">
        <ele>1105</ele>
        <time>2015-07-19T10:56:59Z</time>
      </trkpt>
      <trkpt lat="44.18053" lon="5.2362">
        <ele>1104</ele>
        <time>2015-07-19T10:57:14Z</time>
      </trkpt>
      <trkpt lat="44.18045" lon="5.23614">
        <ele>1101</ele>
        <time>2015-07-19T10:57:22Z</time>
      </trkpt>
      <trkpt lat="44.18041" lon="5.2361">
        <ele>1102</ele>
        <time>2015-07-19T10:57:33Z</time>
      </trkpt>
      <trkpt lat="44.18028" lon="5.23592">
        <ele>1111</ele>
        <time>2015-07-19T10:58:12Z</time>
      </trkpt>
      <trkpt lat="44.18021" lon="5.23584">
        <ele>1111</ele>
        <time>2015-07-19T10:58:21Z</time>
      </trkpt>
      <trkpt lat="44.18014" lon="5.23576">
        <ele>1110</ele>
        <time>2015-07-19T10:58:29Z</time>
      </trkpt>
      <trkpt lat="44.18006" lon="5.23569">
        <ele>1110</ele>
        <time>2015-07-19T10:58:38Z</time>
      </trkpt>
      <trkpt lat="44.17999" lon="5.23559">
        <ele>1113</ele>
        <time>2015-07-19T10:58:48Z</time>
      </trkpt>
      <trkpt lat="44.17991" lon="5.23553">
        <ele>1113</ele>
        <time>2015-07-19T10:58:56Z</time>
      </trkpt>
      <trkpt lat="44.17983" lon="5.23546">
        <ele>1112</ele>
        <time>2015-07-19T10:59:04Z</time>
      </trkpt>
      <trkpt lat="44.17961" lon="5.23524">
        <ele>1117</ele>
        <time>2015-07-19T10:59:32Z</time>
      </trkpt>
      <trkpt lat="44.17953" lon="5.23516">
        <ele>1115</ele>
        <time>2015-07-19T10:59:40Z</time>
      </trkpt>
      <trkpt lat="44.17944" lon="5.2351">
        <ele>1115</ele>
        <time>2015-07-19T10:59:49Z</time>
      </trkpt>
      <trkpt lat="44.17928" lon="5.23494">
        <ele>1111</ele>
        <time>2015-07-19T11:00:05Z</time>
      </trkpt>
      <trkpt lat="44.17911" lon="5.23475">
        <ele>1119</ele>
        <time>2015-07-19T11:00:29Z</time>
      </trkpt>
      <trkpt lat="44.17904" lon="5.23465">
        <ele>1118</ele>
        <time>2015-07-19T11:00:39Z</time>
      </trkpt>
      <trkpt lat="44.17904" lon="5.2345">
        <ele>1124</ele>
        <time>2015-07-19T11:01:01Z</time>
      </trkpt>
      <trkpt lat="44.17904" lon="5.23438">
        <ele>1122</ele>
        <time>2015-07-19T11:01:10Z</time>
      </trkpt>
      <trkpt lat="44.17908" lon="5.23426">
        <ele>1121</ele>
        <time>2015-07-19T11:01:23Z</time>
      </trkpt>
      <trkpt lat="44.17913" lon="5.2341">
        <ele>1121</ele>
        <time>2015-07-19T11:01:34Z</time>
      </trkpt>
      <trkpt lat="44.17921" lon="5.23377">
        <ele>1108</ele>
        <time>2015-07-19T11:02:04Z</time>
      </trkpt>
      <trkpt lat="44.17926" lon="5.23365">
        <ele>1106</ele>
        <time>2015-07-19T11:02:33Z</time>
      </trkpt>
      <trkpt lat="44.17926" lon="5.23309">
        <ele>1115</ele>
        <time>2015-07-19T11:03:13Z</time>
      </trkpt>
      <trkpt lat="44.17924" lon="5.23245">
        <ele>1117</ele>
        <time>2015-07-19T11:03:34Z</time>
      </trkpt>
      <trkpt lat="44.17923" lon="5.23223">
        <ele>1117</ele>
        <time>2015-07-19T11:03:41Z</time>
      </trkpt>
      <trkpt lat="44.17924" lon="5.23195">
        <ele>1119</ele>
        <time>2015-07-19T11:03:50Z</time>
      </trkpt>
      <trkpt lat="44.17937" lon="5.23112">
        <ele>1125</ele>
        <time>2015-07-19T11:04:12Z</time>
      </trkpt>
      <trkpt lat="44.17949" lon="5.22983">
        <ele>1123</ele>
        <time>2015-07-19T11:04:44Z</time>
      </trkpt>
      <trkpt lat="44.17935" lon="5.22873">
        <ele>1124</ele>
        <time>2015-07-19T11:05:12Z</time>
      </trkpt>
      <trkpt lat="44.17901" lon="5.22827">
        <ele>1124</ele>
        <time>2015-07-19T11:05:30Z</time>
      </trkpt>
      <trkpt lat="44.17896" lon="5.2282">
        <ele>1125</ele>
        <time>2015-07-19T11:05:33Z</time>
      </trkpt>
      <trkpt lat="44.17895" lon="5.22817">
        <ele>1125</ele>
        <time>2015-07-19T11:05:34Z</time>
      </trkpt>
      <trkpt lat="44.17893" lon="5.22814">
        <ele>1125</ele>
        <time>2015-07-19T11:05:35Z</time>
      </trkpt>
      <trkpt lat="44.17884" lon="5.22799">
        <ele>1127</ele>
        <time>2015-07-19T11:05:39Z</time>
      </trkpt>
      <trkpt lat="44.1785" lon="5.22738">
        <ele>1127</ele>
        <time>2015-07-19T11:06:00Z</time>
      </trkpt>
      <trkpt lat="44.17825" lon="5.22673">
        <ele>1132</ele>
        <time>2015-07-19T11:06:21Z</time>
      </trkpt>
      <trkpt lat="44.17813" lon="5.22644">
        <ele>1130</ele>
        <time>2015-07-19T11:06:31Z</time>
      </trkpt>
      <trkpt lat="44.17809" lon="5.22629">
        <ele>1131</ele>
        <time>2015-07-19T11:06:36Z</time>
      </trkpt>
      <trkpt lat="44.17807" lon="5.22623">
        <ele>1130</ele>
        <time>2015-07-19T11:06:38Z</time>
      </trkpt>
      <trkpt lat="44.17802" lon="5.22609">
        <ele>1129</ele>
        <time>2015-07-19T11:06:43Z</time>
      </trkpt>
      <trkpt lat="44.17801" lon="5.22606">
        <ele>1128</ele>
        <time>2015-07-19T11:06:43Z</time>
      </trkpt>
      <trkpt lat="44.17784" lon="5.22576">
        <ele>1129</ele>
        <time>2015-07-19T11:06:55Z</time>
      </trkpt>
      <trkpt lat="44.17774" lon="5.2257">
        <ele>1128</ele>
        <time>2015-07-19T11:07:01Z</time>
      </trkpt>
      <trkpt lat="44.17771" lon="5.22568">
        <ele>1129</ele>
        <time>2015-07-19T11:07:03Z</time>
      </trkpt>
      <trkpt lat="44.17767" lon="5.22566">
        <ele>1128</ele>
        <time>2015-07-19T11:07:05Z</time>
      </trkpt>
      <trkpt lat="44.17765" lon="5.22564">
        <ele>1128</ele>
        <time>2015-07-19T11:07:06Z</time>
      </trkpt>
      <trkpt lat="44.17761" lon="5.22562">
        <ele>1128</ele>
        <time>2015-07-19T11:07:08Z</time>
      </trkpt>
      <trkpt lat="44.17745" lon="5.22552">
        <ele>1131</ele>
        <time>2015-07-19T11:07:18Z</time>
      </trkpt>
      <trkpt lat="44.17733" lon="5.2255">
        <ele>1130</ele>
        <time>2015-07-19T11:07:24Z</time>
      </trkpt>
      <trkpt lat="44.17721" lon="5.22545">
        <ele>1131</ele>
        <time>2015-07-19T11:07:30Z</time>
      </trkpt>
      <trkpt lat="44.17675" lon="5.2255">
        <ele>1143</ele>
        <time>2015-07-19T11:08:00Z</time>
      </trkpt>
      <trkpt lat="44.1766" lon="5.22556">
        <ele>1146</ele>
        <time>2015-07-19T11:08:09Z</time>
      </trkpt>
      <trkpt lat="44.17648" lon="5.22565">
        <ele>1145</ele>
        <time>2015-07-19T11:08:17Z</time>
      </trkpt>
      <trkpt lat="44.17618" lon="5.22583">
        <ele>1147</ele>
        <time>2015-07-19T11:08:39Z</time>
      </trkpt>
      <trkpt lat="44.17609" lon="5.22592">
        <ele>1148</ele>
        <time>2015-07-19T11:08:45Z</time>
      </trkpt>
      <trkpt lat="44.17605" lon="5.22596">
        <ele>1149</ele>
        <time>2015-07-19T11:08:48Z</time>
      </trkpt>
      <trkpt lat="44.17596" lon="5.22605">
        <ele>1147</ele>
        <time>2015-07-19T11:08:54Z</time>
      </trkpt>
      <trkpt lat="44.17541" lon="5.22637">
        <ele>1151</ele>
        <time>2015-07-19T11:09:27Z</time>
      </trkpt>
      <trkpt lat="44.17525" lon="5.22638">
        <ele>1152</ele>
        <time>2015-07-19T11:09:39Z</time>
      </trkpt>
      <trkpt lat="44.17516" lon="5.22634">
        <ele>1152</ele>
        <time>2015-07-19T11:09:44Z</time>
      </trkpt>
      <trkpt lat="44.17511" lon="5.2263">
        <ele>1152</ele>
        <time>2015-07-19T11:09:47Z</time>
      </trkpt>
      <trkpt lat="44.17501" lon="5.2262">
        <ele>1154</ele>
        <time>2015-07-19T11:09:53Z</time>
      </trkpt>
      <trkpt lat="44.17496" lon="5.22609">
        <ele>1154</ele>
        <time>2015-07-19T11:09:58Z</time>
      </trkpt>
      <trkpt lat="44.17485" lon="5.22586">
        <ele>1155</ele>
        <time>2015-07-19T11:10:08Z</time>
      </trkpt>
      <trkpt lat="44.17469" lon="5.22552">
        <ele>1155</ele>
        <time>2015-07-19T11:10:22Z</time>
      </trkpt>
      <trkpt lat="44.17462" lon="5.22543">
        <ele>1153</ele>
        <time>2015-07-19T11:10:26Z</time>
      </trkpt>
      <trkpt lat="44.1746" lon="5.22535">
        <ele>1153</ele>
        <time>2015-07-19T11:10:29Z</time>
      </trkpt>
      <trkpt lat="44.17454" lon="5.22522">
        <ele>1154</ele>
        <time>2015-07-19T11:10:34Z</time>
      </trkpt>
      <trkpt lat="44.17452" lon="5.22515">
        <ele>1154</ele>
        <time>2015-07-19T11:10:36Z</time>
      </trkpt>
      <trkpt lat="44.17449" lon="5.22509">
        <ele>1155</ele>
        <time>2015-07-19T11:10:39Z</time>
      </trkpt>
      <trkpt lat="44.17413" lon="5.2243">
        <ele>1155</ele>
        <time>2015-07-19T11:11:08Z</time>
      </trkpt>
      <trkpt lat="44.17411" lon="5.22424">
        <ele>1154</ele>
        <time>2015-07-19T11:11:11Z</time>
      </trkpt>
      <trkpt lat="44.17409" lon="5.22417">
        <ele>1154</ele>
        <time>2015-07-19T11:11:13Z</time>
      </trkpt>
      <trkpt lat="44.17403" lon="5.22407">
        <ele>1153</ele>
        <time>2015-07-19T11:11:18Z</time>
      </trkpt>
      <trkpt lat="44.17401" lon="5.22394">
        <ele>1152</ele>
        <time>2015-07-19T11:11:23Z</time>
      </trkpt>
      <trkpt lat="44.17392" lon="5.22366">
        <ele>1156</ele>
        <time>2015-07-19T11:11:33Z</time>
      </trkpt>
      <trkpt lat="44.17382" lon="5.22287">
        <ele>1153</ele>
        <time>2015-07-19T11:11:54Z</time>
      </trkpt>
      <trkpt lat="44.17381" lon="5.22276">
        <ele>1152</ele>
        <time>2015-07-19T11:11:57Z</time>
      </trkpt>
      <trkpt lat="44.17371" lon="5.22204">
        <ele>1152</ele>
        <time>2015-07-19T11:12:17Z</time>
      </trkpt>
      <trkpt lat="44.17366" lon="5.22179">
        <ele>1150</ele>
        <time>2015-07-19T11:12:25Z</time>
      </trkpt>
      <trkpt lat="44.17365" lon="5.22172">
        <ele>1150</ele>
        <time>2015-07-19T11:12:28Z</time>
      </trkpt>
      <trkpt lat="44.17363" lon="5.22146">
        <ele>1151</ele>
        <time>2015-07-19T11:12:36Z</time>
      </trkpt>
      <trkpt lat="44.17361" lon="5.22136">
        <ele>1151</ele>
        <time>2015-07-19T11:12:40Z</time>
      </trkpt>
      <trkpt lat="44.1736" lon="5.22118">
        <ele>1149</ele>
        <time>2015-07-19T11:12:46Z</time>
      </trkpt>
      <trkpt lat="44.1732" lon="5.22032">
        <ele>1145</ele>
        <time>2015-07-19T11:12:58Z</time>
      </trkpt>
      <trkpt lat="44.17373" lon="5.21596">
        <ele>1120</ele>
        <time>2015-07-19T11:13:28Z</time>
      </trkpt>
      <trkpt lat="44.17256" lon="5.21074">
        <ele>1075</ele>
        <time>2015-07-19T11:13:58Z</time>
      </trkpt>
      <trkpt lat="44.1708" lon="5.20464">
        <ele>1017</ele>
        <time>2015-07-19T11:14:29Z</time>
      </trkpt>
      <trkpt lat="44.17077" lon="5.20377">
        <ele>1010</ele>
        <time>2015-07-19T11:14:34Z</time>
      </trkpt>
      <trkpt lat="44.17102" lon="5.20198">
        <ele>994</ele>
        <time>2015-07-19T11:14:43Z</time>
      </trkpt>
      <trkpt lat="44.17065" lon="5.20141">
        <ele>988</ele>
        <time>2015-07-19T11:14:47Z</time>
      </trkpt>
      <trkpt lat="44.16865" lon="5.19936">
        <ele>965</ele>
        <time>2015-07-19T11:15:08Z</time>
      </trkpt>
      <trkpt lat="44.16881" lon="5.19837">
        <ele>959</ele>
        <time>2015-07-19T11:15:14Z</time>
      </trkpt>
      <trkpt lat="44.16973" lon="5.19642">
        <ele>947</ele>
        <time>2015-07-19T11:15:27Z</time>
      </trkpt>
      <trkpt lat="44.16938" lon="5.19583">
        <ele>940</ele>
        <time>2015-07-19T11:15:32Z</time>
      </trkpt>
      <trkpt lat="44.1668" lon="5.19452">
        <ele>932</ele>
        <time>2015-07-19T11:16:03Z</time>
      </trkpt>
      <trkpt lat="44.16663" lon="5.19419">
        <ele>929</ele>
        <time>2015-07-19T11:16:06Z</time>
      </trkpt>
      <trkpt lat="44.16714" lon="5.19239">
        <ele>918</ele>
        <time>2015-07-19T11:16:21Z</time>
      </trkpt>
      <trkpt lat="44.16806" lon="5.19184">
        <ele>914</ele>
        <time>2015-07-19T11:16:31Z</time>
      </trkpt>
      <trkpt lat="44.16927" lon="5.19117">
        <ele>906</ele>
        <time>2015-07-19T11:16:42Z</time>
      </trkpt>
      <trkpt lat="44.16935" lon="5.19082">
        <ele>903</ele>
        <time>2015-07-19T11:16:44Z</time>
      </trkpt>
      <trkpt lat="44.16924" lon="5.19044">
        <ele>900</ele>
        <time>2015-07-19T11:16:47Z</time>
      </trkpt>
      <trkpt lat="44.16822" lon="5.18903">
        <ele>888</ele>
        <time>2015-07-19T11:17:03Z</time>
      </trkpt>
      <trkpt lat="44.16883" lon="5.18622">
        <ele>872</ele>
        <time>2015-07-19T11:17:23Z</time>
      </trkpt>
      <trkpt lat="44.16769" lon="5.18246">
        <ele>854</ele>
        <time>2015-07-19T11:17:53Z</time>
      </trkpt>
      <trkpt lat="44.16677" lon="5.18062">
        <ele>842</ele>
        <time>2015-07-19T11:18:16Z</time>
      </trkpt>
      <trkpt lat="44.16671" lon="5.18059">
        <ele>841</ele>
        <time>2015-07-19T11:18:18Z</time>
      </trkpt>
      <trkpt lat="44.16665" lon="5.18061">
        <ele>841</ele>
        <time>2015-07-19T11:18:23Z</time>
      </trkpt>
      <trkpt lat="44.16661" lon="5.18065">
        <ele>842</ele>
        <time>2015-07-19T11:18:26Z</time>
      </trkpt>
      <trkpt lat="44.16658" lon="5.18072">
        <ele>842</ele>
        <time>2015-07-19T11:18:30Z</time>
      </trkpt>
      <trkpt lat="44.16655" lon="5.18078">
        <ele>841</ele>
        <time>2015-07-19T11:18:33Z</time>
      </trkpt>
      <trkpt lat="44.16652" lon="5.18085">
        <ele>840</ele>
        <time>2015-07-19T11:18:36Z</time>
      </trkpt>
      <trkpt lat="44.1665" lon="5.18092">
        <ele>840</ele>
        <time>2015-07-19T11:18:40Z</time>
      </trkpt>
      <trkpt lat="44.16644" lon="5.1811">
        <ele>840</ele>
        <time>2015-07-19T11:18:48Z</time>
      </trkpt>
      <trkpt lat="44.16639" lon="5.18116">
        <ele>839</ele>
        <time>2015-07-19T11:18:52Z</time>
      </trkpt>
      <trkpt lat="44.16635" lon="5.18121">
        <ele>839</ele>
        <time>2015-07-19T11:18:56Z</time>
      </trkpt>
      <trkpt lat="44.16623" lon="5.18128">
        <ele>841</ele>
        <time>2015-07-19T11:19:04Z</time>
      </trkpt>
      <trkpt lat="44.16612" lon="5.18143">
        <ele>842</ele>
        <time>2015-07-19T11:19:13Z</time>
      </trkpt>
      <trkpt lat="44.16609" lon="5.18149">
        <ele>842</ele>
        <time>2015-07-19T11:19:17Z</time>
      </trkpt>
      <trkpt lat="44.16605" lon="5.1815">
        <ele>842</ele>
        <time>2015-07-19T11:19:25Z</time>
      </trkpt>
      <trkpt lat="44.16602" lon="5.18153">
        <ele>842</ele>
        <time>2015-07-19T11:19:38Z</time>
      </trkpt>
      <trkpt lat="44.16597" lon="5.18159">
        <ele>842</ele>
        <time>2015-07-19T11:19:42Z</time>
      </trkpt>
      <trkpt lat="44.16595" lon="5.18162">
        <ele>842</ele>
        <time>2015-07-19T11:19:49Z</time>
      </trkpt>
      <trkpt lat="44.16591" lon="5.18167">
        <ele>842</ele>
        <time>2015-07-19T11:19:52Z</time>
      </trkpt>
      <trkpt lat="44.16552" lon="5.18185">
        <ele>841</ele>
        <time>2015-07-19T11:20:09Z</time>
      </trkpt>
      <trkpt lat="44.16547" lon="5.18185">
        <ele>840</ele>
        <time>2015-07-19T11:20:11Z</time>
      </trkpt>
      <trkpt lat="44.16541" lon="5.18188">
        <ele>840</ele>
        <time>2015-07-19T11:20:14Z</time>
      </trkpt>
      <trkpt lat="44.16538" lon="5.18192">
        <ele>839</ele>
        <time>2015-07-19T11:20:17Z</time>
      </trkpt>
      <trkpt lat="44.16533" lon="5.18194">
        <ele>838</ele>
        <time>2015-07-19T11:20:19Z</time>
      </trkpt>
      <trkpt lat="44.16487" lon="5.18223">
        <ele>837</ele>
        <time>2015-07-19T11:20:49Z</time>
      </trkpt>
      <trkpt lat="44.16482" lon="5.18226">
        <ele>837</ele>
        <time>2015-07-19T11:20:52Z</time>
      </trkpt>
      <trkpt lat="44.16473" lon="5.18229">
        <ele>837</ele>
        <time>2015-07-19T11:20:57Z</time>
      </trkpt>
      <trkpt lat="44.16468" lon="5.18232">
        <ele>835</ele>
        <time>2015-07-19T11:21:00Z</time>
      </trkpt>
      <trkpt lat="44.16457" lon="5.18237">
        <ele>835</ele>
        <time>2015-07-19T11:21:07Z</time>
      </trkpt>
      <trkpt lat="44.16433" lon="5.18254">
        <ele>837</ele>
        <time>2015-07-19T11:21:27Z</time>
      </trkpt>
      <trkpt lat="44.16428" lon="5.18253">
        <ele>838</ele>
        <time>2015-07-19T11:21:37Z</time>
      </trkpt>
      <trkpt lat="44.16423" lon="5.18256">
        <ele>838</ele>
        <time>2015-07-19T11:21:55Z</time>
      </trkpt>
      <trkpt lat="44.16417" lon="5.18265">
        <ele>839</ele>
        <time>2015-07-19T11:22:02Z</time>
      </trkpt>
      <trkpt lat="44.16412" lon="5.18268">
        <ele>839</ele>
        <time>2015-07-19T11:22:06Z</time>
      </trkpt>
      <trkpt lat="44.16407" lon="5.1827">
        <ele>839</ele>
        <time>2015-07-19T11:22:09Z</time>
      </trkpt>
      <trkpt lat="44.16402" lon="5.1827">
        <ele>839</ele>
        <time>2015-07-19T11:22:12Z</time>
      </trkpt>
      <trkpt lat="44.16391" lon="5.18272">
        <ele>838</ele>
        <time>2015-07-19T11:22:18Z</time>
      </trkpt>
      <trkpt lat="44.16368" lon="5.18289">
        <ele>837</ele>
        <time>2015-07-19T11:22:32Z</time>
      </trkpt>
      <trkpt lat="44.16365" lon="5.18291">
        <ele>838</ele>
        <time>2015-07-19T11:22:33Z</time>
      </trkpt>
      <trkpt lat="44.16362" lon="5.18292">
        <ele>838</ele>
        <time>2015-07-19T11:22:34Z</time>
      </trkpt>
      <trkpt lat="44.16358" lon="5.18295">
        <ele>838</ele>
        <time>2015-07-19T11:22:36Z</time>
      </trkpt>
      <trkpt lat="44.16352" lon="5.18301">
        <ele>837</ele>
        <time>2015-07-19T11:22:39Z</time>
      </trkpt>
      <trkpt lat="44.16348" lon="5.18303">
        <ele>837</ele>
        <time>2015-07-19T11:22:41Z</time>
      </trkpt>
      <trkpt lat="44.16337" lon="5.18307">
        <ele>835</ele>
        <time>2015-07-19T11:22:47Z</time>
      </trkpt>
      <trkpt lat="44.16325" lon="5.1831">
        <ele>836</ele>
        <time>2015-07-19T11:22:53Z</time>
      </trkpt>
      <trkpt lat="44.1632" lon="5.18311">
        <ele>835</ele>
        <time>2015-07-19T11:22:56Z</time>
      </trkpt>
      <trkpt lat="44.16311" lon="5.18312">
        <ele>835</ele>
        <time>2015-07-19T11:23:00Z</time>
      </trkpt>
      <trkpt lat="44.16297" lon="5.18312">
        <ele>836</ele>
        <time>2015-07-19T11:23:05Z</time>
      </trkpt>
      <trkpt lat="44.16295" lon="5.18312">
        <ele>835</ele>
        <time>2015-07-19T11:23:06Z</time>
      </trkpt>
      <trkpt lat="44.16292" lon="5.18313">
        <ele>835</ele>
        <time>2015-07-19T11:23:07Z</time>
      </trkpt>
      <trkpt lat="44.16285" lon="5.18311">
        <ele>835</ele>
        <time>2015-07-19T11:23:10Z</time>
      </trkpt>
      <trkpt lat="44.16244" lon="5.18302">
        <ele>830</ele>
        <time>2015-07-19T11:23:25Z</time>
      </trkpt>
      <trkpt lat="44.16242" lon="5.18299">
        <ele>829</ele>
        <time>2015-07-19T11:23:27Z</time>
      </trkpt>
      <trkpt lat="44.16198" lon="5.18258">
        <ele>818</ele>
        <time>2015-07-19T11:23:52Z</time>
      </trkpt>
      <trkpt lat="44.16194" lon="5.18258">
        <ele>817</ele>
        <time>2015-07-19T11:23:54Z</time>
      </trkpt>
      <trkpt lat="44.16152" lon="5.18268">
        <ele>807</ele>
        <time>2015-07-19T11:24:10Z</time>
      </trkpt>
      <trkpt lat="44.16141" lon="5.1828">
        <ele>807</ele>
        <time>2015-07-19T11:24:19Z</time>
      </trkpt>
      <trkpt lat="44.16138" lon="5.18285">
        <ele>806</ele>
        <time>2015-07-19T11:24:30Z</time>
      </trkpt>
      <trkpt lat="44.1613" lon="5.18297">
        <ele>808</ele>
        <time>2015-07-19T11:24:51Z</time>
      </trkpt>
      <trkpt lat="44.16121" lon="5.18315">
        <ele>809</ele>
        <time>2015-07-19T11:25:13Z</time>
      </trkpt>
      <trkpt lat="44.16114" lon="5.18324">
        <ele>811</ele>
        <time>2015-07-19T11:25:24Z</time>
      </trkpt>
      <trkpt lat="44.16111" lon="5.18326">
        <ele>810</ele>
        <time>2015-07-19T11:25:32Z</time>
      </trkpt>
      <trkpt lat="44.16105" lon="5.18331">
        <ele>810</ele>
        <time>2015-07-19T11:26:10Z</time>
      </trkpt>
      <trkpt lat="44.16103" lon="5.18337">
        <ele>810</ele>
        <time>2015-07-19T11:26:17Z</time>
      </trkpt>
      <trkpt lat="44.16099" lon="5.18341">
        <ele>810</ele>
        <time>2015-07-19T11:26:21Z</time>
      </trkpt>
      <trkpt lat="44.16088" lon="5.18346">
        <ele>810</ele>
        <time>2015-07-19T11:26:26Z</time>
      </trkpt>
      <trkpt lat="44.16065" lon="5.1837">
        <ele>809</ele>
        <time>2015-07-19T11:26:34Z</time>
      </trkpt>
      <trkpt lat="44.16015" lon="5.18418">
        <ele>799</ele>
        <time>2015-07-19T11:26:54Z</time>
      </trkpt>
      <trkpt lat="44.15995" lon="5.18403">
        <ele>793</ele>
        <time>2015-07-19T11:27:02Z</time>
      </trkpt>
      <trkpt lat="44.15907" lon="5.18414">
        <ele>772</ele>
        <time>2015-07-19T11:27:33Z</time>
      </trkpt>
      <trkpt lat="44.15902" lon="5.18415">
        <ele>771</ele>
        <time>2015-07-19T11:27:35Z</time>
      </trkpt>
      <trkpt lat="44.15898" lon="5.18412">
        <ele>769</ele>
        <time>2015-07-19T11:27:37Z</time>
      </trkpt>
      <trkpt lat="44.15887" lon="5.18382">
        <ele>764</ele>
        <time>2015-07-19T11:27:46Z</time>
      </trkpt>
      <trkpt lat="44.15879" lon="5.18381">
        <ele>763</ele>
        <time>2015-07-19T11:27:49Z</time>
      </trkpt>
      <trkpt lat="44.15782" lon="5.18454">
        <ele>744</ele>
        <time>2015-07-19T11:28:19Z</time>
      </trkpt>
      <trkpt lat="44.15703" lon="5.18496">
        <ele>730</ele>
        <time>2015-07-19T11:28:50Z</time>
      </trkpt>
      <trkpt lat="44.157" lon="5.18495">
        <ele>730</ele>
        <time>2015-07-19T11:29:03Z</time>
      </trkpt>
      <trkpt lat="44.15698" lon="5.18498">
        <ele>729</ele>
        <time>2015-07-19T11:29:11Z</time>
      </trkpt>
      <trkpt lat="44.15669" lon="5.18503">
        <ele>727</ele>
        <time>2015-07-19T11:29:37Z</time>
      </trkpt>
      <trkpt lat="44.15667" lon="5.185">
        <ele>726</ele>
        <time>2015-07-19T11:29:39Z</time>
      </trkpt>
      <trkpt lat="44.15629" lon="5.18488">
        <ele>721</ele>
        <time>2015-07-19T11:29:51Z</time>
      </trkpt>
      <trkpt lat="44.15603" lon="5.18493">
        <ele>717</ele>
        <time>2015-07-19T11:30:01Z</time>
      </trkpt>
      <trkpt lat="44.15598" lon="5.18496">
        <ele>717</ele>
        <time>2015-07-19T11:30:04Z</time>
      </trkpt>
      <trkpt lat="44.15589" lon="5.18504">
        <ele>716</ele>
        <time>2015-07-19T11:30:09Z</time>
      </trkpt>
      <trkpt lat="44.15582" lon="5.18509">
        <ele>716</ele>
        <time>2015-07-19T11:30:12Z</time>
      </trkpt>
      <trkpt lat="44.15542" lon="5.18518">
        <ele>711</ele>
        <time>2015-07-19T11:30:25Z</time>
      </trkpt>
      <trkpt lat="44.15494" lon="5.1851">
        <ele>707</ele>
        <time>2015-07-19T11:30:37Z</time>
      </trkpt>
      <trkpt lat="44.1549" lon="5.18503">
        <ele>706</ele>
        <time>2015-07-19T11:30:40Z</time>
      </trkpt>
      <trkpt lat="44.15473" lon="5.18496">
        <ele>704</ele>
        <time>2015-07-19T11:30:44Z</time>
      </trkpt>
      <trkpt lat="44.15366" lon="5.18478">
        <ele>689</ele>
        <time>2015-07-19T11:31:14Z</time>
      </trkpt>
      <trkpt lat="44.15355" lon="5.18477">
        <ele>686</ele>
        <time>2015-07-19T11:31:17Z</time>
      </trkpt>
      <trkpt lat="44.15352" lon="5.18475">
        <ele>686</ele>
        <time>2015-07-19T11:31:18Z</time>
      </trkpt>
      <trkpt lat="44.15323" lon="5.18462">
        <ele>678</ele>
        <time>2015-07-19T11:31:26Z</time>
      </trkpt>
      <trkpt lat="44.15311" lon="5.18443">
        <ele>675</ele>
        <time>2015-07-19T11:31:31Z</time>
      </trkpt>
      <trkpt lat="44.15262" lon="5.18386">
        <ele>666</ele>
        <time>2015-07-19T11:31:46Z</time>
      </trkpt>
      <trkpt lat="44.15251" lon="5.18364">
        <ele>664</ele>
        <time>2015-07-19T11:31:53Z</time>
      </trkpt>
      <trkpt lat="44.15246" lon="5.18356">
        <ele>664</ele>
        <time>2015-07-19T11:31:56Z</time>
      </trkpt>
      <trkpt lat="44.15244" lon="5.18353">
        <ele>664</ele>
        <time>2015-07-19T11:31:57Z</time>
      </trkpt>
      <trkpt lat="44.15238" lon="5.18346">
        <ele>664</ele>
        <time>2015-07-19T11:32:01Z</time>
      </trkpt>
      <trkpt lat="44.15233" lon="5.18339">
        <ele>663</ele>
        <time>2015-07-19T11:32:04Z</time>
      </trkpt>
      <trkpt lat="44.15233" lon="5.18335">
        <ele>662</ele>
        <time>2015-07-19T11:32:06Z</time>
      </trkpt>
      <trkpt lat="44.15231" lon="5.18332">
        <ele>662</ele>
        <time>2015-07-19T11:32:07Z</time>
      </trkpt>
      <trkpt lat="44.15216" lon="5.18312">
        <ele>663</ele>
        <time>2015-07-19T11:32:17Z</time>
      </trkpt>
      <trkpt lat="44.15171" lon="5.1828">
        <ele>659</ele>
        <time>2015-07-19T11:32:37Z</time>
      </trkpt>
      <trkpt lat="44.15165" lon="5.18279">
        <ele>657</ele>
        <time>2015-07-19T11:33:02Z</time>
      </trkpt>
      <trkpt lat="44.15162" lon="5.18273">
        <ele>657</ele>
        <time>2015-07-19T11:33:45Z</time>
      </trkpt>
      <trkpt lat="44.15156" lon="5.18266">
        <ele>657</ele>
        <time>2015-07-19T11:33:48Z</time>
      </trkpt>
      <trkpt lat="44.15123" lon="5.18258">
        <ele>656</ele>
        <time>2015-07-19T11:33:55Z</time>
      </trkpt>
      <trkpt lat="44.15115" lon="5.18256">
        <ele>654</ele>
        <time>2015-07-19T11:33:58Z</time>
      </trkpt>
      <trkpt lat="44.15055" lon="5.18251">
        <ele>644</ele>
        <time>2015-07-19T11:34:15Z</time>
      </trkpt>
      <trkpt lat="44.15026" lon="5.18262">
        <ele>637</ele>
        <time>2015-07-19T11:34:25Z</time>
      </trkpt>
      <trkpt lat="44.15026" lon="5.18265">
        <ele>630</ele>
        <time>2015-07-19T11:34:54Z</time>
      </trkpt>
      <trkpt lat="44.15021" lon="5.18265">
        <ele>630</ele>
        <time>2015-07-19T11:34:56Z</time>
      </trkpt>
      <trkpt lat="44.14921" lon="5.18296">
        <ele>613</ele>
        <time>2015-07-19T11:35:19Z</time>
      </trkpt>
      <trkpt lat="44.14917" lon="5.18289">
        <ele>609</ele>
        <time>2015-07-19T11:35:23Z</time>
      </trkpt>
      <trkpt lat="44.14912" lon="5.18276">
        <ele>605</ele>
        <time>2015-07-19T11:35:27Z</time>
      </trkpt>
      <trkpt lat="44.14906" lon="5.18272">
        <ele>603</ele>
        <time>2015-07-19T11:35:29Z</time>
      </trkpt>
      <trkpt lat="44.14889" lon="5.18268">
        <ele>597</ele>
        <time>2015-07-19T11:35:33Z</time>
      </trkpt>
      <trkpt lat="44.14887" lon="5.1826">
        <ele>594</ele>
        <time>2015-07-19T11:35:36Z</time>
      </trkpt>
      <trkpt lat="44.14885" lon="5.18258">
        <ele>593</ele>
        <time>2015-07-19T11:35:37Z</time>
      </trkpt>
      <trkpt lat="44.14794" lon="5.18234">
        <ele>571</ele>
        <time>2015-07-19T11:35:56Z</time>
      </trkpt>
      <trkpt lat="44.14699" lon="5.18235">
        <ele>548</ele>
        <time>2015-07-19T11:36:19Z</time>
      </trkpt>
      <trkpt lat="44.14694" lon="5.18227">
        <ele>546</ele>
        <time>2015-07-19T11:36:21Z</time>
      </trkpt>
      <trkpt lat="44.14684" lon="5.18224">
        <ele>544</ele>
        <time>2015-07-19T11:36:23Z</time>
      </trkpt>
      <trkpt lat="44.14671" lon="5.18222">
        <ele>542</ele>
        <time>2015-07-19T11:36:25Z</time>
      </trkpt>
      <trkpt lat="44.14666" lon="5.18222">
        <ele>541</ele>
        <time>2015-07-19T11:36:27Z</time>
      </trkpt>
      <trkpt lat="44.14636" lon="5.18201">
        <ele>536</ele>
        <time>2015-07-19T11:36:35Z</time>
      </trkpt>
      <trkpt lat="44.14612" lon="5.18195">
        <ele>529</ele>
        <time>2015-07-19T11:36:45Z</time>
      </trkpt>
      <trkpt lat="44.14607" lon="5.18189">
        <ele>528</ele>
        <time>2015-07-19T11:36:48Z</time>
      </trkpt>
      <trkpt lat="44.14576" lon="5.18172">
        <ele>523</ele>
        <time>2015-07-19T11:36:58Z</time>
      </trkpt>
      <trkpt lat="44.14554" lon="5.18135">
        <ele>514</ele>
        <time>2015-07-19T11:37:09Z</time>
      </trkpt>
      <trkpt lat="44.14549" lon="5.18126">
        <ele>514</ele>
        <time>2015-07-19T11:37:11Z</time>
      </trkpt>
      <trkpt lat="44.14545" lon="5.18123">
        <ele>514</ele>
        <time>2015-07-19T11:37:12Z</time>
      </trkpt>
      <trkpt lat="44.14541" lon="5.18118">
        <ele>513</ele>
        <time>2015-07-19T11:37:14Z</time>
      </trkpt>
      <trkpt lat="44.14536" lon="5.18112">
        <ele>513</ele>
        <time>2015-07-19T11:37:15Z</time>
      </trkpt>
      <trkpt lat="44.14526" lon="5.18108">
        <ele>512</ele>
        <time>2015-07-19T11:37:16Z</time>
      </trkpt>
      <trkpt lat="44.14515" lon="5.18105">
        <ele>512</ele>
        <time>2015-07-19T11:37:17Z</time>
      </trkpt>
      <trkpt lat="44.14496" lon="5.18083">
        <ele>510</ele>
        <time>2015-07-19T11:37:22Z</time>
      </trkpt>
      <trkpt lat="44.14491" lon="5.18077">
        <ele>509</ele>
        <time>2015-07-19T11:37:24Z</time>
      </trkpt>
      <trkpt lat="44.14456" lon="5.18034">
        <ele>505</ele>
        <time>2015-07-19T11:37:34Z</time>
      </trkpt>
      <trkpt lat="44.14406" lon="5.18002">
        <ele>498</ele>
        <time>2015-07-19T11:37:44Z</time>
      </trkpt>
      <trkpt lat="44.14402" lon="5.18003">
        <ele>493</ele>
        <time>2015-07-19T11:37:51Z</time>
      </trkpt>
      <trkpt lat="44.14393" lon="5.17995">
        <ele>491</ele>
        <time>2015-07-19T11:38:10Z</time>
      </trkpt>
      <trkpt lat="44.14361" lon="5.17937">
        <ele>484</ele>
        <time>2015-07-19T11:38:21Z</time>
      </trkpt>
      <trkpt lat="44.14352" lon="5.17907">
        <ele>478</ele>
        <time>2015-07-19T11:38:28Z</time>
      </trkpt>
      <trkpt lat="44.14348" lon="5.17902">
        <ele>477</ele>
        <time>2015-07-19T11:38:30Z</time>
      </trkpt>
      <trkpt lat="44.14342" lon="5.17899">
        <ele>476</ele>
        <time>2015-07-19T11:38:31Z</time>
      </trkpt>
      <trkpt lat="44.14335" lon="5.17894">
        <ele>474</ele>
        <time>2015-07-19T11:38:33Z</time>
      </trkpt>
      <trkpt lat="44.14332" lon="5.17888">
        <ele>473</ele>
        <time>2015-07-19T11:38:35Z</time>
      </trkpt>
      <trkpt lat="44.14326" lon="5.17884">
        <ele>472</ele>
        <time>2015-07-19T11:38:37Z</time>
      </trkpt>
      <trkpt lat="44.14305" lon="5.1787">
        <ele>468</ele>
        <time>2015-07-19T11:38:42Z</time>
      </trkpt>
      <trkpt lat="44.14275" lon="5.17828">
        <ele>458</ele>
        <time>2015-07-19T11:38:54Z</time>
      </trkpt>
      <trkpt lat="44.14275" lon="5.17822">
        <ele>457</ele>
        <time>2015-07-19T11:38:55Z</time>
      </trkpt>
      <trkpt lat="44.14261" lon="5.17658">
        <ele>442</ele>
        <time>2015-07-19T11:39:10Z</time>
      </trkpt>
      <trkpt lat="44.14233" lon="5.17619">
        <ele>436</ele>
        <time>2015-07-19T11:39:15Z</time>
      </trkpt>
      <trkpt lat="44.13998" lon="5.17581">
        <ele>408</ele>
        <time>2015-07-19T11:39:41Z</time>
      </trkpt>
      <trkpt lat="44.13751" lon="5.17631">
        <ele>387</ele>
        <time>2015-07-19T11:40:11Z</time>
      </trkpt>
      <trkpt lat="44.13738" lon="5.17625">
        <ele>387</ele>
        <time>2015-07-19T11:40:13Z</time>
      </trkpt>
      <trkpt lat="44.13722" lon="5.17618">
        <ele>387</ele>
        <time>2015-07-19T11:40:15Z</time>
      </trkpt>
      <trkpt lat="44.13688" lon="5.1762">
        <ele>385</ele>
        <time>2015-07-19T11:40:19Z</time>
      </trkpt>
      <trkpt lat="44.13681" lon="5.17623">
        <ele>385</ele>
        <time>2015-07-19T11:40:20Z</time>
      </trkpt>
      <trkpt lat="44.13679" lon="5.17637">
        <ele>384</ele>
        <time>2015-07-19T11:40:24Z</time>
      </trkpt>
      <trkpt lat="44.13686" lon="5.1765">
        <ele>381</ele>
        <time>2015-07-19T11:40:29Z</time>
      </trkpt>
      <trkpt lat="44.13691" lon="5.17657">
        <ele>381</ele>
        <time>2015-07-19T11:40:32Z</time>
      </trkpt>
      <trkpt lat="44.13695" lon="5.17662">
        <ele>381</ele>
        <time>2015-07-19T11:40:34Z</time>
      </trkpt>
      <trkpt lat="44.13697" lon="5.17666">
        <ele>381</ele>
        <time>2015-07-19T11:40:35Z</time>
      </trkpt>
      <trkpt lat="44.13698" lon="5.17669">
        <ele>381</ele>
        <time>2015-07-19T11:40:36Z</time>
      </trkpt>
      <trkpt lat="44.13704" lon="5.17679">
        <ele>382</ele>
        <time>2015-07-19T11:40:40Z</time>
      </trkpt>
      <trkpt lat="44.13714" lon="5.17693">
        <ele>383</ele>
        <time>2015-07-19T11:40:46Z</time>
      </trkpt>
      <trkpt lat="44.13725" lon="5.17703">
        <ele>382</ele>
        <time>2015-07-19T11:40:51Z</time>
      </trkpt>
      <trkpt lat="44.13748" lon="5.17724">
        <ele>380</ele>
        <time>2015-07-19T11:41:02Z</time>
      </trkpt>
      <trkpt lat="44.1376" lon="5.17739">
        <ele>380</ele>
        <time>2015-07-19T11:41:07Z</time>
      </trkpt>
      <trkpt lat="44.13828" lon="5.17833">
        <ele>374</ele>
        <time>2015-07-19T11:41:37Z</time>
      </trkpt>
      <trkpt lat="44.1383" lon="5.17836">
        <ele>374</ele>
        <time>2015-07-19T11:41:38Z</time>
      </trkpt>
      <trkpt lat="44.13834" lon="5.17842">
        <ele>374</ele>
        <time>2015-07-19T11:41:40Z</time>
      </trkpt>
      <trkpt lat="44.13838" lon="5.17848">
        <ele>373</ele>
        <time>2015-07-19T11:41:42Z</time>
      </trkpt>
      <trkpt lat="44.13841" lon="5.17861">
        <ele>374</ele>
        <time>2015-07-19T11:41:45Z</time>
      </trkpt>
      <trkpt lat="44.13841" lon="5.17908">
        <ele>382</ele>
        <time>2015-07-19T11:41:57Z</time>
      </trkpt>
      <trkpt lat="44.1384" lon="5.17926">
        <ele>382</ele>
        <time>2015-07-19T11:42:01Z</time>
      </trkpt>
      <trkpt lat="44.1384" lon="5.17934">
        <ele>381</ele>
        <time>2015-07-19T11:42:03Z</time>
      </trkpt>
      <trkpt lat="44.13841" lon="5.17954">
        <ele>381</ele>
        <time>2015-07-19T11:42:08Z</time>
      </trkpt>
      <trkpt lat="44.13841" lon="5.1796">
        <ele>382</ele>
        <time>2015-07-19T11:42:10Z</time>
      </trkpt>
      <trkpt lat="44.13841" lon="5.17964">
        <ele>382</ele>
        <time>2015-07-19T11:42:11Z</time>
      </trkpt>
      <trkpt lat="44.13842" lon="5.17988">
        <ele>383</ele>
        <time>2015-07-19T11:42:18Z</time>
      </trkpt>
      <trkpt lat="44.13847" lon="5.17996">
        <ele>384</ele>
        <time>2015-07-19T11:42:21Z</time>
      </trkpt>
      <trkpt lat="44.13867" lon="5.18008">
        <ele>388</ele>
        <time>2015-07-19T11:42:32Z</time>
      </trkpt>
      <trkpt lat="44.13882" lon="5.18018">
        <ele>389</ele>
        <time>2015-07-19T11:42:41Z</time>
      </trkpt>
      <trkpt lat="44.13893" lon="5.18032">
        <ele>392</ele>
        <time>2015-07-19T11:42:49Z</time>
      </trkpt>
      <trkpt lat="44.13897" lon="5.18039">
        <ele>392</ele>
        <time>2015-07-19T11:42:52Z</time>
      </trkpt>
      <trkpt lat="44.13907" lon="5.1805">
        <ele>393</ele>
        <time>2015-07-19T11:42:58Z</time>
      </trkpt>
      <trkpt lat="44.13914" lon="5.18058">
        <ele>395</ele>
        <time>2015-07-19T11:43:02Z</time>
      </trkpt>
      <trkpt lat="44.13918" lon="5.18063">
        <ele>394</ele>
        <time>2015-07-19T11:43:04Z</time>
      </trkpt>
      <trkpt lat="44.13922" lon="5.18069">
        <ele>395</ele>
        <time>2015-07-19T11:43:07Z</time>
      </trkpt>
      <trkpt lat="44.13927" lon="5.18074">
        <ele>395</ele>
        <time>2015-07-19T11:43:10Z</time>
      </trkpt>
      <trkpt lat="44.13929" lon="5.1808">
        <ele>395</ele>
        <time>2015-07-19T11:43:13Z</time>
      </trkpt>
      <trkpt lat="44.1393" lon="5.18088">
        <ele>396</ele>
        <time>2015-07-19T11:43:17Z</time>
      </trkpt>
      <trkpt lat="44.13929" lon="5.18098">
        <ele>396</ele>
        <time>2015-07-19T11:43:23Z</time>
      </trkpt>
      <trkpt lat="44.13927" lon="5.18101">
        <ele>397</ele>
        <time>2015-07-19T11:43:25Z</time>
      </trkpt>
      <trkpt lat="44.13858" lon="5.18185">
        <ele>400</ele>
        <time>2015-07-19T11:43:55Z</time>
      </trkpt>
      <trkpt lat="44.13774" lon="5.18301">
        <ele>394</ele>
        <time>2015-07-19T11:44:25Z</time>
      </trkpt>
      <trkpt lat="44.13734" lon="5.18354">
        <ele>391</ele>
        <time>2015-07-19T11:44:41Z</time>
      </trkpt>
      <trkpt lat="44.13727" lon="5.18352">
        <ele>391</ele>
        <time>2015-07-19T11:44:44Z</time>
      </trkpt>
      <trkpt lat="44.13718" lon="5.1834">
        <ele>391</ele>
        <time>2015-07-19T11:44:48Z</time>
      </trkpt>
      <trkpt lat="44.1367" lon="5.18305">
        <ele>388</ele>
        <time>2015-07-19T11:45:02Z</time>
      </trkpt>
      <trkpt lat="44.13651" lon="5.18287">
        <ele>388</ele>
        <time>2015-07-19T11:45:07Z</time>
      </trkpt>
      <trkpt lat="44.13572" lon="5.18235">
        <ele>382</ele>
        <time>2015-07-19T11:45:21Z</time>
      </trkpt>
      <trkpt lat="44.13558" lon="5.18236">
        <ele>381</ele>
        <time>2015-07-19T11:45:22Z</time>
      </trkpt>
      <trkpt lat="44.13537" lon="5.18251">
        <ele>380</ele>
        <time>2015-07-19T11:45:25Z</time>
      </trkpt>
      <trkpt lat="44.13534" lon="5.18255">
        <ele>380</ele>
        <time>2015-07-19T11:45:26Z</time>
      </trkpt>
      <trkpt lat="44.13525" lon="5.18274">
        <ele>381</ele>
        <time>2015-07-19T11:45:32Z</time>
      </trkpt>
      <trkpt lat="44.13521" lon="5.18287">
        <ele>381</ele>
        <time>2015-07-19T11:45:36Z</time>
      </trkpt>
      <trkpt lat="44.13517" lon="5.18302">
        <ele>380</ele>
        <time>2015-07-19T11:45:40Z</time>
      </trkpt>
      <trkpt lat="44.13514" lon="5.18314">
        <ele>380</ele>
        <time>2015-07-19T11:45:44Z</time>
      </trkpt>
      <trkpt lat="44.13513" lon="5.18317">
        <ele>380</ele>
        <time>2015-07-19T11:45:45Z</time>
      </trkpt>
      <trkpt lat="44.13512" lon="5.18321">
        <ele>380</ele>
        <time>2015-07-19T11:45:46Z</time>
      </trkpt>
      <trkpt lat="44.13505" lon="5.18344">
        <ele>376</ele>
        <time>2015-07-19T11:45:52Z</time>
      </trkpt>
      <trkpt lat="44.13503" lon="5.18354">
        <ele>376</ele>
        <time>2015-07-19T11:45:55Z</time>
      </trkpt>
      <trkpt lat="44.13498" lon="5.18386">
        <ele>375</ele>
        <time>2015-07-19T11:46:01Z</time>
      </trkpt>
      <trkpt lat="44.13492" lon="5.18396">
        <ele>376</ele>
        <time>2015-07-19T11:46:04Z</time>
      </trkpt>
      <trkpt lat="44.13484" lon="5.18398">
        <ele>377</ele>
        <time>2015-07-19T11:46:06Z</time>
      </trkpt>
      <trkpt lat="44.13476" lon="5.18401">
        <ele>377</ele>
        <time>2015-07-19T11:46:08Z</time>
      </trkpt>
      <trkpt lat="44.13302" lon="5.18471">
        <ele>369</ele>
        <time>2015-07-19T11:46:36Z</time>
      </trkpt>
      <trkpt lat="44.13289" lon="5.18482">
        <ele>369</ele>
        <time>2015-07-19T11:46:39Z</time>
      </trkpt>
      <trkpt lat="44.13284" lon="5.18493">
        <ele>370</ele>
        <time>2015-07-19T11:46:41Z</time>
      </trkpt>
      <trkpt lat="44.13208" lon="5.18632">
        <ele>361</ele>
        <time>2015-07-19T11:47:05Z</time>
      </trkpt>
      <trkpt lat="44.13202" lon="5.18641">
        <ele>362</ele>
        <time>2015-07-19T11:47:07Z</time>
      </trkpt>
      <trkpt lat="44.13022" lon="5.18859">
        <ele>358</ele>
        <time>2015-07-19T11:47:38Z</time>
      </trkpt>
      <trkpt lat="44.12863" lon="5.1886">
        <ele>348</ele>
        <time>2015-07-19T11:47:58Z</time>
      </trkpt>
      <trkpt lat="44.12863" lon="5.18868">
        <ele>348</ele>
        <time>2015-07-19T11:47:59Z</time>
      </trkpt>
    </trkseg>
  </trk>
</gpx>